Date StartTime U_cm/s V_cm/s W_cm/s Ustd_cm/s Vstd_cm/s Wstd_cm/s Uvar_(cm/s)^2 Vvar_(cm/s)^2 Wvar_(cm/s)^2 KE_(m/s)^2 TurbulentKE_(m/s)^2 HorizWindSpeed_cm/s FrictionSpeec_cm/s DragCoef SpeedOfSound_m/s SonicTemperature_C Pressure_mb 
03/13/2014  00:00:00     -103.727     -109.710       -3.353       83.031       45.693       42.591     6894.147     2087.822     1813.954        1.680        0.540      150.982       36.862        0.060      334.528        4.556      864.455
03/13/2014  00:01:00     -145.638     -142.115       -6.352       69.990       70.065       39.331     4898.655     4909.103     1546.907        2.640        0.568      203.487       42.700        0.044      334.535        4.567      864.454
03/13/2014  00:02:00     -153.195     -140.348       -0.060       56.733       43.716       36.407     3218.673     1911.074     1325.452        2.481        0.323      207.765       36.683        0.031      334.670        4.793      864.462
03/13/2014  00:03:00     -127.767      -79.589       -1.124       62.856       45.730       25.726     3950.872     2091.249      661.851        1.468        0.335      150.529       27.782        0.034      334.569        4.625      864.471
03/13/2014  00:04:00     -161.651      -99.940       -3.241       45.591       42.853       27.617     2078.494     1836.411      762.675        2.040        0.234      190.050       24.658        0.017      334.645        4.753      864.474
03/13/2014  00:05:00     -150.399      -98.679      -10.097       51.842       29.280       27.766     2687.639      857.293      770.942        1.839        0.216      179.882       26.222        0.021      334.690        4.826      864.485
03/13/2014  00:06:00     -106.116      -61.591       -2.707       50.582       35.401       21.704     2558.571     1253.263      471.071        0.967        0.214      122.695       20.077        0.027      334.733        4.900      864.483
03/13/2014  00:07:00     -100.831      -62.692       -6.839       65.698       39.663       26.356     4316.234     1573.162      694.632        1.036        0.329      118.731       29.272        0.061      334.799        5.010      864.486
03/13/2014  00:08:00     -101.818      -46.720      -10.942       52.062       24.099       24.301     2710.492      580.753      590.546        0.827        0.194      112.025       27.967        0.062      334.748        4.924      864.497
03/13/2014  00:09:00     -111.383      -16.338       -4.866       49.400       26.250       18.775     2440.337      689.059      352.503        0.809        0.174      112.575       22.982        0.042      334.673        4.800      864.500
03/13/2014  00:10:00     -127.318      -33.783        3.200       58.917       46.490       32.674     3471.204     2161.314     1067.587        1.203        0.335      131.724       33.290        0.064      334.726        4.888      864.490
03/13/2014  00:11:00     -133.873      -28.600        5.386       66.099       47.907       29.438     4369.111     2295.040      866.575        1.315        0.377      136.894       26.844        0.038      334.784        4.984      864.494
03/13/2014  00:12:00     -121.732      -22.073       -5.529       39.818       29.807       18.380     1585.448      888.436      337.836        0.907        0.141      123.717       16.425        0.018      334.792        4.999      864.478
03/13/2014  00:13:00      -99.323      -21.492      -10.233       35.107       34.707       18.272     1232.484     1204.546      333.850        0.660        0.139      101.621       10.568        0.011      334.828        5.058      864.462
03/13/2014  00:14:00     -120.137      -28.529       -7.080       33.668       23.640       16.116     1133.512      558.864      259.739        0.862        0.098      123.478       15.968        0.017      334.788        4.991      864.462
03/13/2014  00:15:00      -86.854      -23.307       -1.542       44.281       23.641       21.025     1960.805      558.889      442.066        0.552        0.148       89.927       19.231        0.046      334.872        5.132      864.455
03/13/2014  00:16:00      -69.847      -10.904       -3.798       37.136       16.953       17.542     1379.067      287.409      307.712        0.349        0.099       70.693       20.017        0.080      334.869        5.127      864.458
03/13/2014  00:17:00      -80.700       -8.498       -2.659       26.146       29.910       15.022      683.610      894.600      225.670        0.420        0.090       81.147       14.014        0.030      335.003        5.350      864.466
03/13/2014  00:18:00      -95.690       -1.868       -9.163       27.303       30.163       17.374      745.439      909.806      301.871        0.560        0.098       95.708       12.368        0.017      335.112        5.530      864.473
03/13/2014  00:19:00      -78.402       32.159       -9.312       42.067       27.785       17.709     1769.592      772.021      313.625        0.506        0.143       84.742       13.059        0.024      335.821        6.710      864.473
03/13/2014  00:20:00      -38.368      110.412      -13.140       46.970       71.616       24.630     2206.207     5128.861      606.628        1.089        0.397      116.889       25.552        0.048      335.820        6.707      864.468
03/13/2014  00:21:00      -39.484      133.478      -12.886       39.991       56.301       27.435     1599.249     3169.777      752.704        1.253        0.276      139.195       26.935        0.037      336.032        7.062      864.469
03/13/2014  00:22:00      -34.002       89.582      -17.602       51.614       75.984       18.193     2664.002     5773.499      330.983        0.913        0.438       95.818       16.932        0.031      335.697        6.505      864.488
03/13/2014  00:23:00      -16.855      -25.858       -6.849       34.521       16.955       14.078     1191.681      287.472      198.187        0.134        0.084       30.866       15.702        0.259      334.870        5.129      864.507
03/13/2014  00:24:00      -12.831      -28.174       -7.094       19.727       13.571       10.631      389.138      184.181      113.017        0.085        0.034       30.958        6.845        0.049      334.707        4.857      864.517
03/13/2014  00:25:00      -51.392      -28.734       -9.724       11.421       10.926        8.604      130.439      119.386       74.034        0.194        0.016       58.879        4.350        0.005      334.685        4.821      864.536
03/13/2014  00:26:00      -50.205      -18.325      -10.331       15.126        9.318        7.298      228.785       86.834       53.260        0.167        0.018       53.445        2.806        0.003      334.878        5.142      864.547
03/13/2014  00:27:00      -53.056      -21.789       -2.592       18.394       17.052       11.767      338.338      290.763      138.467        0.203        0.038       57.356        8.786        0.023      334.746        4.923      864.568
03/13/2014  00:28:00      -58.497      -28.200       -2.623       25.217       14.731       12.725      635.873      216.999      161.938        0.262        0.051       64.940       13.167        0.041      334.609        4.695      864.575
03/13/2014  00:29:00      -43.065      -21.856      -10.155       20.471        9.051        7.849      419.056       81.915       61.601        0.150        0.028       48.294        5.245        0.012      334.610        4.696      864.581
03/13/2014  00:30:00      -27.778      -34.809       -3.442       28.298       10.958       14.862      800.749      120.072      220.881        0.157        0.057       44.534       12.091        0.074      334.785        4.987      864.579
03/13/2014  00:31:00      -15.347       -0.304       10.257       13.706       12.927        8.683      187.854      167.105       75.402        0.039        0.022       15.350        5.982        0.152      334.635        4.739      864.571
03/13/2014  00:32:00       -5.488      -33.231       -2.076        9.454       32.690       11.341       89.369     1068.642      128.612        0.121        0.064       33.681       14.605        0.188      334.707        4.857      864.570
03/13/2014  00:33:00       -2.003      -52.118       -2.842       43.262       40.341       35.725     1871.640     1627.398     1276.283        0.375        0.239       52.156       24.819        0.226      334.623        4.718      864.559
03/13/2014  00:34:00      -21.948      -68.575        0.776       30.887       49.117       25.206      953.981     2412.488      635.357        0.459        0.200       72.002       19.611        0.074      334.510        4.531      864.569
03/13/2014  00:35:00      -13.412        1.198       13.658       14.922       35.410       25.088      222.658     1253.847      629.409        0.124        0.105       13.465       21.805        2.622      334.295        4.176      864.580
03/13/2014  00:36:00      -30.087        0.487       12.978       25.847       15.964       14.743      668.083      254.858      217.352        0.111        0.057       30.091        6.639        0.049      334.202        4.019      864.594
03/13/2014  00:37:00      -17.482      -12.443        2.357       28.425       28.785       25.069      807.968      828.593      628.463        0.137        0.113       21.458       25.531        1.416      334.275        4.141      864.590
03/13/2014  00:38:00      -13.116       14.710        4.264       10.593        9.125       13.787      112.215       83.266      190.073        0.040        0.019       19.709        8.202        0.173      334.327        4.227      864.578
03/13/2014  00:39:00      -14.499       21.998        2.882       13.175       12.967       11.762      173.572      168.148      138.334        0.059        0.024       26.346        8.210        0.097      334.213        4.039      864.568
03/13/2014  00:40:00      -18.892       31.815       -5.616       12.616        9.379        6.516      159.163       87.969       42.457        0.085        0.014       37.001        2.982        0.006      334.258        4.113      864.554
03/13/2014  00:41:00      -55.603       13.795       -6.522       21.229       13.627        8.019      450.669      185.687       64.309        0.201        0.035       57.289        5.105        0.008      334.421        4.382      864.552
03/13/2014  00:42:00     -112.627      -31.238       -6.419       24.044       24.032       12.042      578.130      577.558      145.008        0.750        0.065      116.878       11.450        0.010      334.245        4.089      864.542
03/13/2014  00:43:00     -105.632      -39.436       -7.788       22.802       25.311       16.038      519.926      640.631      257.203        0.710        0.071      112.753        9.210        0.007      334.156        3.943      864.531
03/13/2014  00:44:00      -85.563      -39.357       -5.454       41.770       30.085       18.726     1744.775      905.088      350.646        0.595        0.150       94.181       15.463        0.027      334.219        4.047      864.528
03/13/2014  00:45:00     -125.675      -45.194       -1.435       37.114       23.139       18.242     1377.456      535.407      332.770        1.004        0.112      133.554       19.331        0.021      334.216        4.042      864.530
03/13/2014  00:46:00     -136.901      -38.451       -6.885       41.712       31.040       23.053     1739.868      963.471      531.423        1.175        0.162      142.198       20.242        0.020      334.152        3.936      864.536
03/13/2014  00:47:00      -88.628      -45.293        3.512       46.572       38.990       20.903     2168.993     1520.257      436.943        0.702        0.206       99.531       22.174        0.050      334.069        3.799      864.543
03/13/2014  00:48:00      -74.983      -56.467        1.061       51.605       31.245       24.645     2663.090      976.220      607.392        0.653        0.212       93.867       21.139        0.051      334.109        3.865      864.549
03/13/2014  00:49:00      -77.214      -50.014       -0.280       52.989       31.907       22.878     2807.812     1018.047      523.411        0.641        0.217       91.997       26.559        0.083      334.041        3.752      864.552
03/13/2014  00:50:00     -109.712      -34.169        5.686       38.702       37.249       22.456     1497.841     1387.453      504.279        0.831        0.169      114.910       21.362        0.035      334.007        3.695      864.554
03/13/2014  00:51:00     -131.552      -49.571        3.179       29.594       31.873       22.256      875.817     1015.905      495.322        1.108        0.119      140.582       15.462        0.012      333.933        3.573      864.558
03/13/2014  00:52:00     -119.840      -72.507       -3.127       49.936       40.875       25.354     2493.609     1670.728      642.843        1.222        0.240      140.067       23.708        0.029      333.863        3.456      864.557
03/13/2014  00:53:00     -113.632      -74.019       -0.849       42.650       32.312       23.664     1819.058     1044.086      559.993        1.091        0.171      135.613       18.879        0.019      333.795        3.344      864.556
03/13/2014  00:54:00     -122.853      -36.587       -2.055       44.333       33.495       25.496     1965.457     1121.911      650.069        1.009        0.187      128.185       21.093        0.027      333.814        3.376      864.561
03/13/2014  00:55:00     -132.728      -44.074       -2.766       31.646       27.798       20.162     1001.492      772.703      406.510        1.087        0.109      139.855       16.899        0.015      333.757        3.281      864.561
03/13/2014  00:56:00      -98.216      -64.559        1.094       42.350       29.446       18.009     1793.558      867.056      324.309        0.840        0.149      117.534       16.586        0.020      333.832        3.405      864.557
03/13/2014  00:57:00      -99.523      -56.754       -8.047       36.272       27.061       20.771     1315.625      732.280      431.446        0.783        0.124      114.568       14.491        0.016      333.827        3.398      864.542
03/13/2014  00:58:00      -95.006      -42.634        5.261       32.210       31.080       18.887     1037.460      965.965      356.736        0.662        0.118      104.133       18.068        0.030      333.734        3.243      864.534
03/13/2014  00:59:00      -99.674      -54.524       -2.915       24.796       17.939       14.135      614.865      321.819      199.785        0.703        0.057      113.613       12.978        0.013      333.757        3.280      864.526
03/13/2014  01:00:00      -62.340      -54.911        0.705       33.610       24.049       15.121     1129.628      578.367      228.648        0.442        0.097       83.075       16.969        0.042      333.857        3.447      864.530
03/13/2014  01:01:00      -48.243      -36.362        6.711       24.346       21.316       19.132      592.742      454.357      366.052        0.255        0.071       60.412       16.630        0.076      333.862        3.456      864.541
03/13/2014  01:02:00      -19.556      -22.716       15.700       21.410       14.484       11.971      458.373      209.800      143.303        0.098        0.041       29.974       12.656        0.178      333.875        3.476      864.543
03/13/2014  01:03:00      -20.278      -14.270        6.054       16.571       17.821       15.407      274.588      317.580      237.370        0.074        0.041       24.796       12.612        0.259      333.880        3.485      864.544
03/13/2014  01:04:00      -47.320      -20.383        2.339       34.835       23.010       15.662     1213.484      529.443      245.285        0.232        0.099       51.523       10.644        0.043      333.757        3.282      864.552
03/13/2014  01:05:00      -75.006      -43.190       -3.802       30.253       25.867       21.894      915.227      669.088      479.363        0.478        0.103       86.552       18.709        0.047      333.719        3.218      864.558
03/13/2014  01:06:00     -121.735      -39.198       -8.780       18.319       22.385       11.012      335.596      501.107      121.256        0.870        0.048      127.890        7.484        0.003      333.726        3.230      864.563
03/13/2014  01:07:00     -148.395      -55.652       -6.162       20.340       20.682       14.728      413.725      427.749      216.919        1.311        0.053      158.488        9.673        0.004      333.640        3.088      864.557
03/13/2014  01:08:00     -131.125      -42.637      -11.954       28.079       24.530       16.586      788.457      601.714      275.098        1.041        0.083      137.883       15.223        0.012      333.636        3.081      864.548
03/13/2014  01:09:00     -145.396      -43.907       -7.579       20.788       23.925       14.787      432.130      572.407      218.654        1.217        0.061      151.881       10.498        0.005      333.649        3.103      864.537
03/13/2014  01:10:00     -162.149      -47.557      -13.324       19.943       17.999       22.177      397.704      323.946      491.828        1.497        0.061      168.979       14.862        0.008      333.711        3.204      864.525
03/13/2014  01:11:00     -138.130      -65.135       -5.342       32.815       16.746       16.635     1076.832      280.445      276.740        1.249        0.082      152.717       12.344        0.007      333.719        3.218      864.526
03/13/2014  01:12:00     -117.930      -62.370       -0.796       39.935       29.348       20.566     1594.843      861.298      422.966        1.034        0.144      133.407       18.622        0.019      333.703        3.191      864.512
03/13/2014  01:13:00     -114.862      -65.317       -7.909       30.437       16.350       19.762      926.385      267.320      390.541        0.955        0.079      132.135       18.318        0.019      333.717        3.214      864.500
03/13/2014  01:14:00     -101.786      -61.573       -4.202       33.586       25.244       17.881     1128.052      637.260      319.726        0.813        0.104      118.961       13.108        0.012      333.693        3.176      864.476
03/13/2014  01:15:00     -105.107      -64.037       -9.228       26.524       20.349       16.658      703.547      414.066      277.489        0.831        0.070      123.078        9.608        0.006      333.670        3.136      864.465
03/13/2014  01:16:00     -119.958      -34.996      -14.039       20.850       23.614       13.099      434.723      557.602      171.596        0.849        0.058      124.959        5.155        0.002      333.575        2.980      864.471
03/13/2014  01:17:00     -121.101      -35.403      -13.933       19.998       14.219       13.702      399.925      202.177      187.736        0.845        0.039      126.169        8.926        0.005      333.461        2.791      864.461
03/13/2014  01:18:00     -110.389      -34.825        0.395       27.784       17.518       14.423      771.965      306.890      208.027        0.734        0.064      115.752       14.335        0.015      333.487        2.834      864.447
03/13/2014  01:19:00     -131.763      -12.131      -11.222       20.586       14.904       14.878      423.778      222.139      221.362        0.925        0.043      132.320       11.320        0.007      333.422        2.726      864.446
03/13/2014  01:20:00     -118.220       -9.647       -8.991       40.200       32.345       21.448     1616.026     1046.196      460.017        0.864        0.156      118.613       21.567        0.033      333.478        2.818      864.451
03/13/2014  01:21:00     -166.525       -3.433      -14.463       35.225       29.529       21.338     1240.789      871.936      455.327        1.526        0.128      166.560       14.045        0.007      333.580        2.987      864.461
03/13/2014  01:22:00     -150.185      -23.646       -6.370       48.251       38.279       23.480     2328.121     1465.262      551.309        1.375        0.217      152.035       26.222        0.030      333.714        3.210      864.464
03/13/2014  01:23:00     -131.523       -8.574       -7.692       41.315       38.360       23.673     1706.960     1471.455      560.425        1.058        0.187      131.802       18.375        0.019      333.683        3.159      864.465
03/13/2014  01:24:00     -157.670       -0.966      -14.384       43.701       26.017       18.308     1909.776      676.861      335.180        1.399        0.146      157.673       19.140        0.015      333.723        3.223      864.479
03/13/2014  01:25:00     -153.190        3.966      -13.288       62.396       42.892       21.208     3893.257     1839.758      449.759        1.492        0.309      153.241       24.381        0.025      333.616        3.047      864.479
03/13/2014  01:26:00     -159.294       -8.245      -10.397       41.085       32.565       25.921     1687.965     1060.463      671.895        1.448        0.171      159.508       20.325        0.016      333.566        2.964      864.468
03/13/2014  01:27:00     -141.790       -9.849      -11.705       48.273       31.282       21.481     2330.330      978.539      461.445        1.205        0.189      142.131       20.245        0.020      333.453        2.776      864.458
03/13/2014  01:28:00      -92.948       -9.006        0.486       51.848       29.488       23.431     2688.177      869.549      548.996        0.641        0.205       93.383       26.597        0.081      333.538        2.919      864.469
03/13/2014  01:29:00      -55.171      -14.460        9.534       53.036       35.537       26.980     2812.769     1262.854      727.910        0.407        0.240       57.035       27.678        0.235      333.511        2.873      864.455
03/13/2014  01:30:00      -97.111       -6.827       -1.100       43.985       39.142       22.581     1934.648     1532.070      509.891        0.673        0.199       97.350       18.365        0.036      333.595        3.012      864.442
03/13/2014  01:31:00     -136.739      -20.678       -7.998       22.117       22.573       17.069      489.140      509.540      291.360        1.024        0.065      138.293       11.403        0.007      333.656        3.112      864.431
03/13/2014  01:32:00      -90.999      -34.459        0.163       33.889       24.076       18.214     1148.445      579.639      331.754        0.576        0.103       97.305       13.801        0.020      333.618        3.049      864.430
03/13/2014  01:33:00      -92.676      -30.009       -1.192       24.954       25.529       16.155      622.710      651.738      260.981        0.551        0.077       97.414       12.447        0.016      333.762        3.289      864.420
03/13/2014  01:34:00      -92.082      -40.674       -8.611       16.293       20.830       14.091      265.468      433.892      198.563        0.555        0.045      100.665        9.345        0.009      333.804        3.358      864.411
03/13/2014  01:35:00      -56.892      -50.965       -2.988       28.894       16.632       18.070      834.835      276.620      326.527        0.364        0.072       76.381       16.564        0.047      333.891        3.504      864.415
03/13/2014  01:36:00      -49.346      -27.706       -0.713       38.569       17.516       16.204     1487.556      306.810      262.569        0.263        0.103       56.592       19.673        0.121      333.735        3.246      864.414
03/13/2014  01:37:00      -76.697      -44.686       -0.404       25.773       17.920       13.468      664.223      321.142      181.382        0.452        0.058       88.765       10.923        0.015      333.583        2.991      864.420
03/13/2014  01:38:00      -49.930      -46.498        2.017       30.401       23.619       14.223      924.250      557.836      202.282        0.317        0.084       68.228       16.077        0.056      333.649        3.102      864.448
03/13/2014  01:39:00      -44.681      -38.457        2.609       30.578       21.173       19.577      935.043      448.279      383.251        0.262        0.088       58.952       16.448        0.078      333.611        3.038      864.468
03/13/2014  01:40:00      -44.200      -22.677        8.800       31.821       21.454       20.677     1012.576      460.284      427.535        0.222        0.095       49.678       20.366        0.168      333.514        2.877      864.484
03/13/2014  01:41:00      -33.533      -30.304        5.637       32.832       20.106       20.846     1077.950      404.254      434.558        0.200        0.096       45.197       17.399        0.148      333.611        3.038      864.511
03/13/2014  01:42:00      -79.252      -48.880       -3.472       24.094       22.774       17.399      580.523      518.662      302.724        0.504        0.070       93.114       16.464        0.031      333.620        3.053      864.533
03/13/2014  01:43:00      -57.282      -35.074        4.424       25.701       16.553       13.532      660.533      274.009      183.106        0.282        0.056       67.167       12.410        0.034      333.573        2.976      864.543
03/13/2014  01:44:00      -61.646      -30.973        6.923       26.244       15.823       15.863      688.742      250.355      251.649        0.300        0.060       68.990       17.055        0.061      333.491        2.839      864.552
03/13/2014  01:45:00      -53.522      -35.536        5.769       46.690       20.118       18.093     2179.993      404.724      327.360        0.354        0.146       64.245       22.805        0.126      333.540        2.923      864.571
03/13/2014  01:46:00      -36.641      -42.805        6.969       44.790       28.476       22.276     2006.177      810.870      496.209        0.327        0.166       56.345       23.136        0.169      333.460        2.789      864.595
03/13/2014  01:47:00      -76.292      -69.665       -5.158       20.065       20.460       15.534      402.602      418.626      241.292        0.588        0.053      103.313       10.707        0.011      333.507        2.867      864.603
03/13/2014  01:48:00      -55.810      -48.933       -2.553       27.781       19.042       14.791      771.774      362.614      218.774        0.343        0.068       74.224       11.005        0.022      333.562        2.958      864.610
03/13/2014  01:49:00      -93.241      -48.158       -4.468       31.453       17.446       16.617      989.298      304.377      276.131        0.630        0.078      104.943       17.527        0.028      333.549        2.936      864.618
03/13/2014  01:50:00      -60.849      -33.155        6.115       47.605       25.993       23.393     2266.245      675.637      547.229        0.416        0.174       69.296       25.244        0.133      333.425        2.729      864.637
03/13/2014  01:51:00      -79.935      -49.923       -4.675       35.433       20.206       16.869     1255.475      408.295      284.568        0.543        0.097       94.244       16.657        0.031      333.416        2.717      864.640
03/13/2014  01:52:00      -87.287      -55.436       -9.321       14.206       16.046       11.863      201.805      257.489      140.739        0.569        0.030      103.403        6.031        0.003      333.548        2.935      864.637
03/13/2014  01:53:00      -85.447      -49.106       -3.978       14.045       14.770       13.168      197.273      218.164      173.408        0.516        0.029       98.553        9.824        0.010      333.641        3.090      864.623
03/13/2014  01:54:00      -88.794      -41.828      -10.117       18.684       12.794       11.212      349.093      163.694      125.718        0.519        0.032       98.153        7.070        0.005      333.626        3.065      864.608
03/13/2014  01:55:00      -71.906      -30.822       -7.043       37.131       22.718       18.443     1378.715      516.105      340.128        0.420        0.112       78.234       20.463        0.068      333.479        2.820      864.606
03/13/2014  01:56:00      -44.374      -38.884        0.101       24.613       21.872       16.396      605.804      478.376      268.841        0.242        0.068       59.000       14.647        0.062      333.493        2.842      864.603
03/13/2014  01:57:00      -60.549      -39.168       -1.020       29.320       13.746       12.823      859.690      188.966      164.422        0.321        0.061       72.113       16.121        0.050      333.559        2.953      864.609
03/13/2014  01:58:00     -108.407      -48.915       -8.237       31.475       26.719       18.669      990.650      713.887      348.544        0.813        0.103      118.932       10.480        0.008      333.453        2.777      864.619
03/13/2014  01:59:00     -115.928      -49.238       -9.362       36.457       25.315       17.604     1329.100      640.860      309.889        0.912        0.114      125.951        6.924        0.003      333.472        2.808      864.616
03/13/2014  02:00:00      -95.570      -74.819      -12.740       33.935       29.659       21.109     1151.597      879.645      445.597        0.868        0.124      121.373       20.661        0.029      333.458        2.784      864.616
03/13/2014  02:01:00      -96.248      -72.487       -5.726       35.072       30.511       19.746     1230.017      930.910      389.895        0.855        0.128      120.491       18.437        0.023      333.555        2.947      864.619
03/13/2014  02:02:00     -105.224      -79.244      -15.935       20.322       18.971       16.670      413.001      359.894      277.903        0.933        0.053      131.726       12.400        0.009      333.606        3.032      864.633
03/13/2014  02:03:00     -118.205      -49.655      -21.117       30.792       35.187       21.645      948.147     1238.138      468.511        0.977        0.133      128.211       19.812        0.024      333.546        2.931      864.636
03/13/2014  02:04:00      -73.775      -41.386        7.293       48.111       40.458       25.621     2314.645     1636.843      656.459        0.591        0.230       84.590       23.387        0.076      333.550        2.938      864.634
03/13/2014  02:05:00     -136.137      -45.516       -5.724       62.632       30.941       31.133     3922.735      957.366      969.289        1.324        0.292      143.545       33.264        0.054      333.499        2.853      864.630
03/13/2014  02:06:00     -140.158      -78.649        3.721       48.621       51.708       36.057     2363.962     2673.679     1300.135        1.609        0.317      160.716       33.406        0.043      333.416        2.716      864.623
03/13/2014  02:07:00      -85.730      -68.395        6.083       64.779       47.537       33.966     4196.346     2259.737     1153.676        0.984        0.380      109.670       36.137        0.109      333.421        2.725      864.625
03/13/2014  02:08:00     -112.493      -87.984       -5.465       57.217       49.398       30.492     3273.746     2440.204      929.733        1.353        0.332      142.814       31.437        0.048      333.323        2.562      864.627
03/13/2014  02:09:00      -89.079      -70.998        8.795       58.447       49.018       28.822     3416.037     2402.800      830.722        0.985        0.332      113.911       30.642        0.072      333.337        2.587      864.633
03/13/2014  02:10:00      -58.007      -70.223        9.895       55.755       41.659       30.718     3108.609     1735.442      943.616        0.709        0.289       91.083       29.342        0.104      333.418        2.721      864.629
03/13/2014  02:11:00      -91.454      -88.335       11.725       53.563       49.414       32.809     2869.039     2441.742     1076.443        1.134        0.319      127.150       29.655        0.054      333.358        2.621      864.622
03/13/2014  02:12:00      -86.240      -59.749        4.667       44.737       33.690       24.999     2001.443     1135.006      624.949        0.739        0.188      104.915       23.474        0.050      333.329        2.573      864.627
03/13/2014  02:13:00      -96.397      -62.724       -3.933       50.072       28.076       19.199     2507.176      788.235      368.592        0.845        0.183      115.007       12.243        0.011      333.315        2.549      864.639
03/13/2014  02:14:00     -108.638      -47.188       -9.088       36.975       28.690       20.340     1367.179      823.104      413.717        0.836        0.130      118.444       12.693        0.011      333.280        2.492      864.626
03/13/2014  02:15:00      -89.707      -43.553       -2.505       34.862       29.293       22.582     1215.332      858.082      509.953        0.627        0.129       99.721       15.192        0.023      333.242        2.427      864.621
03/13/2014  02:16:00      -97.980      -26.225       -8.381       28.015       22.855       16.806      784.847      522.361      282.427        0.597        0.079      101.429        7.374        0.005      333.202        2.362      864.604
03/13/2014  02:17:00     -105.729      -14.095       -3.477       32.967       32.443       22.642     1086.802     1052.537      512.640        0.702        0.133      106.664       17.641        0.027      333.112        2.214      864.594
03/13/2014  02:18:00     -130.123      -23.390       -2.718       26.970       30.027       17.860      727.395      901.639      318.971        0.972        0.097      132.209       11.087        0.007      333.078        2.158      864.604
03/13/2014  02:19:00     -100.678      -53.174       -2.469       32.240       26.125       17.688     1039.389      682.502      312.870        0.750        0.102      113.858       13.659        0.014      333.098        2.190      864.609
03/13/2014  02:20:00     -103.223      -43.231       -4.717       28.873       20.029       13.302      833.626      401.173      176.940        0.698        0.071      111.910       14.543        0.017      333.190        2.343      864.603
03/13/2014  02:21:00     -117.675      -35.972       -9.805       17.687       20.650       11.136      312.824      426.425      124.016        0.805        0.043      123.050        5.415        0.002      333.078        2.158      864.592
03/13/2014  02:22:00     -116.430      -71.572       -9.623       17.865       23.843       13.686      319.153      568.476      187.294        0.992        0.054      136.669        9.459        0.005      333.172        2.313      864.582
03/13/2014  02:23:00     -125.892      -32.151       -6.254       17.167       24.720       14.734      294.691      611.096      217.093        0.902        0.056      129.932       11.674        0.008      333.055        2.119      864.584
03/13/2014  02:24:00     -125.272      -12.091      -11.769       25.878       23.011       15.384      669.660      529.486      236.671        0.871        0.072      125.855       10.833        0.007      332.956        1.956      864.585
03/13/2014  02:25:00     -113.255      -28.529       -6.807       34.604       23.471       16.513     1197.439      550.898      272.684        0.785        0.101      116.793       15.739        0.018      332.967        1.975      864.581
03/13/2014  02:26:00     -146.140      -55.712       -9.110       22.987       21.928       15.974      528.404      480.817      255.174        1.290        0.063      156.399       13.458        0.007      332.953        1.953      864.583
03/13/2014  02:27:00     -147.841      -43.829      -10.566       35.933       23.234       20.995     1291.211      539.802      440.785        1.308        0.114      154.201       17.280        0.013      332.986        2.007      864.585
03/13/2014  02:28:00     -108.176      -49.124      -12.952       37.784       27.504       20.599     1427.597      756.472      424.338        0.845        0.130      118.808       15.981        0.018      332.943        1.935      864.591
03/13/2014  02:29:00     -142.817      -40.021      -13.431       16.757       17.417       14.650      280.789      303.337      214.618        1.149        0.040      148.318        7.136        0.002      332.808        1.712      864.590
03/13/2014  02:30:00     -112.169      -43.109      -10.593       19.406       26.536       15.250      376.584      704.185      232.573        0.793        0.066      120.167       12.323        0.011      332.851        1.784      864.587
03/13/2014  02:31:00     -110.057      -24.838      -11.467       27.914       17.793       15.203      779.196      316.605      231.137        0.709        0.066      112.825       13.837        0.015      332.917        1.892      864.581
03/13/2014  02:32:00     -124.248      -33.596       -6.160       23.791       18.509       14.883      566.004      342.572      221.504        0.887        0.057      128.710       10.199        0.006      332.884        1.838      864.574
03/13/2014  02:33:00     -131.303      -46.029       -9.688       25.744       25.633       14.105      662.749      657.060      198.953        1.049        0.076      139.138       12.688        0.008      332.806        1.709      864.570
03/13/2014  02:34:00      -99.589      -26.288        0.122       39.544       26.217       20.373     1563.704      687.307      415.053        0.664        0.133      103.000       18.020        0.031      332.815        1.725      864.571
03/13/2014  02:35:00     -114.070      -19.067       -4.148       27.492       23.337       15.925      755.804      544.594      253.606        0.747        0.078      115.653       14.531        0.016      332.832        1.750      864.559
03/13/2014  02:36:00     -128.923      -16.352      -11.018       24.417       17.936       14.490      596.174      321.690      209.970        0.907        0.056      129.956       11.406        0.008      332.949        1.945      864.551
03/13/2014  02:37:00     -140.115      -28.547       -7.542       26.061       16.868       12.224      679.190      284.533      149.420        1.081        0.056      142.993       11.607        0.007      333.167        2.305      864.546
03/13/2014  02:38:00     -139.878        3.948      -11.090       24.878       28.495       15.517      618.891      811.963      240.775        1.069        0.084      139.933       12.400        0.008      333.182        2.328      864.557
03/13/2014  02:39:00     -156.149       19.559      -11.297       18.477       16.141       11.922      341.381      260.539      142.142        1.282        0.037      157.370        7.468        0.002      333.310        2.541      864.551
03/13/2014  02:40:00     -124.772        7.963       -8.522       29.442       26.446       17.729      866.833      699.395      314.317        0.879        0.094      125.026       14.344        0.013      333.360        2.624      864.544
03/13/2014  02:41:00     -129.972       35.488      -10.082       43.649       21.748       16.395     1905.245      472.991      268.797        1.045        0.132      134.730       13.197        0.010      333.452        2.776      864.526
03/13/2014  02:42:00      -96.562       65.621      -19.832       28.600       34.538       20.052      817.967     1192.893      402.098        0.822        0.121      116.749       20.874        0.032      333.668        3.132      864.507
03/13/2014  02:43:00     -116.230      104.949      -28.178       26.763       40.555       18.804      716.268     1644.738      353.605        1.402        0.136      156.601       18.947        0.015      333.898        3.514      864.494
03/13/2014  02:44:00      -88.701       32.366      -19.388       14.712       52.284       13.350      216.429     2733.634      178.220        0.621        0.156       94.421       16.623        0.031      333.461        2.790      864.489
03/13/2014  02:45:00      -73.121      -27.554      -14.069       29.823       24.257       15.132      889.429      588.389      228.991        0.401        0.085       78.140       12.535        0.026      333.245        2.432      864.484
03/13/2014  02:46:00      -29.985      -13.652       -4.946       32.452       19.493       14.524     1053.115      379.986      210.938        0.138        0.082       32.946       15.588        0.224      333.147        2.271      864.472
03/13/2014  02:47:00      -56.462       -8.737      -10.376       16.291       15.057        9.097      265.388      226.722       82.750        0.197        0.029       57.134        7.660        0.018      333.018        2.059      864.475
03/13/2014  02:48:00      -64.738      -23.594      -10.873       11.701       16.705       10.145      136.913      279.066      102.915        0.269        0.026       68.903        9.128        0.018      333.134        2.251      864.474
03/13/2014  02:49:00      -68.721      -23.291      -14.234       16.762       20.971       11.251      280.980      439.796      126.583        0.316        0.042       72.561       10.605        0.021      333.221        2.392      864.465
03/13/2014  02:50:00      -63.363      -16.716      -10.720       20.528       20.347       11.948      421.395      413.989      142.747        0.269        0.049       65.531        9.456        0.021      333.076        2.155      864.451
03/13/2014  02:51:00      -56.687       -2.431      -14.890       12.918       13.907        8.647      166.883      193.401       74.779        0.194        0.022       56.739        8.068        0.020      333.217        2.388      864.430
03/13/2014  02:52:00      -66.023      -24.095       -9.694       15.536       15.052       11.270      241.365      226.563      127.005        0.281        0.030       70.283        8.784        0.016      333.108        2.207      864.416
03/13/2014  02:53:00      -90.211      -27.473      -11.155       20.393       15.705       10.003      415.859      246.641      100.050        0.489        0.038       94.302        9.363        0.010      332.984        2.001      864.410
03/13/2014  02:54:00      -81.758      -39.693      -10.644       27.325       21.817       11.343      746.678      475.979      128.664        0.486        0.068       90.884       12.054        0.018      332.959        1.961      864.391
03/13/2014  02:55:00      -47.407      -23.491       -6.354       21.505       15.070        8.489      462.467      227.107       72.057        0.180        0.038       52.908        7.974        0.023      333.057        2.123      864.375
03/13/2014  02:56:00      -65.097      -25.981       -7.998       13.696       10.692        9.370      187.572      114.321       87.788        0.268        0.019       70.090        5.427        0.006      333.094        2.184      864.358
03/13/2014  02:57:00      -68.987      -26.903       -7.011       16.611       19.843       11.286      275.926      393.740      127.368        0.316        0.040       74.047        9.872        0.018      333.170        2.306      864.347
03/13/2014  02:58:00     -110.027       -6.907      -18.712       13.751        8.912       10.737      189.100       79.429      115.286        0.644        0.019      110.244        9.110        0.007      333.106        2.205      864.338
03/13/2014  02:59:00     -105.331      -13.492      -15.683       12.635       14.076       10.307      159.633      198.142      106.237        0.599        0.023      106.191        5.906        0.003      333.156        2.287      864.324
03/13/2014  03:00:00      -96.220      -28.583      -11.052       12.150       15.103       15.088      147.620      228.109      227.640        0.540        0.030      100.375        9.983        0.010      333.058        2.124      864.322
03/13/2014  03:01:00      -94.426      -32.195      -19.856       17.659       10.746        8.852      311.825      115.472       78.359        0.543        0.025       99.764        8.734        0.008      332.993        2.015      864.312
03/13/2014  03:02:00      -83.783      -43.383      -17.246       16.107       12.862       12.336      259.429      165.438      152.178        0.489        0.029       94.348        9.651        0.010      333.010        2.045      864.303
03/13/2014  03:03:00     -105.758      -23.088      -14.607       17.533       14.677        9.207      307.407      215.427       84.771        0.627        0.030      108.249        3.062        0.001      332.964        1.968      864.297
03/13/2014  03:04:00     -118.410      -28.402      -20.916       12.535       11.231        8.317      157.137      126.131       69.165        0.781        0.018      121.769        4.406        0.001      332.995        2.020      864.287
03/13/2014  03:05:00     -115.161      -44.940       -9.565       12.998       12.478        9.875      168.948      155.711       97.510        0.790        0.021      123.619        6.837        0.003      333.014        2.051      864.280
03/13/2014  03:06:00      -71.447      -43.454        1.581       32.199       21.249       18.726     1036.799      451.506      350.657        0.442        0.092       83.624       18.562        0.049      332.988        2.009      864.272
03/13/2014  03:07:00      -95.639      -46.549        0.166       29.801       21.612       18.639      888.129      467.071      347.399        0.651        0.085      106.366       18.812        0.031      333.054        2.117      864.273
03/13/2014  03:08:00     -116.722      -77.180       -7.090       18.131       17.910       14.104      328.745      320.768      198.932        1.024        0.042      139.932        9.159        0.004      332.916        1.891      864.275
03/13/2014  03:09:00     -113.623      -66.994       -5.409       32.997       24.356       21.529     1088.783      593.220      463.507        0.979        0.107      131.903       17.928        0.018      332.852        1.784      864.280
03/13/2014  03:10:00     -109.708      -68.301       -2.506       33.575       27.190       20.047     1127.272      739.282      401.902        0.949        0.113      129.232       17.245        0.018      332.822        1.736      864.293
03/13/2014  03:11:00      -84.041      -51.928        2.132       35.962       27.139       19.929     1293.272      736.505      397.155        0.609        0.121       98.789       15.112        0.023      332.869        1.813      864.286
03/13/2014  03:12:00      -96.807      -63.799        4.154       45.052       27.931       21.854     2029.639      780.124      477.607        0.837        0.164      115.940       18.910        0.027      332.934        1.920      864.278
03/13/2014  03:13:00      -54.602      -48.343        7.309       46.849       37.083       29.802     2194.833     1375.184      888.175        0.491        0.223       72.927       29.210        0.160      333.012        2.049      864.267
03/13/2014  03:14:00      -52.264      -47.396        5.946       42.334       26.513       23.182     1792.190      702.962      537.428        0.402        0.152       70.554       21.002        0.089      333.047        2.106      864.249
03/13/2014  03:15:00      -69.172      -66.887        7.609       48.346       27.607       29.131     2337.342      762.152      848.587        0.663        0.197       96.222       29.458        0.094      333.086        2.170      864.241
03/13/2014  03:16:00      -64.381      -77.204        6.957       49.413       35.816       29.356     2441.671     1282.807      861.790        0.737        0.229      100.526       31.673        0.099      333.171        2.310      864.233
03/13/2014  03:17:00      -56.559      -60.563        8.639       61.644       41.717       27.674     3800.011     1740.296      765.871        0.662        0.315       82.866       30.712        0.137      333.133        2.248      864.226
03/13/2014  03:18:00      -93.646      -70.397        5.950       49.480       45.199       28.337     2448.270     2042.952      802.977        0.953        0.265      117.155       26.608        0.052      333.112        2.213      864.215
03/13/2014  03:19:00      -95.067      -78.380        4.582       38.399       32.435       23.120     1474.476     1052.056      534.535        0.913        0.153      123.211       23.301        0.036      333.154        2.281      864.197
03/13/2014  03:20:00      -76.049      -64.417        9.626       49.641       32.002       27.704     2464.267     1024.109      767.534        0.714        0.213       99.665       23.785        0.057      333.170        2.308      864.184
03/13/2014  03:21:00     -121.065      -46.708        1.492       58.134       29.370       30.953     3379.518      862.578      958.118        1.102        0.260      129.763       29.120        0.050      333.116        2.220      864.177
03/13/2014  03:22:00      -70.336      -52.963        6.484       35.790       31.067       21.169     1280.946      965.173      448.139        0.524        0.135       88.047       19.835        0.051      333.097        2.187      864.152
03/13/2014  03:23:00      -65.153      -60.530        4.750       32.867       31.213       17.401     1080.222      974.281      302.806        0.514        0.118       88.931       14.368        0.026      333.098        2.191      864.124
03/13/2014  03:24:00      -88.752      -75.988        3.006       46.511       35.521       26.007     2163.240     1261.762      676.347        0.888        0.205      116.838       20.186        0.030      333.128        2.239      864.113
03/13/2014  03:25:00     -124.916      -72.279        4.305       55.308       31.767       25.207     3058.922     1009.145      635.375        1.277        0.235      144.320       27.499        0.036      333.130        2.243      864.099
03/13/2014  03:26:00      -80.038      -65.076        5.641       56.099       41.450       28.954     3147.137     1718.098      838.356        0.819        0.285      103.155       30.662        0.088      333.000        2.028      864.084
03/13/2014  03:27:00      -78.992      -63.263        5.002       53.712       36.006       24.692     2885.033     1296.419      609.715        0.753        0.240      101.202       22.690        0.050      333.072        2.148      864.064
03/13/2014  03:28:00      -83.006      -51.520        3.645       46.180       35.470       26.858     2132.575     1258.132      721.345        0.683        0.206       97.695       25.000        0.065      332.985        2.005      864.042
03/13/2014  03:29:00      -89.387      -60.712        7.224       50.190       30.051       27.372     2519.059      903.072      749.205        0.795        0.209      108.055       28.267        0.068      332.966        1.973      864.025
03/13/2014  03:30:00      -85.360      -52.734        6.818       39.169       29.294       23.220     1534.204      858.151      539.184        0.652        0.147      100.336       21.609        0.046      332.893        1.852      864.016
03/13/2014  03:31:00      -73.868      -45.790       12.831       48.215       30.374       24.697     2324.649      922.572      609.938        0.579        0.193       86.910       25.888        0.089      332.942        1.933      863.998
03/13/2014  03:32:00      -85.554      -47.927        6.114       47.578       33.175       24.938     2263.637     1100.596      621.923        0.682        0.199       98.064       23.365        0.057      332.855        1.790      863.980
03/13/2014  03:33:00      -50.984      -48.901        8.631       52.419       36.471       29.183     2747.776     1330.149      851.674        0.500        0.246       70.645       25.970        0.135      332.875        1.821      863.955
03/13/2014  03:34:00      -82.901      -65.839        5.689       63.058       40.291       24.479     3976.371     1623.365      599.214        0.872        0.310      105.865       18.700        0.031      332.921        1.901      863.950
03/13/2014  03:35:00     -127.481      -58.074        4.871       41.537       31.332       22.553     1725.326      981.725      508.637        1.143        0.161      140.086       21.910        0.024      332.924        1.904      863.935
03/13/2014  03:36:00      -84.824      -62.178        2.619       40.558       29.804       22.599     1644.943      888.263      510.736        0.706        0.152      105.173       17.036        0.026      332.904        1.872      863.919
03/13/2014  03:37:00      -73.736      -84.456       -5.722       41.067       28.013       20.636     1686.523      784.716      425.853        0.775        0.145      112.116       19.144        0.029      332.954        1.952      863.899
03/13/2014  03:38:00      -79.332      -56.216        7.126       53.529       35.495       27.259     2865.361     1259.896      743.056        0.719        0.243       97.230       29.396        0.091      332.879        1.828      863.898
03/13/2014  03:39:00      -82.101      -69.396        4.011       44.309       38.928       24.041     1963.294     1515.391      577.970        0.781        0.203      107.501       21.961        0.042      332.825        1.741      863.893
03/13/2014  03:40:00      -76.993      -68.169        7.723       52.848       34.743       24.191     2792.941     1207.089      585.221        0.761        0.229      102.834       26.712        0.067      332.875        1.824      863.883
03/13/2014  03:41:00      -34.468      -39.483       15.337       47.699       29.333       24.425     2275.213      860.411      596.564        0.336        0.187       52.412       23.971        0.209      332.819        1.731      863.863
03/13/2014  03:42:00      -78.888      -51.221        7.151       58.973       32.570       21.151     3477.808     1060.837      447.355        0.694        0.249       94.058       24.947        0.070      332.871        1.817      863.862
03/13/2014  03:43:00     -100.604      -64.699        5.836       50.974       31.002       20.501     2598.303      961.129      420.307        0.916        0.199      119.613       21.531        0.032      332.763        1.637      863.860
03/13/2014  03:44:00     -113.185      -58.514       -5.814       39.543       31.375       23.975     1563.642      984.420      574.796        0.970        0.156      127.416       19.140        0.023      332.691        1.519      863.864
03/13/2014  03:45:00      -90.874      -64.799        4.257       49.813       28.474       23.690     2481.364      810.762      561.210        0.816        0.193      111.611       21.878        0.038      332.732        1.587      863.855
03/13/2014  03:46:00      -90.048      -50.789        5.397       57.535       32.777       29.148     3310.331     1074.308      849.619        0.797        0.262      103.384       29.401        0.081      332.706        1.543      863.844
03/13/2014  03:47:00     -124.228      -64.233       -1.974       37.526       28.270       23.963     1408.180      799.210      574.224        1.117        0.139      139.852       22.117        0.025      332.684        1.505      863.841
03/13/2014  03:48:00     -117.241      -55.879       -8.985       33.298       25.893       20.024     1108.726      670.441      400.944        0.956        0.109      129.877       17.137        0.017      332.680        1.500      863.844
03/13/2014  03:49:00     -110.383      -32.800       -3.942       23.241       21.433       16.331      540.152      459.384      266.715        0.727        0.063      115.153       13.957        0.015      332.705        1.540      863.833
03/13/2014  03:50:00     -101.130      -42.712        3.673       34.009       25.100       17.514     1156.624      630.029      306.744        0.708        0.105      109.779       19.724        0.032      332.743        1.604      863.817
03/13/2014  03:51:00      -77.188      -58.147        4.689       44.429       30.313       19.739     1973.924      918.865      389.619        0.632        0.164       96.639       22.556        0.054      332.766        1.643      863.811
03/13/2014  03:52:00      -61.066      -32.993        6.414       45.058       23.873       20.640     2030.195      569.921      426.008        0.394        0.151       69.409       24.619        0.126      332.850        1.781      863.797
03/13/2014  03:53:00      -76.473      -35.420       -0.918       39.879       20.252       19.569     1590.305      410.137      382.942        0.474        0.119       84.278       21.395        0.064      332.776        1.659      863.791
03/13/2014  03:54:00      -97.345      -44.392       -5.985       31.284       17.989       17.468      978.678      323.601      305.119        0.654        0.080      106.990       17.064        0.025      332.744        1.607      863.775
03/13/2014  03:55:00      -80.927      -30.607        0.849       38.406       21.374       17.501     1474.993      456.856      306.278        0.486        0.112       86.521       19.311        0.050      332.659        1.466      863.763
03/13/2014  03:56:00     -110.645      -36.274       -4.939       21.801       23.680       15.693      475.303      560.751      246.278        0.743        0.064      116.439       11.567        0.010      332.556        1.296      863.753
03/13/2014  03:57:00     -105.317      -34.275       -7.990       15.469       17.128       11.748      239.276      293.366      138.008        0.650        0.034      110.754        6.760        0.004      332.609        1.382      863.750
03/13/2014  03:58:00      -66.987      -54.885       -3.488       32.245       21.535       18.646     1039.721      463.776      347.685        0.468        0.093       86.600       15.720        0.033      332.621        1.401      863.732
03/13/2014  03:59:00      -71.716      -41.795        2.255       40.716       29.960       19.383     1657.818      897.614      375.690        0.491        0.147       83.006       20.752        0.063      332.602        1.370      863.718
03/13/2014  04:00:00      -58.125      -69.746        6.689       64.884       55.312       26.972     4209.938     3059.392      727.502        0.814        0.400       90.791       31.018        0.117      332.737        1.594      863.709
03/13/2014  04:01:00     -153.518     -115.913      -13.561       42.964       35.691       36.055     1845.897     1273.862     1299.944        2.080        0.221      192.363       22.402        0.014      332.643        1.437      863.706
03/13/2014  04:02:00     -116.301     -113.391       -5.573       47.218       45.092       29.917     2229.538     2033.317      895.024        1.579        0.258      162.430       27.245        0.028      332.602        1.371      863.712
03/13/2014  04:03:00      -86.959      -76.813        3.229       52.899       43.631       28.605     2798.258     1903.695      818.226        0.950        0.276      116.027       31.370        0.073      332.613        1.389      863.723
03/13/2014  04:04:00      -74.113      -54.966        2.676       57.755       34.964       18.673     3335.657     1222.449      348.694        0.671        0.245       92.271       24.084        0.068      332.504        1.208      863.735
03/13/2014  04:05:00      -32.681      -35.079       10.011       35.979       25.916       23.324     1294.493      671.665      544.004        0.245        0.126       47.944       22.871        0.228      332.593        1.358      863.736
03/13/2014  04:06:00      -66.373      -64.918        2.547       44.905       36.704       23.677     2016.474     1347.195      560.601        0.627        0.196       92.843       24.085        0.067      332.636        1.428      863.732
03/13/2014  04:07:00      -78.706      -77.608       -7.173       40.854       42.603       21.788     1669.087     1815.053      474.712        0.811        0.198      110.534       16.396        0.022      332.684        1.506      863.725
03/13/2014  04:08:00      -82.742     -123.674        4.974       61.481       38.377       29.598     3779.915     1472.758      876.015        1.415        0.306      148.800       32.460        0.048      332.626        1.409      863.715
03/13/2014  04:09:00     -101.144     -126.755       -0.942       57.315       42.896       33.011     3285.012     1840.070     1089.711        1.626        0.311      162.164       28.346        0.031      332.547        1.278      863.713
03/13/2014  04:10:00      -70.075      -75.611        8.641       63.056       48.811       31.885     3976.036     2382.527     1016.655        0.904        0.369      103.090       32.932        0.102      332.501        1.204      863.710
03/13/2014  04:11:00      -79.845      -72.525       -7.099       65.990       52.091       29.532     4354.699     2713.515      872.136        0.981        0.397      107.866       24.748        0.053      332.558        1.298      863.699
03/13/2014  04:12:00     -142.366     -127.365      -10.176       54.122       47.221       33.471     2929.154     2229.838     1120.287        2.144        0.314      191.024       36.080        0.036      332.489        1.183      863.683
03/13/2014  04:13:00      -66.040      -72.408       11.231       56.657       44.453       33.287     3209.972     1976.056     1108.002        0.801        0.315       98.002       26.550        0.073      332.506        1.214      863.673
03/13/2014  04:14:00     -111.732      -80.306       -3.195       64.511       57.920       33.797     4161.624     3354.688     1142.258        1.380        0.433      137.598       31.106        0.051      332.549        1.284      863.676
03/13/2014  04:15:00     -148.496     -107.983       -6.370       50.862       39.359       32.505     2586.984     1549.163     1056.560        1.947        0.260      183.607       24.080        0.017      332.492        1.188      863.687
03/13/2014  04:16:00     -116.035     -103.705        4.590       63.560       43.443       31.574     4039.875     1887.305      996.923        1.558        0.346      155.624       36.476        0.055      332.485        1.177      863.686
03/13/2014  04:17:00     -108.160     -101.166        1.131       45.954       36.974       29.664     2111.730     1367.077      879.925        1.315        0.218      148.098       23.942        0.026      332.563        1.306      863.688
03/13/2014  04:18:00      -70.061      -53.304        1.245       35.619       30.461       19.149     1268.719      927.847      366.685        0.516        0.128       88.034       15.676        0.032      332.522        1.239      863.693
03/13/2014  04:19:00      -84.732      -24.940       -6.055       29.495       19.970       11.841      869.958      398.790      140.216        0.462        0.070       88.326        9.385        0.011      332.411        1.055      863.694
03/13/2014  04:20:00      -52.765      -26.555        9.749       32.547       21.661       18.510     1059.309      469.191      342.622        0.273        0.094       59.070       18.034        0.093      332.442        1.106      863.701
03/13/2014  04:21:00      -67.356      -27.807        9.366       33.869       27.276       20.153     1147.125      743.958      406.148        0.385        0.115       72.870       19.056        0.068      332.348        0.951      863.703
03/13/2014  04:22:00      -72.705      -41.002        6.549       38.747       27.795       16.381     1501.346      772.553      268.346        0.478        0.127       83.470       10.786        0.017      332.440        1.103      863.698
03/13/2014  04:23:00      -44.074      -49.466        2.980       31.969       35.041       21.536     1022.014     1227.854      463.778        0.356        0.136       66.253       20.773        0.098      332.472        1.158      863.688
03/13/2014  04:24:00      -62.865      -63.543       -0.839       39.371       26.706       21.221     1550.041      713.207      450.323        0.535        0.136       89.385       22.956        0.066      332.394        1.028      863.676
03/13/2014  04:25:00      -32.882      -44.096       12.239       39.099       25.466       19.320     1528.767      648.518      373.264        0.286        0.128       55.006       23.158        0.177      332.415        1.063      863.671
03/13/2014  04:26:00      -24.046      -34.867        7.736       31.701       23.825       21.253     1004.955      567.646      451.692        0.194        0.101       42.354       21.241        0.252      332.498        1.199      863.658
03/13/2014  04:27:00      -33.211      -81.293        1.039       21.783       21.149       21.817      474.507      447.266      475.975        0.455        0.070       87.816       14.271        0.026      332.505        1.211      863.644
03/13/2014  04:28:00      -50.088      -45.855        0.545       24.806       19.230       16.751      615.335      369.778      280.612        0.294        0.063       67.908       12.623        0.035      332.549        1.285      863.623
03/13/2014  04:29:00      -75.976      -44.959       -6.965       42.510       43.272       24.548     1807.110     1872.426      602.609        0.606        0.214       88.281       28.099        0.101      332.492        1.190      863.620
03/13/2014  04:30:00      -92.167      -95.317      -12.013       44.695       34.772       21.072     1997.631     1209.105      444.041        1.069        0.183      132.590       20.573        0.024      332.493        1.190      863.619
03/13/2014  04:31:00      -55.779      -76.067        4.150       23.401       40.576       15.813      547.600     1646.390      250.061        0.568        0.122       94.326       14.984        0.025      332.521        1.237      863.618
03/13/2014  04:32:00      -74.714      -67.419        8.816       33.475       47.340       23.040     1120.607     2241.093      530.824        0.705        0.195      100.636       21.304        0.045      332.424        1.076      863.607
03/13/2014  04:33:00      -62.922      -57.972       -0.940       33.014       29.420       20.791     1089.912      865.545      432.248        0.485        0.119       85.557       14.063        0.027      332.463        1.141      863.597
03/13/2014  04:34:00     -112.891      -52.008       -6.009       37.694       25.905       15.035     1420.842      671.066      226.061        0.890        0.116      124.295       10.873        0.008      332.393        1.026      863.590
03/13/2014  04:35:00     -135.538      -21.330      -17.974       20.875       22.144       16.662      435.763      490.362      277.622        1.018        0.060      137.206       14.038        0.010      332.243        0.779      863.582
03/13/2014  04:36:00     -151.198      -18.990      -15.702       37.380       30.514       23.343     1397.287      931.122      544.902        1.317        0.144      152.386       21.621        0.020      332.093        0.531      863.581
03/13/2014  04:37:00     -137.835       -7.920       -2.675       59.482       42.959       33.940     3538.081     1845.474     1151.918        1.280        0.327      138.062       29.585        0.046      331.993        0.366      863.582
03/13/2014  04:38:00     -157.459        2.496      -11.244       37.993       41.500       22.794     1443.485     1722.251      519.578        1.430        0.184      157.479       12.465        0.006      331.942        0.283      863.603
03/13/2014  04:39:00     -142.631      -14.480      -11.852       34.760       37.608       23.812     1208.240     1414.360      566.989        1.194        0.159      143.364       18.435        0.017      331.983        0.349      863.619
03/13/2014  04:40:00     -152.839      -55.869      -11.744       30.381       26.879       20.549      923.001      722.504      422.248        1.434        0.103      162.730       14.185        0.008      331.905        0.221      863.611
03/13/2014  04:41:00     -151.109      -43.581      -13.500       29.391       36.905       19.448      863.841     1361.972      378.208        1.376        0.130      157.268       11.213        0.005      331.849        0.128      863.595
03/13/2014  04:42:00     -122.340      -24.330       -6.568       35.868       25.721       19.454     1286.488      661.557      378.471        0.896        0.116      124.736       18.740        0.023      331.814        0.071      863.577
03/13/2014  04:43:00      -63.814      -58.433       -7.320       29.950       23.694       16.972      896.988      561.413      288.044        0.464        0.087       86.525       18.444        0.045      331.896        0.207      863.554
03/13/2014  04:44:00      -39.664      -22.829       -6.285       27.278       13.058       12.292      744.113      170.509      151.104        0.160        0.053       45.765       10.827        0.056      331.926        0.256      863.536
03/13/2014  04:45:00       -7.781      -41.675       -9.342       14.418       22.111       14.380      207.892      488.904      206.796        0.139        0.045       42.395       12.966        0.094      331.988        0.360      863.526
03/13/2014  04:46:00        2.455      -28.738       -6.664       24.122       23.401       15.337      581.872      547.621      235.223        0.112        0.068       28.843       11.005        0.146      332.083        0.514      863.528
03/13/2014  04:47:00      -36.970      -40.124       -3.264       26.276       24.849       16.522      690.429      617.473      272.976        0.228        0.079       54.559       13.606        0.062      332.046        0.454      863.536
03/13/2014  04:48:00      -58.346      -17.444       -9.043       14.825       11.635        8.391      219.769      135.377       70.410        0.211        0.021       60.898        5.920        0.009      332.090        0.527      863.537
03/13/2014  04:49:00      -75.318      -14.816      -10.932       19.099       15.121        9.509      364.759      228.638       90.413        0.335        0.034       76.762        9.194        0.014      332.100        0.543      863.541
03/13/2014  04:50:00      -88.973      -32.147      -11.036       15.768       16.197       10.662      248.624      262.334      113.672        0.485        0.031       94.603        5.715        0.004      332.105        0.552      863.551
03/13/2014  04:51:00     -109.594      -17.734      -15.061       13.791       15.256       11.688      190.205      232.738      136.606        0.656        0.028      111.019        4.479        0.002      332.023        0.417      863.572
03/13/2014  04:52:00     -107.433      -31.594       -7.827       14.913       19.723       11.695      222.407      388.984      136.774        0.667        0.037      111.982        6.809        0.004      331.983        0.348      863.596
03/13/2014  04:53:00      -71.315      -15.822       -4.308       31.005       23.895       15.955      961.287      570.982      254.575        0.357        0.089       73.049       14.007        0.037      332.001        0.379      863.601
03/13/2014  04:54:00      -50.076      -32.707       -1.519       36.759       17.638       17.823     1351.250      311.091      317.658        0.278        0.099       59.811       19.437        0.106      332.041        0.446      863.600
03/13/2014  04:55:00     -101.046      -52.138       -8.159       27.705       25.126       15.496      767.542      631.322      240.115        0.732        0.082      113.704       12.727        0.013      331.952        0.299      863.608
03/13/2014  04:56:00      -61.871      -24.405       -3.466       45.811       17.120       19.406     2098.633      293.090      376.598        0.360        0.138       66.511       20.049        0.091      331.926        0.257      863.606
03/13/2014  04:57:00      -20.318      -13.148       -5.226       15.254       14.388       12.360      232.694      207.024      152.764        0.060        0.030       24.201        4.733        0.038      331.955        0.304      863.597
03/13/2014  04:58:00      -61.791      -15.104      -11.810       14.307       15.050       13.318      204.682      226.511      177.362        0.240        0.030       63.610        7.658        0.014      331.947        0.290      863.593
03/13/2014  04:59:00      -80.899      -29.418       -9.928       19.017       14.765        8.868      361.653      217.997       78.635        0.408        0.033       86.082        7.024        0.007      331.879        0.178      863.587
03/13/2014  05:00:00      -89.673      -28.933      -18.525       10.616       12.008        7.805      112.696      144.198       60.923        0.477        0.016       94.225        4.653        0.002      331.897        0.206      863.582
03/13/2014  05:01:00      -98.613      -19.081      -14.391       10.956       14.964       11.401      120.034      223.929      129.987        0.538        0.024      100.442        4.121        0.002      331.924        0.253      863.579
03/13/2014  05:02:00     -113.264      -24.224       -9.130       15.235       15.687       11.850      232.091      246.097      140.420        0.706        0.031      115.825        7.595        0.004      331.935        0.270      863.580
03/13/2014  05:03:00     -120.838      -22.467       -4.690       29.578       18.542       18.383      874.849      343.821      337.947        0.834        0.078      122.909       16.871        0.019      331.983        0.349      863.578
03/13/2014  05:04:00     -120.645      -17.678       -8.089       24.842       21.247       16.097      617.120      451.438      259.098        0.813        0.066      121.933       13.319        0.012      332.071        0.496      863.573
03/13/2014  05:05:00     -150.100      -17.062       -9.990       26.056       20.484       15.520      678.939      419.585      240.867        1.213        0.067      151.067       13.564        0.008      332.085        0.518      863.570
03/13/2014  05:06:00     -137.413      -10.322       -8.845       33.439       21.796       19.992     1118.159      475.085      399.676        1.053        0.100      137.800       20.093        0.021      331.954        0.302      863.570
03/13/2014  05:07:00     -140.900      -16.223       -4.847       26.964       22.728       17.212      727.057      516.582      296.248        1.084        0.077      141.831       16.587        0.014      331.932        0.266      863.558
03/13/2014  05:08:00     -108.204      -17.952       -6.650       31.824       19.948       14.971     1012.788      397.937      224.127        0.685        0.082      109.684       13.725        0.016      332.048        0.457      863.551
03/13/2014  05:09:00     -101.282      -19.589        1.057       25.592       23.583       15.868      654.969      556.145      251.791        0.605        0.073      103.159       13.798        0.018      332.166        0.651      863.546
03/13/2014  05:10:00      -93.003      -18.669       -5.676       32.745       27.355       18.651     1072.220      748.291      347.851        0.560        0.108       94.858       18.463        0.038      332.132        0.596      863.542
03/13/2014  05:11:00      -68.504      -26.839       -6.241       38.545       21.743       18.463     1485.724      472.750      340.874        0.388        0.115       73.574       20.362        0.077      332.129        0.591      863.536
03/13/2014  05:12:00      -73.519      -24.431       -7.404       23.822       16.931       11.704      567.511      286.673      136.983        0.352        0.050       77.472        6.764        0.008      332.218        0.738      863.537
03/13/2014  05:13:00      -55.946      -30.349       -1.710       18.525       21.353       13.010      343.191      455.951      169.248        0.251        0.048       63.647        3.316        0.003      332.228        0.753      863.536
03/13/2014  05:14:00      -58.392      -28.158       -4.925       30.236       11.024       10.322      914.227      121.520      106.538        0.268        0.057       64.827       12.300        0.036      332.187        0.688      863.544
03/13/2014  05:15:00     -110.794      -31.212      -14.082       16.250       14.839       11.193      264.064      220.201      125.277        0.703        0.030      115.107        7.266        0.004      332.117        0.571      863.551
03/13/2014  05:16:00     -103.421      -52.528      -10.794       33.525       31.315       18.538     1123.930      980.600      343.642        0.801        0.122      115.996       16.382        0.020      332.064        0.483      863.556
03/13/2014  05:17:00      -34.900      -11.726        8.954       41.653       40.449       27.847     1735.006     1636.139      775.463        0.279        0.207       36.817       25.874        0.494      332.120        0.577      863.557
03/13/2014  05:18:00     -105.181       29.777       -5.872       63.813       27.667       21.795     4072.061      765.442      475.040        0.865        0.266      109.315       23.426        0.046      332.200        0.709      863.552
03/13/2014  05:19:00      -78.408      -18.510       -4.782       29.587       30.290       21.463      875.416      917.472      460.651        0.438        0.113       80.563       13.617        0.029      332.275        0.832      863.558
03/13/2014  05:20:00      -47.326      -58.608       -5.321       48.618       29.725       17.677     2363.690      883.562      312.474        0.463        0.178       75.330       17.967        0.057      332.210        0.725      863.556
03/13/2014  05:21:00      -11.432      -22.949       18.921       44.983       20.504       24.601     2023.474      420.406      605.229        0.203        0.152       25.638       28.761        1.258      332.125        0.584      863.549
03/13/2014  05:22:00      -38.203      -22.560       -4.306       42.485       18.896       13.909     1804.988      357.048      193.470        0.217        0.118       44.367       12.097        0.074      332.180        0.675      863.546
03/13/2014  05:23:00     -105.028      -11.383       -8.411       26.519       23.694       13.287      703.273      561.420      176.554        0.634        0.072      105.643       10.499        0.010      332.029        0.427      863.556
03/13/2014  05:24:00      -78.947        1.624       -9.698       35.669       23.165       20.144     1272.261      536.626      405.767        0.427        0.111       78.964       14.711        0.035      331.988        0.358      863.571
03/13/2014  05:25:00     -107.190       38.213      -15.672       47.538       35.630       27.376     2259.885     1269.519      749.455        0.874        0.214      113.798       21.060        0.034      332.200        0.709      863.594
03/13/2014  05:26:00     -103.819       35.972      -10.384       39.282       31.344       23.030     1543.066      982.455      530.379        0.762        0.153      109.875       19.685        0.032      332.252        0.795      863.635
03/13/2014  05:27:00      -94.416       15.935       -6.296       36.223       25.715       18.495     1312.116      661.284      342.079        0.576        0.116       95.751       14.109        0.022      332.213        0.730      863.677
03/13/2014  05:28:00     -135.718        8.227      -12.930       43.099       25.380       24.674     1857.519      644.120      608.828        1.088        0.156      135.967       16.974        0.016      332.074        0.499      863.721
03/13/2014  05:29:00     -105.154      -13.385       -8.023       30.040       29.273       21.866      902.387      856.888      478.134        0.677        0.112      106.003       16.387        0.024      331.990        0.363      863.759
03/13/2014  05:30:00     -108.896      -48.777      -12.945       32.464       27.612       17.041     1053.935      762.435      290.387        0.826        0.105      119.321        5.288        0.002      331.965        0.321      863.781
03/13/2014  05:31:00      -99.954      -29.109      -22.935       28.220       17.386       14.774      796.389      302.290      218.271        0.634        0.066      104.106       12.041        0.013      331.751       -0.032      863.792
03/13/2014  05:32:00      -98.613      -38.171      -13.995       24.208       26.601       14.755      586.041      707.628      217.700        0.644        0.076      105.743       10.586        0.010      331.797        0.043      863.785
03/13/2014  05:33:00      -82.180      -52.102       -8.825       33.683       28.226       15.144     1134.538      796.702      229.336        0.585        0.108       97.305        9.257        0.009      331.897        0.208      863.764
03/13/2014  05:34:00      -52.190      -16.779      -15.184       21.084       21.077       11.891      444.527      444.236      141.399        0.213        0.052       54.821        3.688        0.005      331.921        0.247      863.736
03/13/2014  05:35:00      -55.074      -26.789      -17.208       13.788       15.142       10.072      190.104      229.294      101.441        0.228        0.026       61.244        5.247        0.007      331.987        0.357      863.712
03/13/2014  05:36:00      -36.037      -17.499       -5.683       13.833       12.180       12.471      191.358      148.352      155.517        0.107        0.025       40.060        5.264        0.017      332.115        0.570      863.705
03/13/2014  05:37:00      -44.183      -25.205       -7.652       19.320       11.586        8.880      373.250      134.230       78.856        0.162        0.029       50.866        6.241        0.015      332.044        0.451      863.704
03/13/2014  05:38:00      -57.109      -19.407       -7.341       17.019       11.030        9.913      289.659      121.664       98.271        0.210        0.025       60.316        7.471        0.015      331.977        0.340      863.723
03/13/2014  05:39:00      -42.126      -16.516       -5.188       14.700       11.416        9.243      216.095      130.328       85.435        0.125        0.022       45.248        8.651        0.037      332.034        0.434      863.738
03/13/2014  05:40:00      -43.846      -17.907      -10.725       13.635        7.445        7.551      185.903       55.424       57.018        0.133        0.015       47.362        4.642        0.010      332.163        0.648      863.743
03/13/2014  05:41:00      -19.005      -16.615       -7.243       14.788        8.206       10.353      218.675       67.332      107.179        0.054        0.020       25.244        5.935        0.055      332.252        0.793      863.745
03/13/2014  05:42:00      -28.041       -3.851      -10.356       13.709        9.264       10.939      187.942       85.817      119.652        0.065        0.020       28.304        8.972        0.100      332.516        1.229      863.744
03/13/2014  05:43:00       -8.476       -1.385        0.098       10.188        8.129        7.403      103.789       66.082       54.809        0.015        0.011        8.588        5.718        0.443      332.551        1.285      863.732
03/13/2014  05:44:00        2.622       -0.310        4.585       10.902        3.326        6.422      118.847       11.066       41.246        0.010        0.009        2.640        5.397        4.178      332.398        1.034      863.729
03/13/2014  05:45:00      -25.268       -9.953       -4.352       17.604        6.830        6.738      309.907       46.646       45.395        0.058        0.020       27.157        6.085        0.050      332.415        1.062      863.722
03/13/2014  05:46:00      -48.045      -13.302       -2.781       17.039       10.008       11.528      290.315      100.155      132.893        0.151        0.026       49.852        5.246        0.011      332.173        0.664      863.729
03/13/2014  05:47:00      -81.019      -14.319       -8.012       21.025       21.827       11.764      442.061      476.408      138.400        0.394        0.053       82.274        9.884        0.014      332.077        0.506      863.739
03/13/2014  05:48:00      -95.017      -11.527      -14.828       15.516       12.623       11.124      240.737      159.331      123.750        0.495        0.026       95.713        7.787        0.007      331.935        0.271      863.757
03/13/2014  05:49:00      -87.477      -30.690      -14.278       14.205       13.961       12.474      201.776      194.914      155.613        0.468        0.028       92.705        7.756        0.007      332.022        0.413      863.761
03/13/2014  05:50:00      -78.522      -35.793       -7.570       26.612       17.259       17.735      708.187      297.873      314.514        0.441        0.066       86.295        5.891        0.005      332.031        0.430      863.766
03/13/2014  05:51:00     -103.307      -41.896      -18.813       22.737       16.876       10.831      516.964      284.803      117.307        0.685        0.046      111.480        7.203        0.004      332.035        0.436      863.765
03/13/2014  05:52:00      -93.926      -20.759      -10.856       18.976       18.847       13.743      360.091      355.205      188.868        0.514        0.045       96.192       11.033        0.013      332.105        0.552      863.772
03/13/2014  05:53:00      -97.192      -35.891       -6.070       22.937       29.126       17.396      526.116      848.304      302.632        0.622        0.084      103.607       14.798        0.020      332.029        0.426      863.770
03/13/2014  05:54:00      -86.732      -30.819        1.781       41.292       22.794       18.753     1705.007      519.565      351.669        0.553        0.129       92.045       20.982        0.052      331.948        0.292      863.769
03/13/2014  05:55:00      -76.742      -35.044        1.261       32.227       20.916       15.155     1038.556      437.500      229.688        0.441        0.085       84.364       17.341        0.042      331.953        0.299      863.777
03/13/2014  05:56:00      -73.426      -44.805        2.630       26.975       23.594       15.601      727.644      556.665      243.404        0.447        0.076       86.017       16.507        0.037      331.976        0.338      863.775
03/13/2014  05:57:00      -75.626      -48.752       -9.525       31.408       18.032       14.187      986.447      325.147      201.284        0.485        0.076       89.978        9.363        0.011      332.014        0.399      863.778
03/13/2014  05:58:00      -63.854      -41.696       -8.807       17.179       18.621       12.728      295.134      346.729      161.989        0.335        0.040       76.262        7.045        0.009      332.069        0.494      863.775
03/13/2014  05:59:00      -77.917      -47.883      -12.922       16.360       12.658        8.459      267.639      160.226       71.551        0.452        0.025       91.454        5.808        0.004      332.023        0.415      863.789
03/13/2014  06:00:00      -78.312      -46.482      -10.837       24.459       14.338       10.994      598.235      205.591      120.871        0.467        0.046       91.068        9.249        0.010      332.145        0.618      863.796
03/13/2014  06:01:00      -82.043      -27.264       -9.555       12.560       14.357        9.917      157.745      206.131       98.340        0.401        0.023       86.454        3.615        0.002      332.097        0.539      863.799
03/13/2014  06:02:00      -75.381      -41.329       -8.981       25.250        9.569        9.092      637.576       91.566       82.663        0.414        0.041       85.967        9.592        0.012      332.133        0.598      863.795
03/13/2014  06:03:00      -71.656      -42.712       -5.398       15.132       11.520       13.035      228.989      132.709      169.908        0.376        0.027       83.420        9.888        0.014      332.125        0.585      863.782
03/13/2014  06:04:00      -43.760      -28.301        0.031       24.630       18.080       16.171      606.647      326.897      261.506        0.196        0.060       52.114       17.105        0.108      332.043        0.451      863.764
03/13/2014  06:05:00      -70.077      -36.230      -13.184       16.565       18.421        9.760      274.416      339.337       95.253        0.355        0.035       78.888        6.368        0.007      332.128        0.590      863.755
03/13/2014  06:06:00      -70.703      -39.527       -7.400       19.974       15.963        9.408      398.978      254.815       88.517        0.368        0.037       81.002        4.110        0.003      332.102        0.548      863.747
03/13/2014  06:07:00      -81.404      -49.672       -3.064       17.867       13.231       14.873      319.230      175.052      221.205        0.491        0.036       95.362       10.462        0.012      332.103        0.547      863.738
03/13/2014  06:08:00      -71.496      -51.258       -7.488       29.445       16.114       12.413      867.021      259.671      154.073        0.454        0.064       87.972       10.012        0.013      332.150        0.625      863.733
03/13/2014  06:09:00      -85.369      -50.161       -7.112       16.033       15.707       10.448      257.045      246.702      109.159        0.523        0.031       99.015        6.293        0.004      332.087        0.521      863.734
03/13/2014  06:10:00      -67.737      -45.583       -1.203       23.355       23.812       14.769      545.447      567.030      218.121        0.400        0.067       81.646       15.427        0.036      332.106        0.554      863.736
03/13/2014  06:11:00      -71.905      -52.092        0.481       22.495       19.383       20.605      506.023      375.720      424.558        0.459        0.065       88.791       18.060        0.041      332.116        0.571      863.734
03/13/2014  06:12:00      -79.857      -45.407        0.174       20.384       20.950       13.800      415.520      438.913      190.433        0.474        0.052       91.864       11.428        0.015      332.109        0.559      863.726
03/13/2014  06:13:00      -89.083      -54.723       -6.586       27.812       18.397       12.952      773.480      338.447      167.743        0.613        0.064      104.548       14.565        0.019      332.098        0.539      863.717
03/13/2014  06:14:00      -98.707      -40.135       -9.684        8.051       10.208        7.122       64.818      104.207       50.730        0.583        0.011      106.555        4.921        0.002      332.188        0.690      863.713
03/13/2014  06:15:00      -75.207      -20.102       -8.352       10.922       12.250        8.603      119.287      150.057       74.014        0.324        0.017       77.848        5.197        0.004      332.221        0.742      863.711
03/13/2014  06:16:00      -76.746      -17.571       -7.641       15.129       13.506       10.968      228.877      182.411      120.292        0.339        0.027       78.732        8.598        0.012      332.226        0.752      863.722
03/13/2014  06:17:00      -85.897      -19.497       -4.124       16.084       18.547       12.216      258.702      344.008      149.226        0.426        0.038       88.082        8.170        0.009      332.179        0.673      863.728
03/13/2014  06:18:00      -92.902      -17.865       -9.101       22.345       13.674       13.439      499.285      186.969      180.601        0.495        0.043       94.605       13.213        0.020      332.047        0.454      863.732
03/13/2014  06:19:00      -94.291       -2.096      -13.070       21.078       12.753       13.141      444.280      162.651      172.680        0.492        0.039       94.314       10.970        0.014      331.992        0.365      863.753
03/13/2014  06:20:00      -57.078        4.166      -13.908       17.663       13.755        7.711      311.992      189.208       59.461        0.201        0.028       57.230        6.984        0.015      331.962        0.316      863.771
03/13/2014  06:21:00      -53.012        1.707       -6.980       20.725       18.656       11.161      429.546      348.029      124.569        0.188        0.045       53.039       10.993        0.043      332.236        0.769      863.782
03/13/2014  06:22:00      -33.276        7.316       -4.966       16.687       18.462       11.236      278.451      340.837      126.239        0.097        0.037       34.071        9.126        0.072      332.272        0.828      863.791
03/13/2014  06:23:00      -12.898       16.054       -2.553       14.487       16.831        8.451      209.878      283.281       71.417        0.050        0.028       20.593        4.750        0.053      332.466        1.147      863.807
03/13/2014  06:24:00       23.534       29.776        6.113       16.134       20.531       11.090      260.299      421.517      122.983        0.114        0.040       37.954       10.650        0.079      332.657        1.462      863.813
03/13/2014  06:25:00        8.390       -3.542        5.016       14.117       15.003        9.263      199.298      225.102       85.810        0.031        0.026        9.107        9.058        0.989      332.467        1.148      863.820
03/13/2014  06:26:00       -2.047      -15.630        2.637        5.078        8.325        8.389       25.781       69.308       70.373        0.021        0.008       15.764        2.461        0.024      332.455        1.127      863.810
03/13/2014  06:27:00      -15.793      -17.262        1.037       17.695        6.539        7.427      313.131       42.761       55.165        0.048        0.021       23.397        3.913        0.028      332.312        0.892      863.791
03/13/2014  06:28:00      -52.329      -15.807       -5.595        9.139        8.597        7.492       83.527       73.903       56.132        0.162        0.011       54.664        4.988        0.008      331.984        0.353      863.774
03/13/2014  06:29:00      -55.386      -26.396       -4.728        9.692        7.883        9.682       93.934       62.146       93.742        0.202        0.012       61.354        4.918        0.006      331.989        0.360      863.754
03/13/2014  06:30:00      -56.167       -7.558       -6.724        9.315        9.649        8.924       86.760       93.096       79.633        0.176        0.013       56.674        5.833        0.011      332.031        0.430      863.750
03/13/2014  06:31:00      -47.936        1.470       -2.990       15.897       15.215        8.972      252.718      231.502       80.490        0.144        0.028       47.959        3.754        0.006      332.161        0.643      863.743
03/13/2014  06:32:00        7.315       10.868        4.085       10.514        9.157        6.937      110.543       83.842       48.128        0.022        0.012       13.101        2.281        0.030      332.436        1.099      863.743
03/13/2014  06:33:00       14.345       22.977        9.701       10.277        9.063        6.900      105.624       82.139       47.615        0.053        0.012       27.087        3.653        0.018      332.397        1.032      863.737
03/13/2014  06:34:00       11.875       19.452       16.703       10.700       17.285       13.275      114.490      298.774      176.228        0.069        0.029       22.790       14.000        0.377      332.312        0.892      863.737
03/13/2014  06:35:00        6.080       12.811       12.203       11.904       10.264        9.055      141.699      105.345       81.985        0.034        0.016       14.181        6.269        0.195      332.185        0.684      863.740
03/13/2014  06:36:00        3.793       23.228       36.532       14.780       14.203       13.261      218.453      201.718      175.849        0.124        0.030       23.535        9.571        0.165      332.133        0.598      863.741
03/13/2014  06:37:00       -0.987       32.501       64.719       23.631       22.925       13.613      558.446      525.538      185.327        0.326        0.063       32.516       10.052        0.096      332.034        0.435      863.750
03/13/2014  06:38:00        2.416       -7.939       39.899       25.865       40.292       26.000      668.987     1623.417      675.990        0.231        0.148        8.298       18.760        5.111      332.132        0.595      863.768
03/13/2014  06:39:00       -7.488      -38.343       14.211       20.451       28.152       24.763      418.260      792.511      613.212        0.178        0.091       39.067        5.340        0.019      332.250        0.792      863.792
03/13/2014  06:40:00      -23.614      -22.626       17.105       35.699       27.797       18.926     1274.388      772.648      358.197        0.188        0.120       32.704       16.355        0.250      332.066        0.488      863.824
03/13/2014  06:41:00      -47.526      -19.500        0.544       15.497       13.480       11.786      240.156      181.722      138.916        0.160        0.028       51.371        5.246        0.010      331.969        0.327      863.855
03/13/2014  06:42:00      -42.915      -11.649       -8.326       13.671       14.131        8.996      186.889      199.674       80.929        0.126        0.023       44.468        8.009        0.032      332.038        0.442      863.861
03/13/2014  06:43:00      -36.630        4.023       -4.977       13.020        8.980        8.912      169.513       80.644       79.425        0.086        0.016       36.850        7.487        0.041      332.153        0.631      863.863
03/13/2014  06:44:00      -51.827       -7.937       -1.928       18.313       12.355       11.113      335.353      152.642      123.490        0.168        0.031       52.432        5.774        0.012      332.087        0.521      863.868
03/13/2014  06:45:00      -60.974      -11.630        4.026       23.602       24.408       11.865      557.073      595.746      140.776        0.258        0.065       62.073       10.690        0.030      331.956        0.305      863.878
03/13/2014  06:46:00      -77.462      -45.306        3.550       46.086       30.312       22.484     2123.960      918.838      505.520        0.581        0.177       89.739       19.796        0.049      332.045        0.452      863.875
03/13/2014  06:47:00      -45.303      -54.101        6.278       53.246       28.317       25.217     2835.154      801.846      635.884        0.464        0.214       70.564       29.356        0.173      332.009        0.393      863.868
03/13/2014  06:48:00     -100.665      -76.236        0.209       44.744       26.412       27.084     2002.046      697.608      733.546        0.969        0.172      126.275       26.376        0.044      331.951        0.296      863.866
03/13/2014  06:49:00      -73.522      -55.148        4.856       52.060       36.073       22.047     2710.242     1301.269      486.051        0.648        0.225       91.907       25.582        0.077      331.912        0.234      863.865
03/13/2014  06:50:00      -77.908      -30.274        7.599       56.232       27.400       23.268     3162.015      750.781      541.389        0.575        0.223       83.583       29.793        0.127      331.844        0.121      863.870
03/13/2014  06:51:00     -101.838      -51.427       -0.538       47.506       23.625       16.942     2256.815      558.164      287.030        0.806        0.155      114.087       19.941        0.031      331.914        0.235      863.869
03/13/2014  06:52:00      -92.032      -62.738       -6.980       24.827       34.180       15.406      616.361     1168.257      237.341        0.724        0.101      111.382        9.609        0.007      331.939        0.277      863.859
03/13/2014  06:53:00      -67.959      -14.529        7.849       33.136       25.327       20.775     1097.997      641.465      431.596        0.353        0.109       69.495       20.008        0.083      331.788        0.029      863.870
03/13/2014  06:54:00      -91.440      -26.996       -1.191       33.471       28.318       15.321     1120.302      801.887      234.727        0.562        0.108       95.342       13.795        0.021      331.818        0.080      863.887
03/13/2014  06:55:00      -99.943       -2.925       -2.675       40.994       26.363       19.604     1680.540      694.992      384.310        0.638        0.138       99.986       17.620        0.031      331.690       -0.133      863.901
03/13/2014  06:56:00      -86.443       -5.108       -4.840       45.007       32.916       19.139     2025.658     1083.495      366.306        0.550        0.174       86.594       17.978        0.043      331.590       -0.298      863.915
03/13/2014  06:57:00     -116.447       -0.744       -2.786       42.825       27.631       23.003     1834.014      763.463      529.159        0.835        0.156      116.450       25.229        0.047      331.473       -0.489      863.925
03/13/2014  06:58:00     -109.571      -15.508       -6.271       33.054       26.030       20.899     1092.572      677.548      436.766        0.725        0.110      110.663       19.992        0.033      331.474       -0.489      863.938
03/13/2014  06:59:00      -75.903      -30.177       -1.850       34.070       23.463       17.865     1160.791      550.528      319.146        0.435        0.102       81.682       17.394        0.045      331.511       -0.428      863.957
03/13/2014  07:00:00      -76.870      -18.992       -4.151       34.425       21.242       15.072     1185.092      451.215      227.163        0.407        0.093       79.181       15.982        0.041      331.606       -0.271      863.969
03/13/2014  07:01:00      -67.739      -18.723       -7.680       19.146       20.114       14.600      366.564      404.561      213.159        0.299        0.049       70.279       10.455        0.022      331.611       -0.262      863.970
03/13/2014  07:02:00      -63.901      -22.360       -3.190       15.787       19.836       14.474      249.218      393.451      209.491        0.272        0.043       67.701        9.295        0.019      331.609       -0.266      863.964
03/13/2014  07:03:00      -60.613      -11.971      -10.674       16.093       16.361       11.381      258.978      267.691      129.519        0.229        0.033       61.784        6.635        0.012      331.573       -0.325      863.960
03/13/2014  07:04:00      -51.446      -11.658       -9.958       18.114       15.590       10.422      328.110      243.037      108.608        0.178        0.034       52.750        8.013        0.023      331.588       -0.300      863.952
03/13/2014  07:05:00      -29.117      -22.972       -7.619       17.429       11.949       10.573      303.772      142.774      111.792        0.100        0.028       37.088        6.742        0.033      331.649       -0.200      863.955
03/13/2014  07:06:00      -39.143      -22.737       -9.552       10.692       11.766        8.678      114.312      138.429       75.301        0.123        0.016       45.268        2.437        0.003      331.813        0.070      863.944
03/13/2014  07:07:00      -48.101      -22.791       -6.554       15.242       11.219       11.785      232.312      125.870      138.895        0.169        0.025       53.228        8.347        0.025      331.687       -0.137      863.928
03/13/2014  07:08:00      -44.606      -40.951      -16.024       20.760       19.289       11.327      430.987      372.084      128.297        0.243        0.047       60.553        8.605        0.020      331.606       -0.268      863.931
03/13/2014  07:09:00      -12.197      -26.111        1.591       24.223       21.771       18.498      586.745      473.962      342.193        0.112        0.070       28.820       16.225        0.317      331.598       -0.284      863.949
03/13/2014  07:10:00      -53.596      -13.995       -1.788       25.153       13.218       11.461      632.685      174.725      131.354        0.200        0.047       55.393       11.096        0.040      331.543       -0.374      863.952
03/13/2014  07:11:00      -57.558      -14.507       -8.784       18.852       16.162       11.870      355.398      261.221      140.885        0.218        0.038       59.358       10.665        0.032      331.598       -0.284      863.960
03/13/2014  07:12:00      -79.570       -2.128      -12.356       28.448        9.120        9.120      809.277       83.175       83.175        0.373        0.049       79.599       11.677        0.022      331.523       -0.408      863.973
03/13/2014  07:13:00      -78.753       -7.262       -5.299       25.866       18.208       13.929      669.059      331.543      194.007        0.374        0.060       79.087       14.530        0.034      331.498       -0.448      863.985
03/13/2014  07:14:00     -104.202        5.496      -13.809       11.112        9.477        8.880      123.486       89.813       78.848        0.569        0.015      104.347        5.679        0.003      331.443       -0.541      863.993
03/13/2014  07:15:00      -65.398      -16.806       -6.319       18.179       16.998       11.877      330.460      288.926      141.070        0.268        0.038       67.523       10.162        0.023      331.463       -0.507      864.002
03/13/2014  07:16:00      -67.289        2.944       -8.804       12.624        8.992       10.987      159.367       80.853      120.712        0.249        0.018       67.353        5.955        0.008      331.515       -0.418      864.013
03/13/2014  07:17:00      -70.815      -12.285       -8.716       12.779        9.136        9.352      163.291       83.461       87.468        0.279        0.017       71.872        8.470        0.014      331.559       -0.348      864.028
03/13/2014  07:18:00      -54.313      -20.465       -5.312        9.036        9.374        7.462       81.648       87.880       55.687        0.181        0.011       58.041        3.639        0.004      331.664       -0.173      864.044
03/13/2014  07:19:00      -56.439      -19.943       -8.110       10.188        8.583        8.439      103.794       73.663       71.213        0.195        0.012       59.859        5.598        0.009      331.722       -0.078      864.056
03/13/2014  07:20:00      -60.206      -20.548       -9.142       10.910       19.889        9.759      119.020      395.558       95.246        0.237        0.030       63.615        5.322        0.007      331.681       -0.147      864.065
03/13/2014  07:21:00      -75.659       16.146       -9.797       15.582       15.058        9.876      242.807      226.736       97.538        0.332        0.028       77.363        7.514        0.009      331.535       -0.388      864.072
03/13/2014  07:22:00      -80.709       16.090       -7.532       18.715       11.569       11.194      350.240      133.852      125.297        0.372        0.030       82.297        7.187        0.008      331.460       -0.513      864.067
03/13/2014  07:23:00     -100.891       -0.804       -8.937       20.301       11.660       11.239      412.111      135.948      126.321        0.547        0.034      100.894        8.734        0.007      331.519       -0.414      864.069
03/13/2014  07:24:00     -106.575      -18.883       -5.137       21.772       17.052       10.886      474.026      290.766      118.502        0.631        0.044      108.235       10.512        0.009      331.529       -0.398      864.061
03/13/2014  07:25:00     -117.313      -27.086      -10.416       18.643       17.548       13.454      347.550      307.929      181.013        0.772        0.042      120.399        8.438        0.005      331.469       -0.498      864.070
03/13/2014  07:26:00     -117.646      -40.015      -10.082       22.150       24.183       14.146      490.638      584.816      200.109        0.841        0.064      124.265       13.364        0.012      331.399       -0.611      864.077
03/13/2014  07:27:00     -130.505      -28.720      -16.583       18.123       22.625       14.823      328.437      511.898      219.736        0.960        0.053      133.628        9.113        0.005      331.346       -0.698      864.085
03/13/2014  07:28:00     -143.862      -12.262      -17.794       16.250       13.086       12.232      264.075      171.236      149.619        1.087        0.029      144.384        4.964        0.001      331.313       -0.752      864.098
03/13/2014  07:29:00     -115.567      -13.175       -7.313       37.718       20.783       23.049     1422.685      431.922      531.266        0.798        0.119      116.316       25.990        0.050      331.308       -0.761      864.113
03/13/2014  07:30:00     -125.117      -16.762      -12.637       17.440       17.850       17.367      304.152      318.607      301.619        0.851        0.046      126.235        9.296        0.005      331.375       -0.652      864.118
03/13/2014  07:31:00     -101.834      -23.223       -6.912       26.207       22.863       19.652      686.793      522.731      386.216        0.628        0.080      104.448       15.582        0.022      331.341       -0.705      864.119
03/13/2014  07:32:00      -93.419      -27.197      -12.041       31.342       16.387       10.236      982.290      268.520      104.783        0.548        0.068       97.297        9.706        0.010      331.422       -0.574      864.121
03/13/2014  07:33:00      -82.888      -23.721       -7.805       23.118       20.155       13.111      534.437      406.218      171.886        0.430        0.056       86.216       12.073        0.020      331.434       -0.554      864.120
03/13/2014  07:34:00      -90.728      -22.521       -5.486       20.886       14.054       12.454      436.220      197.503      155.103        0.478        0.039       93.481        3.615        0.001      331.471       -0.494      864.114
03/13/2014  07:35:00     -124.532      -10.939       -7.400       23.486       20.730       17.650      551.573      429.729      311.524        0.849        0.065      125.011       11.382        0.008      331.404       -0.603      864.113
03/13/2014  07:36:00     -105.206      -23.972      -10.618       28.489       25.329       21.801      811.616      641.536      475.301        0.684        0.096      107.902       13.694        0.016      331.435       -0.551      864.108
03/13/2014  07:37:00     -124.390      -22.743       -7.212       36.452       24.587       21.321     1328.780      604.535      454.596        0.921        0.119      126.452       20.413        0.026      331.377       -0.645      864.117
03/13/2014  07:38:00      -85.482      -13.169        0.491       57.519       34.934       23.586     3308.403     1220.357      556.278        0.628        0.254       86.490       25.514        0.087      331.423       -0.572      864.124
03/13/2014  07:39:00     -141.334        1.023      -14.662       34.136       39.152       20.842     1165.238     1532.916      434.408        1.166        0.157      141.338       13.838        0.010      331.374       -0.651      864.129
03/13/2014  07:40:00     -201.040       -6.186      -21.386       36.553       29.552       25.184     1336.139      873.302      634.240        2.188        0.142      201.135       22.002        0.012      331.294       -0.784      864.136
03/13/2014  07:41:00     -193.664       19.729      -12.055       36.940       31.220       25.396     1364.556      974.715      644.961        2.051        0.149      194.667       20.753        0.011      331.324       -0.735      864.142
03/13/2014  07:42:00     -195.577       41.631      -14.861       37.351       34.752       23.685     1395.100     1207.733      560.963        2.168        0.158      199.958       20.708        0.011      331.396       -0.616      864.159
03/13/2014  07:43:00     -159.833       17.127       -8.588       51.092       42.863       27.620     2610.364     1837.279      762.838        1.556        0.261      160.748       23.371        0.021      331.409       -0.595      864.168
03/13/2014  07:44:00     -186.136       12.210      -12.414       50.381       34.094       27.888     2538.273     1162.371      777.727        1.971        0.224      186.536       26.680        0.020      331.459       -0.513      864.172
03/13/2014  07:45:00     -209.433       52.747      -20.361       42.705       29.536       21.958     1823.748      872.373      482.164        2.512        0.159      215.973       20.058        0.009      331.563       -0.344      864.178
03/13/2014  07:46:00     -156.629       -6.135      -15.101       40.603       30.979       20.598     1648.621      959.710      424.265        1.391        0.152      156.749       20.112        0.016      331.608       -0.268      864.182
03/13/2014  07:47:00     -134.878        7.885      -13.214       26.935       25.001       19.430      725.512      625.030      377.537        1.008        0.086      135.109       13.111        0.009      331.689       -0.133      864.173
03/13/2014  07:48:00     -158.234       15.368      -11.979       22.406       23.810       19.372      502.045      566.912      375.271        1.343        0.072      158.979       14.116        0.008      331.747       -0.037      864.175
03/13/2014  07:49:00     -133.102       -5.957       -8.188       25.866       23.714       16.490      669.040      562.331      271.926        0.966        0.075      133.235       11.560        0.008      331.816        0.075      864.182
03/13/2014  07:50:00     -100.743       -4.790        0.914       33.282       25.799       24.185     1107.693      665.593      584.917        0.627        0.118      100.857       20.342        0.041      331.866        0.156      864.182
03/13/2014  07:51:00     -138.557        3.705       -8.053       32.132       28.134       16.056     1032.440      791.550      257.807        1.068        0.104      138.607       14.642        0.011      331.938        0.276      864.183
03/13/2014  07:52:00     -140.031        3.624      -11.131       29.372       23.245       17.476      862.700      540.313      305.400        1.073        0.085      140.078       14.188        0.010      331.948        0.291      864.179
03/13/2014  07:53:00     -132.365       12.310      -10.037       31.649       23.218       19.116     1001.681      539.086      365.428        0.984        0.095      132.937       10.581        0.006      332.041        0.446      864.164
03/13/2014  07:54:00     -136.242       16.413       -5.815       36.290       25.506       18.015     1316.962      650.534      324.536        1.058        0.115      137.227       16.889        0.015      332.068        0.491      864.162
03/13/2014  07:55:00     -135.791       21.825      -10.453       34.139       28.990       14.701     1165.469      840.421      216.115        1.062        0.111      137.534       10.423        0.006      332.144        0.616      864.165
03/13/2014  07:56:00     -141.495       27.709       -7.069       35.803       36.329       20.660     1281.873     1319.798      426.817        1.193        0.151      144.183       16.120        0.012      332.144        0.617      864.170
03/13/2014  07:57:00     -139.647       41.505      -15.631       33.082       25.515       20.009     1094.411      651.038      400.375        1.181        0.107      145.684       14.364        0.010      332.183        0.681      864.160
03/13/2014  07:58:00     -114.539       19.606      -12.006       31.831       25.942       19.532     1013.236      672.993      381.508        0.786        0.103      116.205       10.218        0.008      332.232        0.761      864.153
03/13/2014  07:59:00     -108.857       10.820       -2.765       33.602       27.785       21.434     1129.075      772.026      459.419        0.717        0.118      109.393       13.886        0.016      332.294        0.862      864.150
03/13/2014  08:00:00      -95.932      -10.434       -6.490       35.979       30.913       16.735     1294.477      955.618      280.072        0.594        0.127       96.498       12.866        0.018      332.407        1.049      864.129
03/13/2014  08:01:00      -42.240      -42.363        0.987       29.892       30.346       19.913      893.522      920.862      396.511        0.289        0.111       59.823       17.672        0.087      332.480        1.169      864.122
03/13/2014  08:02:00      -39.900      -19.779        3.800       40.566       25.085       20.026     1645.601      629.278      401.026        0.234        0.134       44.533       21.534        0.234      332.602        1.371      864.121
03/13/2014  08:03:00      -80.964       -3.471       -4.041       22.222       23.730       14.342      493.822      563.132      205.697        0.392        0.063       81.038       11.445        0.020      332.554        1.291      864.128
03/13/2014  08:04:00      -78.880       -4.425       -6.078       17.694       23.040        9.228      313.066      530.850       85.150        0.360        0.046       79.004        3.577        0.002      332.628        1.415      864.144
03/13/2014  08:05:00      -60.307      -15.085       -7.257       18.678       19.968       10.258      348.870      398.720      105.235        0.238        0.043       62.165        8.022        0.017      332.687        1.512      864.159
03/13/2014  08:06:00      -81.419      -11.592       -7.916       13.970       14.642       10.984      195.148      214.375      120.652        0.368        0.027       82.240        9.679        0.014      332.735        1.592      864.171
03/13/2014  08:07:00      -86.102       -7.338       -9.208       24.248       20.095        9.812      587.984      403.819       96.280        0.432        0.054       86.414       10.455        0.015      332.742        1.602      864.184
03/13/2014  08:08:00      -84.509       -2.321       -9.301       20.290       20.760       14.953      411.683      430.963      223.582        0.415        0.053       84.541        8.724        0.011      332.808        1.713      864.189
03/13/2014  08:09:00      -51.839       -0.010       -3.792       20.285       16.794       12.744      411.475      282.030      162.412        0.178        0.043       51.839       10.422        0.040      332.852        1.785      864.203
03/13/2014  08:10:00      -32.523        4.247       -2.149       16.967       16.003        8.279      287.866      256.106       68.541        0.085        0.031       32.800        5.295        0.026      332.977        1.991      864.213
03/13/2014  08:11:00       -9.708      -21.620       -3.375       10.473       11.967        8.466      109.679      143.210       71.672        0.045        0.016       23.699        6.733        0.081      333.063        2.133      864.207
03/13/2014  08:12:00       -8.149       -5.776       -4.020        7.139        6.386        6.424       50.960       40.780       41.270        0.012        0.007        9.989        5.321        0.284      333.413        2.712      864.204
03/13/2014  08:13:00       -9.988        3.817       24.098       10.569        8.337        9.782      111.703       69.514       95.687        0.049        0.014       10.692        6.227        0.339      333.801        3.353      864.198
03/13/2014  08:14:00        8.743       25.347       36.425       28.051       21.958       25.637      786.870      482.144      657.254        0.199        0.096       26.812       25.628        0.914      333.564        2.960      864.207
03/13/2014  08:15:00       45.226        5.097       10.784       19.416       18.953       18.849      376.985      359.225      355.266        0.164        0.055       45.513       16.776        0.136      333.348        2.603      864.206
03/13/2014  08:16:00        3.515       16.523       21.519       18.781       27.351       19.206      352.726      748.073      368.857        0.111        0.073       16.893       19.433        1.323      333.698        3.182      864.215
03/13/2014  08:17:00      -27.924      -33.234       -0.553       21.029       26.219       15.893      442.216      687.424      252.574        0.163        0.069       43.408        8.972        0.043      333.393        2.678      864.230
03/13/2014  08:18:00      -11.778       -7.239       11.547       25.913       19.410       19.139      671.470      376.758      366.318        0.087        0.071       13.825       12.302        0.792      333.447        2.767      864.234
03/13/2014  08:19:00       -8.333      -53.698        6.318       19.502       27.395       22.140      380.340      750.492      490.175        0.231        0.081       54.341       10.033        0.034      333.570        2.972      864.248
03/13/2014  08:20:00      -21.966      -28.184        4.833       21.724       21.728       12.958      471.946      472.085      167.905        0.121        0.056       35.733        7.860        0.048      333.481        2.822      864.272
03/13/2014  08:21:00      -50.245      -30.228       -3.845       39.485       29.855       20.424     1559.097      891.345      417.123        0.316        0.143       58.637       13.609        0.054      333.118        2.224      864.291
03/13/2014  08:22:00      -66.558      -34.285        9.555       31.780       30.410       22.020     1010.000      924.768      484.873        0.406        0.121       74.869       19.967        0.071      333.018        2.061      864.316
03/13/2014  08:23:00      -68.558      -33.783       -1.703       28.095       16.703       16.429      789.351      278.994      269.924        0.359        0.067       76.430       15.325        0.040      332.978        1.993      864.336
03/13/2014  08:24:00      -54.995      -15.171       -2.651       32.048       27.780       21.307     1027.054      771.714      453.997        0.276        0.113       57.049       16.752        0.086      333.073        2.151      864.352
03/13/2014  08:25:00      -64.498      -23.636       -8.337       22.121       22.280       16.738      489.356      496.412      280.155        0.303        0.063       68.693       10.723        0.024      332.988        2.010      864.355
03/13/2014  08:26:00      -53.171      -23.606        4.246       32.874       30.139       23.214     1080.668      908.364      538.876        0.296        0.126       58.176       20.959        0.130      333.061        2.128      864.371
03/13/2014  08:27:00      -57.208      -22.362        0.112       21.796       21.776       17.920      475.057      474.214      321.109        0.252        0.064       61.423       12.475        0.041      333.063        2.134      864.383
03/13/2014  08:28:00      -54.053      -22.690       -1.098       28.098       26.933       17.062      789.503      725.369      291.110        0.262        0.090       58.622       16.226        0.077      333.153        2.282      864.383
03/13/2014  08:29:00      -59.520      -35.944        2.281       15.629       23.501       14.074      244.258      552.289      198.087        0.292        0.050       69.531        6.141        0.008      333.122        2.231      864.385
03/13/2014  08:30:00      -63.862      -49.066        1.456       45.634       28.183       17.381     2082.448      794.272      302.105        0.483        0.159       80.534        9.019        0.013      333.159        2.290      864.387
03/13/2014  08:31:00      -18.599       -8.374       17.097       15.952       20.238       11.855      254.458      409.582      140.530        0.076        0.040       20.397       12.495        0.375      333.503        2.862      864.386
03/13/2014  08:32:00      -63.476      -13.706       -3.524       16.073       14.064       10.891      258.335      197.810      118.615        0.240        0.029       64.939        7.897        0.015      333.127        2.238      864.378
03/13/2014  08:33:00      -53.587       10.474        7.466       31.524       23.360       21.515      993.770      545.707      462.904        0.252        0.100       54.601       22.680        0.173      333.368        2.638      864.376
03/13/2014  08:34:00      -35.612       -1.565        1.718       24.211       18.861       17.141      586.163      355.734      293.800        0.125        0.062       35.646       13.876        0.152      333.409        2.703      864.366
03/13/2014  08:35:00      -15.604       20.969        2.401       35.596       16.326       21.672     1267.092      266.538      469.692        0.135        0.100       26.137       22.967        0.772      333.580        2.988      864.362
03/13/2014  08:36:00      -10.014       32.330        8.240       35.798       28.679       24.116     1281.529      822.507      581.590        0.195        0.134       33.845       22.707        0.450      333.589        3.003      864.363
03/13/2014  08:37:00       22.811       42.566       10.094       30.625       21.280       22.820      937.919      452.832      520.751        0.217        0.096       48.293       12.969        0.072      333.747        3.266      864.360
03/13/2014  08:38:00       15.786       28.817        9.999       27.977       18.264       21.079      782.738      333.592      444.330        0.137        0.078       32.857       20.027        0.371      333.824        3.393      864.354
03/13/2014  08:39:00       -9.085       27.332       20.268       16.658       27.476       18.357      277.494      754.923      336.993        0.130        0.068       28.802       11.611        0.163      334.198        4.013      864.349
03/13/2014  08:40:00      -20.062       -8.619        3.675       20.589       18.298       15.055      423.904      334.820      226.651        0.074        0.049       21.835        7.928        0.132      333.744        3.259      864.346
03/13/2014  08:41:00       20.954       28.630       33.230       40.814       27.736       19.173     1665.792      769.287      367.603        0.258        0.140       35.479       10.655        0.090      333.787        3.330      864.337
03/13/2014  08:42:00       43.093       43.139       41.479       28.714       23.768       18.240      824.521      564.906      332.684        0.358        0.086       60.975       16.524        0.073      333.684        3.161      864.331
03/13/2014  08:43:00        7.606       -5.350       23.077       13.787       33.755       22.465      190.093     1139.378      504.689        0.123        0.092        9.299       18.490        3.953      334.075        3.808      864.330
03/13/2014  08:44:00       10.987      -13.121       21.302       25.341       20.449       24.409      642.150      418.158      595.804        0.120        0.083       17.113       14.308        0.699      334.140        3.917      864.331
03/13/2014  08:45:00       34.215       31.050       36.936       26.510       23.761       20.446      702.763      564.579      418.022        0.259        0.084       46.204       10.337        0.050      333.927        3.561      864.329
03/13/2014  08:46:00       53.797       51.341       36.912       28.045       20.813       22.792      786.536      433.179      519.481        0.432        0.087       74.365       10.805        0.021      333.692        3.173      864.331
03/13/2014  08:47:00       31.139       56.151       51.153       41.132       26.153       29.297     1691.862      683.967      858.322        0.499        0.162       64.208       13.798        0.046      333.874        3.475      864.338
03/13/2014  08:48:00       19.602       49.930       48.246       30.528       23.689       16.937      931.929      561.178      286.855        0.349        0.089       53.640        9.998        0.035      333.879        3.483      864.343
03/13/2014  08:49:00       14.690       51.216       77.695       36.812       37.020       26.107     1355.122     1370.454      681.552        0.614        0.170       53.281       19.160        0.129      333.941        3.587      864.347
03/13/2014  08:50:00       81.994       56.482       17.108       33.116       25.010       35.201     1096.677      625.499     1239.124        0.658        0.148       99.565       23.427        0.055      333.679        3.151      864.351
03/13/2014  08:51:00       23.963       53.805       60.625       36.884       39.636       29.055     1360.394     1570.977      844.212        0.546        0.189       58.900       21.464        0.133      334.150        3.933      864.349
03/13/2014  08:52:00       -1.989       38.265       73.298       26.682       35.632       27.804      711.926     1269.666      773.080        0.480        0.138       38.317       25.676        0.449      334.176        3.975      864.345
03/13/2014  08:53:00       18.057       80.742       94.349       48.734       35.245       29.143     2374.998     1242.182      849.305        1.011        0.223       82.736       24.742        0.089      334.065        3.792      864.336
03/13/2014  08:54:00       30.588       28.415       23.796       34.759       28.615       34.628     1208.221      818.832     1199.097        0.277        0.161       41.750       23.875        0.327      334.101        3.850      864.337
03/13/2014  08:55:00        7.608        7.199       44.107       28.658       52.885       28.466      821.258     2796.867      810.310        0.324        0.221       10.474       28.406        7.355      334.410        4.365      864.328
03/13/2014  08:56:00       43.684       71.545       75.367       52.116       46.092       44.584     2716.090     2124.452     1987.742        0.977        0.341       83.827       33.560        0.160      334.162        3.953      864.321
03/13/2014  08:57:00       53.258       63.335       64.905       37.234       34.745       33.781     1386.384     1207.184     1141.168        0.740        0.187       82.751       24.722        0.089      333.847        3.430      864.327
03/13/2014  08:58:00       21.446       55.088       74.358       38.030       45.870       27.081     1446.300     2104.092      733.358        0.665        0.214       59.115       26.921        0.207      334.194        4.005      864.329
03/13/2014  08:59:00       48.610       40.148       47.921       52.513       43.466       51.075     2757.598     1889.252     2608.607        0.676        0.363       63.046       31.586        0.251      334.099        3.847      864.341
03/13/2014  09:00:00       87.356       81.265       49.726       61.539       32.102       36.600     3787.094     1030.562     1339.567        1.143        0.308      119.311       37.069        0.097      333.929        3.565      864.361
03/13/2014  09:01:00       81.932       52.893       22.124       39.257       26.970       26.917     1541.081      727.405      724.509        0.650        0.150       97.521       13.659        0.020      333.672        3.141      864.385
03/13/2014  09:02:00      104.132       78.848        7.259       51.991       35.507       37.700     2703.058     1260.727     1421.298        1.125        0.269      130.616       24.986        0.037      333.743        3.257      864.412
03/13/2014  09:03:00       92.665       59.358        6.169       44.506       42.609       29.903     1980.790     1815.548      894.178        0.842        0.235      110.046       25.719        0.055      333.867        3.464      864.439
03/13/2014  09:04:00       84.698       70.998       -2.620       52.652       39.228       32.742     2772.253     1538.863     1072.034        0.880        0.269      110.519       22.184        0.040      333.855        3.443      864.465
03/13/2014  09:05:00       86.472       49.576       17.389       46.781       31.898       31.975     2188.468     1017.485     1022.421        0.723        0.211       99.675       11.343        0.013      334.014        3.708      864.483
03/13/2014  09:06:00      106.108       42.506       19.246       65.094       48.009       39.732     4237.238     2304.862     1578.610        1.078        0.406      114.305       25.603        0.050      334.165        3.958      864.500
03/13/2014  09:07:00      139.964       86.891        5.944       47.823       44.026       37.896     2287.052     1938.255     1436.100        1.642        0.283      164.742       31.033        0.035      333.834        3.407      864.512
03/13/2014  09:08:00       99.568       75.691       -3.338       43.362       34.773       26.418     1880.230     1209.135      697.922        0.972        0.189      125.071       10.810        0.007      333.964        3.625      864.514
03/13/2014  09:09:00      112.095       66.529        1.810       49.867       42.053       29.527     2486.751     1768.437      871.815        1.106        0.256      130.351       21.182        0.026      333.902        3.523      864.513
03/13/2014  09:10:00      105.551       36.874        1.684       53.043       42.686       33.003     2813.598     1822.081     1089.171        0.911        0.286      111.807       23.184        0.043      333.928        3.564      864.513
03/13/2014  09:11:00       80.079       87.884       11.539       44.182       35.039       27.142     1952.070     1227.742      736.676        0.909        0.196      118.896       21.560        0.033      333.869        3.467      864.504
03/13/2014  09:12:00       84.286       70.674       -7.228       29.647       34.140       26.265      878.947     1165.532      689.838        0.744        0.137      109.995       17.483        0.025      333.985        3.660      864.491
03/13/2014  09:13:00       79.674       45.303       17.199       33.404       26.189       30.781     1115.821      685.839      947.482        0.572        0.137       91.653       15.509        0.029      334.140        3.916      864.487
03/13/2014  09:14:00       50.437       46.653       17.571       31.420       27.114       23.561      987.238      735.183      555.101        0.365        0.114       68.705       14.464        0.044      334.164        3.957      864.478
03/13/2014  09:15:00       54.361       72.788      -11.418       27.239       35.392       26.517      741.939     1252.606      703.142        0.554        0.135       90.847       21.654        0.057      334.128        3.897      864.467
03/13/2014  09:16:00       30.332       69.396       -2.034       28.992       35.674       25.757      840.565     1272.633      663.424        0.426        0.139       75.736       19.021        0.063      334.254        4.106      864.472
03/13/2014  09:17:00       38.799       31.409        0.335       33.723       43.818       23.452     1137.217     1920.006      550.012        0.305        0.180       49.919       12.504        0.063      334.134        3.907      864.466
03/13/2014  09:18:00       -7.637       11.458        7.329       11.979       17.919       18.018      143.491      321.107      324.655        0.052        0.039       13.770       10.568        0.589      334.563        4.618      864.474
03/13/2014  09:19:00       35.045       20.106       30.317       30.003       23.978       29.713      900.176      574.958      882.837        0.245        0.118       40.403       17.362        0.185      334.700        4.846      864.472
03/13/2014  09:20:00       45.048       60.498      -14.118       27.658       28.657       32.854      764.971      821.214     1079.413        0.428        0.133       75.428       12.607        0.028      334.348        4.262      864.476
03/13/2014  09:21:00        8.253       65.633       38.069       40.206       38.797       42.627     1616.540     1505.188     1817.036        0.538        0.247       66.150       30.600        0.214      334.688        4.825      864.461
03/13/2014  09:22:00       39.736       53.180       57.452       67.852       51.697       45.090     4603.872     2672.555     2033.090        0.851        0.465       66.386       33.360        0.253      334.663        4.784      864.448
03/13/2014  09:23:00       92.354       57.410       27.981       42.606       28.205       34.728     1815.259      795.540     1206.044        0.821        0.191      108.744       26.989        0.062      334.216        4.044      864.446
03/13/2014  09:24:00       29.575       44.958       56.545       31.181       41.242       26.560      972.271     1700.875      705.424        0.474        0.169       53.813       28.940        0.289      334.604        4.686      864.449
03/13/2014  09:25:00       10.130       38.651       68.178       27.572       27.832       16.041      760.240      774.614      257.301        0.402        0.090       39.956       15.144        0.144      334.826        5.056      864.450
03/13/2014  09:26:00       40.487      -77.777       19.751       43.198       55.971       37.595     1866.042     3132.702     1413.375        0.724        0.321       87.684       28.160        0.103      334.727        4.891      864.468
03/13/2014  09:27:00       20.063       80.052       70.860       26.816       30.046       23.517      719.077      902.757      553.031        0.700        0.109       82.527       13.793        0.028      334.646        4.756      864.481
03/13/2014  09:28:00      -10.827      -27.103        4.150       31.747       53.631       41.172     1007.841     2876.234     1695.158        0.322        0.279       29.186       42.206        2.091      334.732        4.897      864.500
03/13/2014  09:29:00      -26.692      -41.572        6.802       25.516       37.836       21.804      651.061     1431.537      475.430        0.252        0.128       49.403       22.539        0.208      334.851        5.096      864.502
03/13/2014  09:30:00      -32.439      -59.194       -4.928       36.971       37.905       25.020     1366.836     1436.799      625.983        0.400        0.171       67.499       21.374        0.100      334.708        4.858      864.514
03/13/2014  09:31:00      -38.996      -30.531        9.219       35.211       31.997       19.665     1239.829     1023.788      386.706        0.259        0.133       49.526       20.749        0.176      334.772        4.963      864.525
03/13/2014  09:32:00      -44.766      -35.378        4.082       36.834       43.455       28.281     1356.777     1888.379      799.834        0.366        0.202       57.058       29.092        0.260      334.722        4.881      864.521
03/13/2014  09:33:00      -35.626      -39.051       -8.408       13.151       17.525       17.634      172.955      307.124      310.942        0.183        0.040       52.860        9.285        0.031      334.611        4.699      864.521
03/13/2014  09:34:00      -45.806      -32.124      -10.276       24.037       24.526       17.819      577.799      601.506      317.500        0.237        0.075       55.947        5.861        0.011      334.661        4.779      864.520
03/13/2014  09:35:00      -41.573      -10.173       -5.263       21.223       29.505       15.694      450.420      870.569      246.288        0.171        0.078       42.799       12.280        0.082      334.839        5.077      864.520
03/13/2014  09:36:00      -70.919      -53.654       -8.106       23.480       31.874       18.775      551.323     1015.921      352.518        0.495        0.096       88.928       20.503        0.053      334.677        4.807      864.524
03/13/2014  09:37:00      -47.152        1.738       -7.051       17.625       27.498       12.763      310.642      756.164      162.892        0.175        0.061       47.184       10.143        0.046      334.686        4.823      864.523
03/13/2014  09:38:00      -62.357       63.166      -13.563       23.206       23.896       18.851      538.512      571.030      355.345        0.476        0.073       88.760       15.176        0.029      334.991        5.330      864.523
03/13/2014  09:39:00      -12.683       34.574       18.753       18.643       31.159       20.955      347.559      970.903      439.094        0.173        0.088       36.827       13.784        0.140      335.906        6.854      864.518
03/13/2014  09:40:00      -56.239      -22.476        1.428       44.715       33.516       20.480     1999.402     1123.290      419.433        0.361        0.177       60.564       22.033        0.132      335.055        5.435      864.511
03/13/2014  09:41:00      -74.252      -66.913       -5.242       44.014       35.529       24.030     1937.222     1262.309      577.457        0.690        0.189       99.954       23.843        0.057      334.865        5.120      864.501
03/13/2014  09:42:00     -101.374     -105.288       -8.769       27.280       26.493       19.377      744.222      701.858      375.459        1.163        0.091      146.158       14.817        0.010      334.761        4.948      864.477
03/13/2014  09:43:00     -101.277      -94.243       -0.997       23.918       25.665       20.622      572.074      658.703      425.277        1.040        0.083      138.343       14.136        0.010      334.846        5.088      864.459
03/13/2014  09:44:00      -24.776       -6.271       26.573       20.529       35.715       22.746      421.445     1275.582      517.401        0.179        0.111       25.557       22.131        0.750      335.484        6.150      864.442
03/13/2014  09:45:00      -31.850      -17.684       12.067       24.383       23.736       21.964      594.544      563.411      482.433        0.156        0.082       36.430       17.772        0.238      335.353        5.932      864.427
03/13/2014  09:46:00        7.327       25.658       35.323       18.471       23.646       11.895      341.168      559.127      141.482        0.150        0.052       26.684       10.655        0.159      335.574        6.298      864.425
03/13/2014  09:47:00      -13.049        5.200       18.753       19.093       20.369       14.170      364.533      414.914      200.802        0.076        0.049       14.046       13.899        0.979      335.609        6.358      864.425
03/13/2014  09:48:00       -3.822      -25.364       31.909       18.623       51.718       30.882      346.830     2674.710      953.718        0.282        0.199       25.650       35.330        1.897      335.983        6.980      864.420
03/13/2014  09:49:00       16.956       39.745       64.658       29.519       38.390       20.149      871.399     1473.772      405.982        0.440        0.138       43.211       20.154        0.218      335.804        6.682      864.412
03/13/2014  09:50:00       30.063       43.900       47.768       27.706       45.070       23.612      767.642     2031.295      557.530        0.423        0.168       53.207       19.688        0.137      335.681        6.477      864.411
03/13/2014  09:51:00        7.943       -0.827       37.889       27.202       48.995       20.199      739.926     2400.544      408.012        0.252        0.177        7.986       16.861        4.458      335.880        6.809      864.402
03/13/2014  09:52:00       10.755       48.777       73.098       32.037       39.121       23.631     1026.357     1530.439      558.432        0.548        0.156       49.949       16.997        0.116      335.728        6.554      864.388
03/13/2014  09:53:00      112.765       90.938       90.674       41.519       59.692       47.831     1723.820     3563.091     2287.824        1.839        0.379      144.865       46.498        0.103      335.211        5.694      864.368
03/13/2014  09:54:00      128.417       90.257       59.754       54.878       48.470       43.618     3011.620     2349.358     1902.548        1.773        0.363      156.962       32.011        0.042      335.137        5.572      864.340
03/13/2014  09:55:00       62.542       59.609       54.930       35.071       23.754       22.565     1229.982      564.240      509.169        0.639        0.115       86.399       10.155        0.014      335.193        5.664      864.340
03/13/2014  09:56:00       64.280       60.476       44.894       35.085       31.587       29.076     1230.969      997.718      845.424        0.644        0.154       88.257       21.529        0.060      335.492        6.161      864.324
03/13/2014  09:57:00        4.587       39.951       47.236       35.404       56.542       51.752     1253.408     3197.030     2678.273        0.549        0.356       40.214       44.984        1.251      335.916        6.869      864.321
03/13/2014  09:58:00       27.004       18.229       37.598       28.520       48.881       24.974      813.373     2389.391      623.704        0.315        0.191       32.581       24.783        0.579      335.995        7.000      864.316
03/13/2014  09:59:00       61.646       73.275       51.984       63.762       51.731       41.894     4065.600     2676.148     1755.133        1.018        0.425       95.757       13.855        0.021      335.764        6.615      864.318
03/13/2014  10:00:00       55.283       46.120       45.915       38.363       27.967       46.023     1471.693      782.179     2118.117        0.583        0.219       71.995       17.900        0.062      335.522        6.212      864.319
03/13/2014  10:01:00       38.192       49.541       12.758       41.264       25.495       23.725     1702.721      649.994      562.855        0.350        0.146       62.554       21.670        0.120      335.546        6.253      864.342
03/13/2014  10:02:00       -4.466       15.089       11.910       22.744       15.121       16.965      517.280      228.640      287.804        0.071        0.052       15.736       10.220        0.422      336.065        7.115      864.359
03/13/2014  10:03:00      -39.869       -8.579        9.047       50.088       54.964       33.486     2508.815     3020.990     1121.287        0.420        0.333       40.781       34.763        0.727      335.708        6.522      864.369
03/13/2014  10:04:00      -51.249      -57.292        5.923       36.944       38.784       20.642     1364.838     1504.192      426.077        0.462        0.165       76.870       22.819        0.088      335.534        6.231      864.376
03/13/2014  10:05:00      -44.808      -58.558       -8.367       32.402       30.693       16.937     1049.907      942.048      286.856        0.389        0.114       73.734        7.603        0.011      335.471        6.127      864.371
03/13/2014  10:06:00      -71.858      -33.025       -4.519       44.954       22.021       16.456     2020.844      484.933      270.811        0.453        0.139       79.084       17.000        0.046      335.599        6.340      864.372
03/13/2014  10:07:00      -66.260       -9.820       -2.798       26.662       30.402       16.100      710.873      924.271      259.222        0.319        0.095       66.983       15.556        0.054      335.617        6.371      864.361
03/13/2014  10:08:00      -58.778        8.018       -0.132       21.475       25.424       18.001      461.191      646.372      324.053        0.248        0.072       59.323       13.512        0.052      335.665        6.449      864.348
03/13/2014  10:09:00      -26.667       -4.764       -1.948       16.721       20.519       12.703      279.599      421.023      161.355        0.080        0.043       27.089        9.484        0.123      335.702        6.513      864.331
03/13/2014  10:10:00      -28.889      -19.980       -4.131       15.296       22.571       13.903      233.982      509.458      193.295        0.109        0.047       35.126        7.436        0.045      335.738        6.571      864.324
03/13/2014  10:11:00      -10.733        1.799        2.523       20.341       26.819       19.125      413.759      719.273      365.768        0.081        0.075       10.883       14.112        1.682      336.188        7.322      864.310
03/13/2014  10:12:00      -12.089      -11.581       12.940       22.791       15.290       20.741      519.436      233.775      430.187        0.082        0.059       16.741       16.451        0.966      336.569        7.958      864.284
03/13/2014  10:13:00      -72.401      -21.296       -2.977       40.666       26.583       16.543     1653.695      706.644      273.672        0.417        0.132       75.468       12.466        0.027      335.914        6.866      864.268
03/13/2014  10:14:00      -65.901     -116.420       -2.320       46.994       55.964       27.413     2208.437     3132.015      751.498        1.200        0.305      133.778       30.660        0.053      335.629        6.389      864.258
03/13/2014  10:15:00      -69.043     -107.985      -10.193       28.769       33.662       21.483      827.666     1133.152      461.523        0.948        0.121      128.170       14.017        0.012      335.593        6.330      864.252
03/13/2014  10:16:00      -57.913      -49.487       -6.379       32.959       25.468       14.450     1086.298      648.594      208.793        0.389        0.097       76.177       15.331        0.041      335.635        6.400      864.241
03/13/2014  10:17:00      -16.352       -0.870       -8.283       45.824       48.289       40.055     2099.862     2331.782     1604.396        0.319        0.302       16.376       33.842        4.271      336.315        7.536      864.231
03/13/2014  10:18:00      -38.299        0.060       -7.264       39.644       27.588       28.677     1571.674      761.102      822.361        0.234        0.158       38.299       19.833        0.268      336.238        7.405      864.222
03/13/2014  10:19:00       24.876      -82.391      -20.466       68.613       58.930       41.979     4707.792     3472.764     1762.211        0.888        0.497       86.064       43.629        0.257      336.335        7.568      864.228
03/13/2014  10:20:00     -102.550      -64.431        0.794       39.799       49.026       24.800     1583.931     2403.531      615.057        0.963        0.230      121.111       18.967        0.025      335.984        6.983      864.233
03/13/2014  10:21:00     -102.212      -62.226      -18.623       57.534       42.195       23.961     3310.177     1780.401      574.139        1.016        0.283      119.663       17.656        0.022      335.976        6.969      864.243
03/13/2014  10:22:00      -19.205      -69.848       -8.594       32.955       34.716       19.036     1086.049     1205.184      362.357        0.399        0.133       72.440       12.802        0.031      335.867        6.787      864.248
03/13/2014  10:23:00       11.903       15.688       22.835       18.829       20.318       24.323      354.539      412.805      591.614        0.113        0.068       19.692        8.975        0.208      336.585        7.986      864.229
03/13/2014  10:24:00       -1.140       18.296       14.576       13.278       23.055       23.741      176.300      531.523      563.644        0.091        0.064       18.332       12.028        0.431      336.624        8.052      864.212
03/13/2014  10:25:00       29.384       17.322       12.773       28.068       21.690       18.608      787.798      470.468      346.266        0.147        0.080       34.110        9.448        0.077      336.466        7.787      864.206
03/13/2014  10:26:00       18.983       21.777       -1.460       35.118       22.320       24.818     1233.278      498.167      615.953        0.159        0.117       28.890       21.049        0.531      336.366        7.620      864.195
03/13/2014  10:27:00      -69.288      -41.542       -7.192       26.704       21.564       12.680      713.080      465.010      160.793        0.396        0.067       80.788        9.029        0.012      336.024        7.047      864.186
03/13/2014  10:28:00      -28.878       -5.447       -5.982       67.912       32.492       26.121     4612.062     1055.726      682.319        0.362        0.318       29.387       10.131        0.119      336.267        7.455      864.188
03/13/2014  10:29:00      -24.570        5.444       29.728       37.547       34.165       32.522     1409.775     1167.233     1057.656        0.258        0.182       25.166       25.294        1.010      336.696        8.173      864.200
03/13/2014  10:30:00      -26.657      -19.891       34.686       48.552       61.628       45.400     2357.329     3798.041     2061.130        0.526        0.411       33.260       40.584        1.489      336.861        8.446      864.211
03/13/2014  10:31:00       39.312       82.290      105.394       47.269       35.095       24.795     2234.329     1231.680      614.801        1.175        0.204       91.198       19.787        0.047      336.557        7.940      864.211
03/13/2014  10:32:00       35.300       47.506       67.964       35.319       42.034       31.987     1247.433     1766.894     1023.163        0.608        0.202       59.185       17.241        0.085      336.360        7.609      864.220
03/13/2014  10:33:00       35.992      -18.044       37.151       42.663       87.861       44.285     1820.112     7719.488     1961.158        0.725        0.575       40.262       42.028        1.090      336.599        8.010      864.202
03/13/2014  10:34:00       42.761      -48.697       25.422       60.103       78.853       64.234     3612.381     6217.785     4126.042        0.940        0.698       64.806       50.095        0.598      336.891        8.496      864.189
03/13/2014  10:35:00       27.576       48.330       73.857       64.643       69.281       54.422     4178.681     4799.874     2961.721        1.024        0.597       55.644       59.757        1.153      336.687        8.156      864.183
03/13/2014  10:36:00       45.269       90.379      110.651       54.404       66.644       34.197     2959.767     4441.438     1169.425        1.551        0.429      101.082       25.844        0.065      336.491        7.828      864.163
03/13/2014  10:37:00       21.800       43.527       61.627       50.727       42.473       32.845     2573.204     1803.982     1078.777        0.581        0.273       48.681       29.359        0.364      336.709        8.193      864.143
03/13/2014  10:38:00      -50.817       18.025      -20.866       27.814       17.986       25.058      773.616      323.480      627.905        0.253        0.086       53.919       14.871        0.076      336.637        8.074      864.119
03/13/2014  10:39:00       25.445       56.859       41.256       40.043       34.753       26.255     1603.407     1207.741      689.341        0.454        0.175       62.293        8.322        0.018      336.703        8.183      864.096
03/13/2014  10:40:00      -13.379        4.109       28.614       16.506       20.998       28.795      272.437      440.927      829.148        0.128        0.077       13.996       18.109        1.674      337.185        8.989      864.080
03/13/2014  10:41:00       -9.209      -27.055       26.943       23.591       49.799       28.470      556.547     2479.892      810.559        0.269        0.192       28.579       23.370        0.669      337.357        9.275      864.075
03/13/2014  10:42:00       23.360       51.866       69.210       61.397       69.431       45.690     3769.631     4820.718     2087.608        0.935        0.534       56.884       43.406        0.582      336.844        8.418      864.071
03/13/2014  10:43:00        8.689       55.741       84.168       48.302       54.718       46.486     2333.087     2994.112     2160.907        0.888        0.374       56.414       39.911        0.501      336.875        8.471      864.047
03/13/2014  10:44:00       31.919      -80.129       12.633       57.163       92.658       69.729     3267.619     8585.479     4862.107        1.215        0.836       86.253       72.947        0.715      337.108        8.859      864.034
03/13/2014  10:45:00      -31.734       41.666       47.522       51.173       38.598       43.342     2618.705     1489.812     1878.528        0.549        0.299       52.375       25.563        0.238      337.165        8.956      864.028
03/13/2014  10:46:00       -5.023       10.040       50.561       43.263       60.004       44.873     1871.727     3600.537     2013.585        0.508        0.374       11.226       41.539       13.691      337.665        9.793      864.023
03/13/2014  10:47:00      -11.463       -7.202       13.628       58.574       41.693       42.668     3430.887     1738.321     1820.580        0.368        0.349       13.538       30.474        5.067      337.356        9.275      864.011
03/13/2014  10:48:00        3.494      -21.535       10.369       37.528       61.414       43.770     1408.314     3771.676     1915.787        0.384        0.355       21.816       36.768        2.840      337.471        9.468      863.991
03/13/2014  10:49:00      -46.826      -11.135       -0.567       41.980       35.712       24.685     1762.309     1275.369      609.349        0.298        0.182       48.131       20.588        0.183      336.846        8.422      863.979
03/13/2014  10:50:00      -62.980      -73.139       17.286       32.111       44.568       34.274     1031.096     1986.262     1174.699        0.690        0.210       96.518       22.945        0.057      336.795        8.336      863.955
03/13/2014  10:51:00      -25.212      -37.248        8.140       70.419       81.688       35.303     4958.782     6672.969     1246.302        0.748        0.644       44.978       40.587        0.814      337.004        8.686      863.933
03/13/2014  10:52:00      129.496     -129.770      -41.094       63.624       70.238       39.101     4048.052     4933.317     1528.876        2.290        0.526      183.329       44.978        0.060      336.737        8.237      863.917
03/13/2014  10:53:00       14.730       -8.716       55.704       38.720       61.594       41.971     1499.202     3793.843     1761.532        0.522        0.353       17.115       38.299        5.007      337.535        9.574      863.902
03/13/2014  10:54:00       15.276       15.498       51.791       35.795       48.208       44.771     1281.258     2324.003     2004.453        0.438        0.280       21.761       43.594        4.013      337.519        9.549      863.878
03/13/2014  10:55:00       15.859      -39.292        2.763       43.145       40.418       33.859     1861.498     1633.636     1146.413        0.322        0.232       42.372       20.399        0.232      337.449        9.429      863.870
03/13/2014  10:56:00      -57.070      -59.144       -1.987       75.240       58.604       28.375     5661.012     3434.485      805.150        0.833        0.495       82.189       17.322        0.044      337.067        8.791      863.858
03/13/2014  10:57:00      -28.948        1.319       20.344       37.240       40.679       26.312     1386.810     1654.759      692.318        0.249        0.187       28.978       23.239        0.643      337.424        9.389      863.829
03/13/2014  10:58:00      -74.244      -77.063       -2.680       43.425       35.233       27.292     1885.760     1241.362      744.829        0.766        0.194      107.009       22.289        0.043      336.609        8.025      863.820
03/13/2014  10:59:00       27.765      -80.398        4.644       77.713       75.623       48.696     6039.361     5718.766     2371.286        1.069        0.706       85.058       43.318        0.259      337.148        8.927      863.797
03/13/2014  11:00:00        9.551      -13.949       77.807       56.603       98.139       52.199     3203.941     9631.165     2724.756        1.095        0.778       16.905       49.229        8.480      337.429        9.398      863.776
03/13/2014  11:01:00       57.920        5.532       37.498       43.488       94.969       53.461     1891.229     9019.048     2858.104        0.928        0.688       58.183       65.601        1.271      337.095        8.839      863.768
03/13/2014  11:02:00       39.057      -36.996       32.032       42.671       69.471       40.928     1820.826     4826.157     1675.117        0.612        0.416       53.798       36.180        0.452      337.680        9.818      863.739
03/13/2014  11:03:00       25.373       76.050       82.929       56.703       44.737       31.630     3215.189     2001.396     1000.428        0.976        0.311       80.171       19.062        0.057      337.573        9.638      863.736
03/13/2014  11:04:00      -26.491       72.874       94.822       45.692       44.907       34.675     2087.788     2016.614     1202.370        1.015        0.265       77.540       25.119        0.105      337.619        9.716      863.714
03/13/2014  11:05:00       63.900        0.432       27.035       38.243       88.293       40.348     1462.523     7795.602     1627.932        0.785        0.544       63.901       46.246        0.524      337.214        9.037      863.713
03/13/2014  11:06:00       30.191       49.982       49.938       48.089       38.599       33.589     2312.551     1489.881     1128.222        0.542        0.247       58.392       32.331        0.307      338.019       10.386      863.708
03/13/2014  11:07:00        4.555       24.619       64.629       30.436       50.041       32.712      926.358     2504.060     1070.101        0.465        0.225       25.037       23.625        0.890      338.033       10.409      863.705
03/13/2014  11:08:00       -5.282       41.620       87.030       26.408       45.131       49.622      697.395     2036.766     2462.381        0.726        0.260       41.953       32.922        0.616      337.541        9.586      863.686
03/13/2014  11:09:00      -26.076      -21.611       27.469       36.144       34.155       28.898     1306.401     1166.531      835.115        0.260        0.165       33.868       21.612        0.407      337.937       10.248      863.694
03/13/2014  11:10:00      -10.103      -57.740       23.852       47.461       52.580       42.902     2252.574     2764.634     1840.540        0.543        0.343       58.617       16.596        0.080      337.732        9.904      863.675
03/13/2014  11:11:00       56.052       36.117       68.225       63.139      108.693       69.154     3986.480    11814.263     4782.306        1.484        1.029       66.681       76.172        1.305      337.567        9.628      863.665
03/13/2014  11:12:00       62.723       95.522       92.040       42.126       43.147       29.992     1774.583     1861.661      899.519        1.303        0.227      114.274       23.406        0.042      337.292        9.168      863.645
03/13/2014  11:13:00       38.668       43.725       75.123       52.983       68.425       46.901     2807.233     4681.995     2199.724        0.937        0.484       58.370       39.657        0.462      337.701        9.854      863.636
03/13/2014  11:14:00       86.887       75.775       63.348       38.624       41.065       49.300     1491.794     1686.346     2430.503        1.146        0.280      115.288       22.870        0.039      337.349        9.262      863.618
03/13/2014  11:15:00       26.310       85.093      106.591       49.717       55.281       42.161     2471.814     3055.993     1777.514        1.330        0.365       89.068       42.981        0.233      337.715        9.877      863.605
03/13/2014  11:16:00       91.263       69.805       14.474       30.873       21.736       27.408      953.122      472.446      751.192        0.779        0.109      114.899       25.769        0.050      336.892        8.500      863.586
03/13/2014  11:17:00       86.560       63.176       -5.409       30.940       25.732       23.016      957.272      662.144      529.745        0.683        0.107      107.163       12.748        0.014      337.389        9.329      863.564
03/13/2014  11:18:00       61.393      100.731       70.394       43.272       48.813       58.411     1872.434     2382.666     3411.818        1.327        0.383      117.965       39.997        0.115      337.784        9.992      863.540
03/13/2014  11:19:00       89.642       52.128       60.042       46.766       61.722       40.191     2187.090     3809.544     1615.291        1.098        0.381      103.697       27.929        0.073      337.363        9.286      863.539
03/13/2014  11:20:00       31.528       28.936       18.041       58.295       51.225       47.229     3398.272     2623.973     2230.597        0.520        0.413       42.794       34.739        0.659      338.000       10.355      863.514
03/13/2014  11:21:00       18.019       19.308       36.070       58.555       69.537       53.226     3428.653     4835.449     2833.026        0.655        0.555       26.410       50.795        3.699      338.124       10.562      863.495
03/13/2014  11:22:00       63.997       45.913       21.766       50.013       28.803       35.772     2501.260      829.633     1279.642        0.564        0.231       78.763       25.116        0.102      337.499        9.514      863.477
03/13/2014  11:23:00       25.231       -5.832        6.392       35.355       31.831       25.297     1250.004     1013.221      639.934        0.181        0.145       25.896       14.138        0.298      338.058       10.451      863.470
03/13/2014  11:24:00      -23.113      -71.000        2.032       35.935       49.076       23.933     1291.305     2408.452      572.785        0.493        0.214       74.667       25.799        0.119      338.123       10.561      863.469
03/13/2014  11:25:00      -13.750       21.908       23.268       49.305       64.957       37.472     2431.000     4219.362     1404.184        0.463        0.403       25.865       43.660        2.849      338.051       10.440      863.460
03/13/2014  11:26:00        6.346      -55.084       40.442       57.803       80.326       57.898     3341.195     6452.227     3352.227        0.893        0.657       55.449       51.068        0.848      338.223       10.729      863.452
03/13/2014  11:27:00       47.049      -41.300       37.690       53.814       78.133       58.784     2895.973     6104.839     3455.510        0.890        0.623       62.604       47.325        0.571      338.041       10.424      863.451
03/13/2014  11:28:00       32.236      103.958      111.319       71.444       72.317       60.146     5104.219     5229.803     3617.589        1.909        0.698      108.842       57.204        0.276      337.966       10.297      863.451
03/13/2014  11:29:00       52.293      -14.033       20.573       57.498       51.285       41.145     3306.060     2630.125     1692.899        0.549        0.381       54.143       36.319        0.450      337.721        9.887      863.457
03/13/2014  11:30:00       52.297      -19.285       23.220       42.817       78.836       45.058     1833.324     6215.051     2030.248        0.686        0.504       55.740       35.107        0.397      337.919       10.219      863.461
03/13/2014  11:31:00       28.163       29.707       23.769       46.751       32.878       28.070     2185.627     1080.933      787.903        0.315        0.203       40.935       13.781        0.113      337.985       10.330      863.444
03/13/2014  11:32:00       11.717       28.363       54.994       39.754       79.633       45.963     1580.397     6341.442     2112.566        0.700        0.502       30.688       48.690        2.517      338.206       10.699      863.427
03/13/2014  11:33:00      -13.534       63.228       89.592       31.849       51.151       48.384     1014.342     2616.436     2340.964        0.909        0.299       64.660       31.304        0.234      338.185       10.665      863.420
03/13/2014  11:34:00       82.483       53.458       23.017       70.834       49.020       37.587     5017.430     2402.988     1412.804        0.951        0.442       98.292       40.421        0.169      337.491        9.501      863.413
03/13/2014  11:35:00       57.520       17.558       24.824       63.085       41.957       29.859     3979.686     1760.380      891.544        0.543        0.332       60.140       14.705        0.060      338.246       10.767      863.396
03/13/2014  11:36:00       58.928       46.916       19.396       45.467       51.543       33.211     2067.281     2656.640     1102.940        0.594        0.291       75.324       24.839        0.109      338.050       10.439      863.396
03/13/2014  11:37:00       27.701       32.008       13.024       44.679       29.034       30.140     1996.201      842.954      908.440        0.285        0.187       42.331       23.984        0.321      338.205       10.698      863.382
03/13/2014  11:38:00      157.298      124.537       61.027       62.087       44.833       53.097     3854.741     2009.964     2819.257        2.633        0.434      200.629       25.118        0.016      337.841       10.084      863.376
03/13/2014  11:39:00      130.503      122.925       95.594      104.441       59.440       60.972    10907.840     3533.130     3717.632        2.972        0.908      179.281       56.538        0.099      337.880       10.150      863.353
03/13/2014  11:40:00       53.074      -46.424       24.636       71.662       89.910       45.543     5135.458     8083.873     2074.205        1.043        0.765       70.512       52.123        0.546      338.102       10.525      863.341
03/13/2014  11:41:00       36.768       39.741       50.271       55.294       49.057       50.227     3057.424     2406.550     2522.778        0.672        0.399       54.141       26.258        0.235      338.682       11.500      863.333
03/13/2014  11:42:00       73.753       86.358       68.429       75.903       48.369       34.555     5761.266     2339.560     1194.016        1.344        0.465      113.566       39.681        0.122      338.575       11.319      863.312
03/13/2014  11:43:00       44.590        2.001       34.260       40.097       80.624       33.372     1607.742     6500.202     1113.702        0.619        0.461       44.635       23.282        0.272      338.353       10.947      863.312
03/13/2014  11:44:00       39.396       57.194       54.029       60.449       62.442       36.258     3654.135     3898.952     1314.653        0.830        0.443       69.449       28.540        0.169      338.762       11.635      863.298
03/13/2014  11:45:00       61.901       89.188       78.274       60.282       68.833       77.101     3633.960     4737.941     5944.541        1.611        0.716      108.564       59.310        0.298      338.565       11.302      863.296
03/13/2014  11:46:00       91.605      108.086       94.556       66.950       55.902       41.182     4482.305     3125.008     1695.968        1.916        0.465      141.682       24.410        0.030      338.225       10.731      863.290
03/13/2014  11:47:00       82.663       50.550       77.577       55.380       95.644       65.280     3066.970     9147.794     4261.516        1.594        0.824       96.894       66.689        0.474      338.140       10.588      863.294
03/13/2014  11:48:00       52.072       -9.366       24.425       69.349      131.030       69.333     4809.259    17168.861     4807.109        1.509        1.339       52.908       78.529        2.203      338.462       11.129      863.273
03/13/2014  11:49:00       69.638     -122.633       -5.028       62.054      100.359       59.140     3850.743    10071.852     3497.515        1.866        0.871      141.025       45.409        0.104      338.561       11.295      863.258
03/13/2014  11:50:00       91.594      -21.771       53.498       72.302      117.559       71.107     5227.523    13820.119     5056.276        1.791        1.205       94.146       85.552        0.826      338.214       10.712      863.264
03/13/2014  11:51:00       31.904       38.539       82.196       61.118       65.468       48.500     3735.355     4286.118     2352.271        0.981        0.519       50.031       55.941        1.250      338.560       11.296      863.252
03/13/2014  11:52:00       92.629       65.437       39.402       36.459       36.268       46.734     1329.248     1315.371     2184.056        0.962        0.241      113.411       30.787        0.074      338.031       10.406      863.251
03/13/2014  11:53:00       20.945        5.488       10.605       35.049       50.987       26.430     1228.429     2599.694      698.524        0.255        0.226       21.652       13.453        0.386      338.418       11.055      863.236
03/13/2014  11:54:00      -69.441      -35.802       -2.391       81.962       54.679       27.268     6717.788     2989.792      743.533        0.828        0.523       78.127       26.301        0.113      338.411       11.043      863.221
03/13/2014  11:55:00     -112.970       39.998       -7.987       38.849       43.399       34.896     1509.276     1883.473     1217.739        0.952        0.231      119.842       18.213        0.023      338.093       10.510      863.204
03/13/2014  11:56:00      -30.757       -8.716        7.251       27.174       27.121       31.134      738.440      735.550      969.321        0.176        0.122       31.968       21.027        0.433      338.618       11.392      863.193
03/13/2014  11:57:00      -41.480       25.870       11.281       52.772       33.178       30.529     2784.858     1100.788      932.043        0.367        0.241       48.887       35.814        0.537      338.831       11.751      863.184
03/13/2014  11:58:00      -38.443       59.758       -0.215       46.292       34.844       33.043     2142.984     1214.118     1091.861        0.475        0.222       71.055       32.536        0.210      338.683       11.502      863.155
03/13/2014  11:59:00       20.825       -0.181       29.707       33.211       16.722       22.110     1102.996      279.632      488.874        0.159        0.094       20.826        5.380        0.067      339.172       12.324      863.148
03/13/2014  12:00:00       14.882      -29.871        5.673       51.675       51.825       31.981     2670.290     2685.796     1022.795        0.376        0.319       33.373       28.035        0.706      338.771       11.649      863.138
03/13/2014  12:01:00       76.250      -88.187      -16.512       85.820       81.835       53.209     7365.117     6696.931     2831.226        1.538        0.845      116.581       51.817        0.198      338.652       11.449      863.111
03/13/2014  12:02:00       96.843      -92.828      -20.318       66.172       87.549       61.425     4378.788     7664.835     3773.027        1.711        0.791      134.148       56.699        0.179      338.768       11.644      863.092
03/13/2014  12:03:00       38.407      -82.929       25.278       61.502      115.611       76.967     3782.556    13365.892     5923.983        1.603        1.154       91.391       72.624        0.631      338.925       11.906      863.076
03/13/2014  12:04:00       23.641      -28.982       25.873       85.907       81.209       53.969     7380.015     6594.855     2912.639        0.947        0.844       37.401       30.325        0.657      339.005       12.043      863.071
03/13/2014  12:05:00       70.975      -83.094       12.755       69.308       83.067       52.463     4803.574     6900.168     2752.390        1.328        0.723      109.280       68.390        0.392      338.519       11.225      863.064
03/13/2014  12:06:00        8.092      100.128      122.288       41.875       61.080       31.902     1753.554     3730.755     1017.751        1.577        0.325      100.455       35.613        0.126      338.662       11.466      863.043
03/13/2014  12:07:00      110.698       76.830       39.029       52.284       35.650       45.747     2733.612     1270.932     2092.822        1.289        0.305      134.747       40.983        0.093      338.299       10.855      863.018
03/13/2014  12:08:00       84.073       41.856       24.893       43.096       52.974       27.488     1857.235     2806.242      755.577        0.743        0.271       93.916       20.845        0.049      338.333       10.912      862.999
03/13/2014  12:09:00        8.910       41.817       12.448       30.642       43.033       29.162      938.959     1851.823      850.398        0.281        0.182       42.756       25.110        0.345      338.997       12.029      862.965
03/13/2014  12:10:00       -7.839       33.420        5.793       31.390       42.529       33.197      985.353     1808.681     1102.058        0.255        0.195       34.327       26.969        0.617      339.071       12.154      862.940
03/13/2014  12:11:00       36.858      -30.172        6.206       45.198       44.238       35.757     2042.867     1957.031     1278.545        0.379        0.264       47.632       36.268        0.580      339.036       12.096      862.931
03/13/2014  12:12:00      -37.844        3.307       10.420       33.988       16.787       19.955     1155.180      281.800      398.217        0.169        0.092       37.988       20.697        0.297      339.183       12.342      862.905
03/13/2014  12:13:00      -13.905       15.746       16.521       51.274       23.903       26.440     2629.066      571.330      699.078        0.231        0.195       21.006       31.106        2.193      339.520       12.909      862.899
03/13/2014  12:14:00      -49.238      -18.650       -6.589       38.466       22.832       16.796     1479.664      521.285      282.112        0.255        0.114       52.652       14.978        0.081      338.808       11.713      862.882
03/13/2014  12:15:00       31.524     -101.149       -2.400      101.350       56.480       39.349    10271.860     3189.961     1548.367        1.312        0.751      105.948       43.408        0.168      339.103       12.208      862.875
03/13/2014  12:16:00      -47.681      -67.217       -1.437       61.118       71.113       39.239     3735.436     5057.103     1539.676        0.856        0.517       82.411       42.610        0.267      339.097       12.197      862.848
03/13/2014  12:17:00     -142.303      -83.758       -4.287       36.705       62.669       41.746     1347.284     3927.419     1742.705        1.715        0.351      165.123       22.453        0.018      338.525       11.237      862.844
03/13/2014  12:18:00      -14.784      -33.026       -7.028       35.467       25.540       22.463     1257.922      652.309      504.596        0.189        0.121       36.184       15.617        0.186      339.039       12.100      862.841
03/13/2014  12:19:00     -120.360      -46.576      -14.372       42.271       42.236       22.448     1786.819     1783.859      503.919        1.047        0.204      129.058       20.296        0.025      338.547       11.273      862.829
03/13/2014  12:20:00      -52.552      -36.085       -3.435       33.783       43.779       26.729     1141.300     1916.640      714.421        0.392        0.189       63.748       17.772        0.078      338.841       11.767      862.826
03/13/2014  12:21:00      -51.705       -2.112       -8.290       28.102       29.786       20.672      789.742      887.231      427.330        0.243        0.105       51.748       11.534        0.050      338.769       11.647      862.817
03/13/2014  12:22:00      -44.063      -41.106        5.923       36.516       36.103       24.299     1333.419     1303.439      590.443        0.345        0.161       60.260       23.799        0.156      338.796       11.692      862.818
03/13/2014  12:23:00       -3.356      -65.814       13.326       26.455       72.349       37.680      699.861     5234.430     1419.814        0.594        0.368       65.900       36.848        0.313      339.203       12.377      862.806
03/13/2014  12:24:00       67.607     -137.959       -4.529       73.994       72.679       57.777     5475.149     5282.308     3338.217        1.886        0.705      153.634       31.440        0.042      338.911       11.882      862.794
03/13/2014  12:25:00       19.773       32.207       73.955       56.504       62.797       43.191     3192.701     3943.478     1865.430        0.795        0.450       37.792       48.340        1.636      339.621       13.080      862.782
03/13/2014  12:26:00       27.082      -23.551       45.387       62.160       63.285       60.189     3863.878     4004.965     3622.707        0.742        0.575       35.889       47.889        1.780      339.371       12.657      862.772
03/13/2014  12:27:00       56.913       61.059       69.096       48.894       60.525       46.200     2390.601     3663.228     2134.430        0.996        0.409       83.470       45.377        0.296      338.987       12.013      862.769
03/13/2014  12:28:00       24.877       17.423       33.435       31.796       62.047       60.040     1010.961     3849.804     3604.820        0.525        0.423       30.372       53.946        3.155      339.030       12.083      862.747
03/13/2014  12:29:00       11.353       73.934        9.084       39.498       55.107       35.224     1560.068     3036.803     1240.722        0.576        0.292       74.801       18.140        0.059      339.013       12.055      862.725
03/13/2014  12:30:00       23.418       19.486       29.415       30.820       25.032       26.344      949.854      626.586      694.009        0.203        0.114       30.465       17.230        0.320      339.606       13.056      862.705
03/13/2014  12:31:00       27.207       38.067       45.187       36.082       34.326       37.195     1301.931     1178.266     1383.485        0.405        0.193       46.790       24.002        0.263      339.756       13.307      862.688
03/13/2014  12:32:00        2.480       -0.716       47.195       29.347       37.227       29.342      861.226     1385.855      860.973        0.267        0.155        2.581       26.024      101.671      340.051       13.805      862.675
03/13/2014  12:33:00       12.393       -2.251       38.758       28.344       23.950       22.778      803.389      573.612      518.853        0.178        0.095       12.595       17.506        1.932      340.015       13.744      862.666
03/13/2014  12:34:00       49.026       15.705       36.218       35.727       48.387       27.573     1276.403     2341.277      760.276        0.417        0.219       51.480       26.925        0.274      339.612       13.065      862.644
03/13/2014  12:35:00       26.741       53.154       71.016       56.240       78.070       68.079     3162.885     6094.982     4634.804        1.124        0.695       59.501       69.603        1.368      339.559       12.975      862.639
03/13/2014  12:36:00       77.664      136.230      147.818       83.212       56.208       50.531     6924.289     3159.361     2553.394        2.954        0.632      156.813       43.934        0.078      339.249       12.450      862.595
03/13/2014  12:37:00       81.339       96.479       91.020       60.483       68.357       63.161     3658.222     4672.622     3989.346        1.826        0.616      126.191       56.160        0.198      339.196       12.363      862.594
03/13/2014  12:38:00       48.106        2.152       32.450       50.708       70.333       57.698     2571.270     4946.687     3329.005        0.711        0.542       48.154       41.016        0.725      339.370       12.656      862.578
03/13/2014  12:39:00       63.703      -53.045       24.885       71.663      112.681       53.387     5135.629    12696.968     2850.208        1.408        1.034       82.897       73.711        0.791      339.474       12.831      862.586
03/13/2014  12:40:00        6.035       47.699      -26.554       23.938       45.497       24.807      573.033     2069.992      615.383        0.314        0.163       48.080       24.507        0.260      339.196       12.365      862.576
03/13/2014  12:41:00      -14.339       39.289       -1.209       21.974       44.690       21.258      482.856     1997.154      451.890        0.234        0.147       41.824       16.663        0.159      339.718       13.244      862.574
03/13/2014  12:42:00       18.533       46.349       51.866       52.929       54.838       61.193     2801.490     3007.185     3744.630        0.737        0.478       49.917       51.150        1.050      339.908       13.564      862.578
03/13/2014  12:43:00       -8.914      -93.528       16.894       31.326       78.668       50.157      981.294     6188.645     2515.720        0.940        0.484       93.951       54.349        0.335      339.611       13.065      862.564
03/13/2014  12:44:00       13.090        5.889       59.112       34.353       79.271       47.575     1180.095     6283.846     2263.390        0.671        0.486       14.354       55.688       15.052      340.076       13.848      862.560
03/13/2014  12:45:00       21.363      -10.782       32.786       36.462       63.216       36.903     1329.501     3996.249     1361.858        0.417        0.334       23.930       39.139        2.675      340.015       13.745      862.541
03/13/2014  12:46:00       -3.936      -40.553       40.240       33.375       77.880       34.926     1113.900     6065.240     1219.835        0.584        0.420       40.743       21.524        0.279      340.169       14.005      862.532
03/13/2014  12:47:00       72.727      -71.176       44.220       76.259      124.929       78.686     5815.453    15607.268     6191.423        1.996        1.381      101.761       89.651        0.776      339.953       13.639      862.505
03/13/2014  12:48:00       48.622       66.414      117.127       71.225       81.478       52.103     5072.966     6638.668     2714.705        1.746        0.721       82.310       47.833        0.338      339.887       13.528      862.495
03/13/2014  12:49:00       54.366      -67.529       16.445       70.167       75.407       50.685     4923.380     5686.211     2568.981        1.048        0.659       86.694       44.213        0.260      339.922       13.586      862.486
03/13/2014  12:50:00       41.404      -98.900       25.881       82.017      133.912       65.464     6726.859    17932.332     4285.481        2.055        1.447      107.217       73.765        0.473      340.166       13.999      862.466
03/13/2014  12:51:00       22.957       44.368      111.082       53.699      106.651       69.880     2883.535    11374.424     4883.268        1.698        0.957       49.956       71.945        2.074      340.129       13.935      862.472
03/13/2014  12:52:00       71.905       -8.529       77.261       93.672      105.782       66.666     8774.351    11189.845     4444.373        1.781        1.220       72.409       73.247        1.023      339.869       13.498      862.466
03/13/2014  12:53:00       72.552       70.497       91.454       56.658      110.478       64.158     3210.163    12205.300     4116.220        1.906        0.977      101.162       73.329        0.525      339.546       12.952      862.444
03/13/2014  12:54:00       53.851       -4.884       53.948       57.244      117.840       65.004     3276.848    13886.155     4225.542        1.361        1.069       54.072       78.617        2.114      339.820       13.416      862.436
03/13/2014  12:55:00      108.227       73.439       74.553       91.562       56.996       53.081     8383.557     3248.516     2817.566        1.855        0.722      130.791       41.562        0.101      339.712       13.232      862.419
03/13/2014  12:56:00      154.800      117.150       15.551       50.516       31.820       42.392     2551.872     1012.521     1797.093        2.164        0.268      194.132        9.502        0.002      339.341       12.607      862.410
03/13/2014  12:57:00      107.627       81.716        3.245       36.671       27.084       32.069     1344.769      733.518     1028.396        1.069        0.155      135.133       14.929        0.012      339.252       12.457      862.405
03/13/2014  12:58:00       35.743       82.800       -4.082       40.338       47.408       38.515     1627.134     2247.544     1483.426        0.675        0.268       90.186       25.658        0.081      339.558       12.974      862.391
03/13/2014  12:59:00       62.955       76.279       29.008       39.263       49.181       38.615     1541.578     2418.723     1491.137        0.804        0.273       98.903       21.992        0.049      339.616       13.072      862.383
03/13/2014  13:00:00      106.728       87.380       78.959       90.340       64.980       56.720     8161.388     4222.357     3217.184        2.043        0.780      137.936       43.592        0.100      339.715       13.236      862.370
03/13/2014  13:01:00       98.967       98.322       85.509       56.270       47.980       46.551     3166.336     2302.105     2166.969        1.720        0.382      139.506       29.628        0.045      339.759       13.313      862.349
03/13/2014  13:02:00       39.905      -34.422       19.647       66.623       80.223       58.031     4438.686     6435.658     3367.559        0.870        0.712       52.700       56.221        1.138      340.176       14.015      862.346
03/13/2014  13:03:00       48.418      -40.144        5.756       60.628       93.947       50.727     3675.754     8826.119     2573.189        0.953        0.754       62.895       53.845        0.733      340.114       13.911      862.333
03/13/2014  13:04:00      -16.690        5.682       53.240       32.255       49.987       38.271     1040.371     2498.686     1464.675        0.407        0.250       17.631       22.562        1.638      340.485       14.537      862.316
03/13/2014  13:05:00      -32.392      -60.111        6.261       56.569       79.845       39.494     3200.064     6375.238     1559.783        0.792        0.557       68.283       42.200        0.382      340.311       14.244      862.313
03/13/2014  13:06:00       75.731     -143.825      -14.739       73.171       71.260       40.130     5354.000     5077.931     1610.389        1.934        0.602      162.545       30.650        0.036      339.889       13.530      862.313
03/13/2014  13:07:00       73.711     -105.841        5.013       55.672       88.725       47.588     3099.380     7872.147     2264.589        1.495        0.662      128.979       54.496        0.179      339.877       13.512      862.316
03/13/2014  13:08:00       11.591      -65.564       16.769       77.132       72.479       46.974     5949.324     5253.173     2206.522        0.906        0.670       66.580       45.936        0.476      340.034       13.776      862.286
03/13/2014  13:09:00      -33.203      -26.781       10.735       64.197       61.569       39.675     4121.233     3790.765     1574.103        0.571        0.474       42.658       46.300        1.178      340.376       14.354      862.262
03/13/2014  13:10:00       39.260        0.526       21.373       71.745       50.836       42.422     5147.274     2584.297     1799.640        0.576        0.477       39.263       43.669        1.237      340.256       14.151      862.241
03/13/2014  13:11:00       61.655       -6.718       28.187       52.594       57.158       45.484     2766.140     3267.020     2068.834        0.637        0.405       62.020       36.983        0.356      339.958       13.649      862.208
03/13/2014  13:12:00       -7.304       -5.463       14.649       61.207       64.727       40.971     3746.281     4189.529     1678.610        0.495        0.481        9.121       42.103       21.306      340.256       14.151      862.159
03/13/2014  13:13:00       44.443     -124.799      -17.165       90.360       91.719       54.588     8165.012     8412.334     2979.857        1.870        0.978      132.477       47.214        0.127      340.232       14.109      862.139
03/13/2014  13:14:00       87.615     -167.938      -31.683       81.486       72.879       47.800     6639.963     5311.358     2284.853        2.556        0.712      189.419       29.074        0.024      339.928       13.596      862.117
03/13/2014  13:15:00      -30.784       -8.360        6.555       78.277       67.162       36.262     6127.227     4510.723     1314.945        0.650        0.598       31.899       43.525        1.862      340.071       13.839      862.098
03/13/2014  13:16:00       25.780      -34.115       37.173       77.335       97.727       46.120     5980.722     9550.509     2127.040        1.043        0.883       42.760       53.593        1.571      340.791       15.055      862.070
03/13/2014  13:17:00      104.360     -185.976      -28.277       83.480       58.651       47.723     6968.958     3439.954     2277.519        2.948        0.634      213.256       50.579        0.056      339.825       13.422      862.056
03/13/2014  13:18:00       86.948      -33.433       27.830       86.764      105.177       71.993     7528.073    11062.152     5182.961        1.661        1.189       93.154       82.460        0.784      340.312       14.246      862.046
03/13/2014  13:19:00       29.042       54.612       63.508       28.317       66.001       37.388      801.862     4356.166     1397.873        0.721        0.328       61.854       44.755        0.524      340.178       14.020      862.041
03/13/2014  13:20:00       66.554      155.624      148.754       60.469       81.144       42.857     3656.470     6584.409     1836.739        3.142        0.604      169.258       45.389        0.072      340.311       14.241      862.015
03/13/2014  13:21:00      123.336       42.459       33.193       53.388      112.100       54.691     2850.241    12566.323     2991.131        1.826        0.920      130.439       57.314        0.193      340.128       13.934      862.008
03/13/2014  13:22:00       72.581     -132.258       13.706       78.221      101.375       55.169     6118.476    10276.922     3043.623        2.119        0.972      150.865       59.124        0.154      340.346       14.303      862.002
03/13/2014  13:23:00      -28.557     -120.617      -13.448       77.368       78.027       46.720     5985.855     6088.271     2182.724        1.490        0.713      123.951       22.758        0.034      340.630       14.782      861.993
03/13/2014  13:24:00      -20.666      -73.424       14.696       37.389       55.736       38.008     1397.933     3106.488     1444.585        0.599        0.297       76.277       33.904        0.198      340.584       14.706      861.989
03/13/2014  13:25:00      -27.593      -41.992       14.091       45.522       76.947       40.116     2072.250     5920.827     1609.270        0.616        0.480       50.247       42.377        0.711      340.565       14.675      861.978
03/13/2014  13:26:00      -28.928        1.958       14.058       27.936       57.438       50.086      780.403     3299.114     2508.585        0.381        0.329       28.994       46.987        2.626      340.611       14.750      861.956
03/13/2014  13:27:00       42.905      -38.386       26.428       40.527       66.181       44.108     1642.453     4379.980     1945.477        0.599        0.398       57.570       42.517        0.545      340.433       14.450      861.934
03/13/2014  13:28:00       55.189       30.452       25.880       35.162       34.916       32.358     1236.401     1219.158     1047.031        0.407        0.175       63.033       19.776        0.098      340.366       14.338      861.906
03/13/2014  13:29:00      -37.905       -7.103       -8.994       65.308       27.574       23.106     4265.120      760.336      533.888        0.356        0.278       38.564       24.513        0.404      340.355       14.317      861.905
03/13/2014  13:30:00      -82.384      -54.295        1.333       72.154       50.635       28.966     5206.187     2563.945      839.005        0.917        0.430       98.667       28.130        0.081      340.494       14.553      861.892
03/13/2014  13:31:00     -170.053     -123.780       -9.529       88.943       87.239       50.565     7910.852     7610.621     2556.842        3.120        0.904      210.332       52.861        0.063      340.115       13.911      861.865
03/13/2014  13:32:00     -179.889     -101.689      -11.311       83.230       60.779       42.036     6927.233     3694.096     1767.029        2.761        0.619      206.642       42.719        0.043      340.044       13.791      861.850
03/13/2014  13:33:00      -73.339      -55.142        4.522       60.581       71.637       27.481     3670.109     5131.848      755.178        0.900        0.478       91.757       31.639        0.119      340.043       13.791      861.830
03/13/2014  13:34:00      -64.668      -23.548        8.251       63.310       45.471       34.223     4008.177     2067.625     1171.195        0.602        0.362       68.822       33.808        0.241      340.728       14.950      861.829
03/13/2014  13:35:00      -85.921       -5.448        7.500       75.810       59.761       35.427     5747.108     3571.410     1255.101        0.902        0.529       86.093       39.901        0.215      340.801       15.073      861.829
03/13/2014  13:36:00     -121.719      -81.697      -10.297       72.482       44.453       37.220     5253.678     1976.090     1385.309        1.510        0.431      146.595       36.393        0.062      340.486       14.540      861.817
03/13/2014  13:37:00     -167.214      -30.328       -1.581       50.494       60.227       33.558     2549.654     3627.319     1126.151        1.809        0.365      169.942       27.633        0.026      340.349       14.308      861.800
03/13/2014  13:38:00     -109.410      -38.749      -18.496       57.829       34.982       20.430     3344.239     1223.733      417.366        0.940        0.249      116.069       20.608        0.032      340.079       13.853      861.810
03/13/2014  13:39:00     -118.864      -28.778      -22.324       48.525       33.773       23.031     2354.665     1140.624      530.448        0.974        0.201      122.298       12.916        0.011      340.071       13.838      861.796
03/13/2014  13:40:00      -18.763        4.449      -11.014       51.917       48.217       23.419     2695.397     2324.924      548.432        0.303        0.278       19.283       19.673        1.041      340.305       14.233      861.795
03/13/2014  13:41:00      -15.099       54.561        4.395       32.940       38.895       24.471     1085.014     1512.823      598.827        0.321        0.160       56.611       16.505        0.085      340.603       14.738      861.774
03/13/2014  13:42:00       -9.992       14.759       13.371       44.047       17.480       25.382     1940.174      305.545      644.256        0.169        0.144       17.823       29.687        2.774      341.077       15.539      861.746
03/13/2014  13:43:00      -44.564      -16.878        3.859       49.730       51.794       30.972     2473.111     2682.616      959.254        0.420        0.306       47.653       27.948        0.344      340.815       15.096      861.729
03/13/2014  13:44:00      -58.957     -125.471       -7.610       60.026       41.905       31.239     3603.163     1756.055      975.894        1.280        0.317      138.633       34.501        0.062      340.452       14.483      861.706
03/13/2014  13:45:00      -52.431      -46.312        2.953       34.936       41.312       29.822     1220.553     1706.649      889.374        0.436        0.191       69.956       25.326        0.131      340.702       14.905      861.688
03/13/2014  13:46:00      -42.965      -48.319       -4.663       43.313       47.546       22.028     1875.993     2260.643      485.254        0.441        0.231       64.659       14.366        0.049      340.745       14.979      861.670
03/13/2014  13:47:00      -12.281      -83.650        6.584       65.381       63.356       42.060     4274.690     4014.011     1769.002        0.862        0.503       84.547       32.631        0.149      341.188       15.728      861.638
03/13/2014  13:48:00       42.309      -88.240        2.964       78.976       72.267       38.506     6237.256     5222.450     1482.703        1.126        0.647       97.859       38.855        0.158      340.690       14.883      861.620
03/13/2014  13:49:00      -79.751      -51.515        4.021       72.981       55.733       50.162     5326.186     3106.130     2516.272        0.999        0.547       94.942       49.367        0.270      340.979       15.375      861.592
03/13/2014  13:50:00      -62.604       -1.517      -11.676       54.186       22.167       23.004     2936.176      491.391      529.202        0.401        0.198       62.623       13.191        0.044      340.707       14.913      861.566
03/13/2014  13:51:00       77.224     -145.765      -35.992       72.282       78.407       43.135     5224.647     6147.678     1860.668        2.087        0.662      164.958       38.319        0.054      340.623       14.768      861.546
03/13/2014  13:52:00       75.790      -81.228       -0.035       39.621       48.946       26.926     1569.789     2395.678      725.003        0.852        0.235      111.095       22.206        0.040      340.472       14.517      861.543
03/13/2014  13:53:00       21.241       73.245       78.694       36.274       56.376       44.861     1315.838     3178.276     2012.554        0.926        0.325       76.263       42.030        0.304      341.014       15.433      861.526
03/13/2014  13:54:00       64.075     -100.023       11.518       66.224       87.391       49.746     4385.665     7637.202     2474.664        1.437        0.725      118.787       45.251        0.145      340.887       15.218      861.533
03/13/2014  13:55:00       62.101     -189.635      -30.682       57.843       70.501       44.181     3345.828     4970.368     1951.984        2.551        0.513      199.544       23.336        0.014      340.538       14.625      861.528
03/13/2014  13:56:00        7.430      -50.527        8.351       39.136       72.656       47.346     1531.588     5278.902     2241.600        0.586        0.453       51.070       48.753        0.911      340.993       15.397      861.518
03/13/2014  13:57:00       11.413       16.687       85.752       37.460       42.506       30.619     1403.215     1806.741      937.516        0.595        0.207       20.216       30.096        2.216      341.425       16.129      861.498
03/13/2014  13:58:00       43.542      -39.555       24.571       42.301       46.303       33.562     1789.367     2143.955     1126.402        0.456        0.253       58.826       32.019        0.296      340.782       15.042      861.486
03/13/2014  13:59:00       23.055       25.919       48.363       28.135       26.485       14.104      791.566      701.432      198.917        0.262        0.085       34.689       14.160        0.167      340.862       15.176      861.463
03/13/2014  14:00:00       23.885       13.457       17.326       26.100       17.609       18.016      681.205      310.094      324.583        0.118        0.066       27.415        6.133        0.050      341.039       15.475      861.436
03/13/2014  14:01:00       52.253      -43.549      -12.216       43.665       74.442       21.469     1906.623     5541.642      460.921        0.634        0.395       68.021       23.029        0.115      340.834       15.127      861.414
03/13/2014  14:02:00       67.279     -114.323       -4.183       67.563       80.145       55.993     4564.810     6423.234     3135.243        1.587        0.706      132.651       52.922        0.159      340.969       15.356      861.388
03/13/2014  14:03:00       84.865      -42.768       10.793       53.749       53.087       44.005     2888.943     2818.253     1936.452        0.839        0.382       95.033       44.593        0.220      340.879       15.204      861.385
03/13/2014  14:04:00       -7.445      -43.758       19.862       21.513       55.668       27.890      462.819     3098.909      777.868        0.335        0.217       44.387       29.345        0.437      341.138       15.644      861.368
03/13/2014  14:05:00       62.589      -58.755        2.507       41.487       61.876       36.373     1721.162     3828.630     1322.986        0.712        0.344       85.846       34.133        0.158      340.791       15.055      861.356
03/13/2014  14:06:00      -24.990        1.533        5.523       63.975       31.466       25.797     4092.738      990.110      665.468        0.320        0.287       25.037       17.522        0.490      340.845       15.149      861.337
03/13/2014  14:07:00      -53.637      -36.584       -1.936       37.575       46.231       24.301     1411.849     2137.315      590.526        0.418        0.207       64.925       18.574        0.082      341.069       15.526      861.330
03/13/2014  14:08:00      -55.605       27.066        3.305       43.752       55.558       30.703     1914.202     3086.665      942.655        0.489        0.297       61.843       27.846        0.203      341.271       15.868      861.306
03/13/2014  14:09:00      -14.118       31.708       12.482       34.217       33.908       24.051     1170.796     1149.757      578.470        0.213        0.145       34.709       17.378        0.251      341.318       15.948      861.303
03/13/2014  14:10:00       14.910       42.716        1.723       31.075       43.351       23.600      965.652     1879.352      556.970        0.273        0.170       45.243       10.536        0.054      340.992       15.396      861.301
03/13/2014  14:11:00       12.700       35.751        1.750       27.853       30.394       27.754      775.782      923.821      770.261        0.196        0.123       37.940       23.049        0.369      340.995       15.402      861.300
03/13/2014  14:12:00        9.851        2.904       -4.826       22.516       20.838       10.291      506.988      434.237      105.897        0.059        0.052       10.270        4.620        0.202      341.220       15.781      861.291
03/13/2014  14:13:00       13.039      -68.417       12.127       57.962       67.505       46.104     3359.641     4556.908     2125.557        0.752        0.502       69.648       37.265        0.286      341.400       16.086      861.278
03/13/2014  14:14:00      113.370     -188.783      -27.744       66.101       78.217       43.859     4369.294     6117.897     1923.645        3.083        0.621      220.208       36.642        0.028      340.770       15.017      861.259
03/13/2014  14:15:00       96.795     -116.497       -0.711       68.286       62.817       44.729     4663.002     3945.934     2000.717        1.677        0.530      151.462       46.909        0.096      340.957       15.335      861.254
03/13/2014  14:16:00       63.817      -29.894       38.558       63.216       45.294       57.980     3996.252     2051.530     3361.700        0.793        0.470       70.472       34.188        0.235      341.247       15.826      861.241
03/13/2014  14:17:00       35.232       39.140       84.628       49.119       61.008       42.928     2412.649     3722.002     1842.799        0.895        0.399       52.661       39.949        0.575      341.242       15.818      861.225
03/13/2014  14:18:00       86.479     -170.444      -16.058       66.068       92.223       45.657     4365.013     8505.043     2084.577        2.587        0.748      191.128       46.414        0.059      340.935       15.298      861.205
03/13/2014  14:19:00       59.296       43.941       93.122       83.823      123.652       96.947     7026.243    15289.704     9398.669        2.291        1.586       73.803      103.048        1.950      341.182       15.716      861.184
03/13/2014  14:20:00       49.585       41.165       59.992       29.923       34.334       41.065      895.367     1178.811     1686.369        0.576        0.188       64.446       22.321        0.120      340.882       15.209      861.186
03/13/2014  14:21:00       41.205       42.393        1.606       20.089       27.797       26.117      403.583      772.687      682.085        0.268        0.093       59.119       15.704        0.071      340.775       15.028      861.160
03/13/2014  14:22:00       94.893      -50.357      -15.328       77.749      128.947       36.543     6044.862    16627.384     1335.376        1.789        1.200      107.427       35.381        0.108      341.086       15.554      861.120
03/13/2014  14:23:00       71.200      -51.513       26.095       68.481      101.172       68.739     4689.685    10235.869     4725.037        1.402        0.983       87.881       80.005        0.829      341.220       15.779      861.121
03/13/2014  14:24:00       88.705     -115.938       -8.835       60.623       58.504       41.216     3675.201     3422.762     1698.775        1.509        0.440      145.980       43.626        0.089      340.945       15.315      861.122
03/13/2014  14:25:00       21.246      -13.739       27.524       22.794       47.478       24.098      519.556     2254.120      580.699        0.238        0.168       25.301       28.996        1.313      341.415       16.112      861.109
03/13/2014  14:26:00       26.923     -100.405      -14.139       34.179       46.702       25.601     1168.232     2181.101      655.427        0.750        0.200      103.952       22.795        0.048      341.375       16.044      861.097
03/13/2014  14:27:00      -22.116      -31.282        0.386      102.414       37.509       38.955    10488.685     1406.903     1517.464        0.744        0.671       38.310       51.012        1.773      341.021       15.445      861.084
03/13/2014  14:28:00     -100.146      -32.136      -12.393       32.449       23.616       14.796     1052.949      557.704      218.913        0.652        0.091      105.176        3.551        0.001      340.872       15.192      861.061
03/13/2014  14:29:00      -17.946      -28.419       -5.570       48.980       43.641       25.622     2399.043     1904.562      656.490        0.306        0.248       33.611       24.769        0.543      341.278       15.879      861.051
03/13/2014  14:30:00      -86.698      -72.328      -16.693       48.626       27.922       25.433     2364.531      779.655      646.825        0.841        0.190      112.906       15.337        0.018      341.239       15.813      861.038
03/13/2014  14:31:00      -40.650      -12.850       -7.976       38.237       27.444       19.975     1462.031      753.192      399.011        0.225        0.131       42.633       10.699        0.063      341.452       16.175      861.015
03/13/2014  14:32:00      -52.332      -19.716       12.740       61.066       45.857       30.562     3729.042     2102.843      934.052        0.503        0.338       55.922       28.873        0.267      341.707       16.607      860.999
03/13/2014  14:33:00      -75.608      -86.655      -20.510       59.490       56.576       41.603     3539.034     3200.886     1730.784        1.106        0.424      115.003       41.307        0.129      341.165       15.689      860.989
03/13/2014  14:34:00      -61.533      -28.732       -3.185       42.930       36.083       30.267     1842.980     1301.954      916.119        0.434        0.203       67.911       21.335        0.099      341.361       16.020      860.970
03/13/2014  14:35:00      -38.973      -37.960        6.694       57.897       45.968       30.254     3352.028     2113.076      915.319        0.469        0.319       54.404       25.161        0.214      341.415       16.112      860.969
03/13/2014  14:36:00     -123.969      -39.703       -2.542       35.895       37.585       21.129     1288.427     1412.626      446.418        1.005        0.157      130.171       18.968        0.021      341.150       15.664      860.957
03/13/2014  14:37:00      -17.202       -4.401        3.431       37.889       20.554       17.942     1435.594      422.486      321.923        0.125        0.109       17.756       19.615        1.220      341.454       16.178      860.952
03/13/2014  14:38:00        6.505       31.872       51.942       33.773       33.884       42.166     1140.640     1148.126     1778.004        0.391        0.203       32.529       27.072        0.693      341.824       16.805      860.942
03/13/2014  14:39:00       75.099       55.022       36.441       77.241       64.897       54.420     5966.103     4211.616     2961.590        1.156        0.657       93.098       35.229        0.143      341.677       16.555      860.912
03/13/2014  14:40:00      157.387      101.496       13.934       76.087       47.447       44.019     5789.277     2251.257     1937.701        2.262        0.499      187.276       24.756        0.017      341.116       15.604      860.912
03/13/2014  14:41:00      104.653       60.090        8.972       59.938       36.620       35.649     3592.562     1341.006     1270.848        1.042        0.310      120.677       28.624        0.056      341.266       15.860      860.897
03/13/2014  14:42:00       61.206       44.776       -8.827       35.846       41.214       33.191     1284.961     1698.567     1101.638        0.496        0.204       75.835       12.731        0.028      341.321       15.953      860.885
03/13/2014  14:43:00       52.902       36.820       -6.006       40.517       32.848       26.267     1641.596     1078.970      689.951        0.380        0.171       64.454       16.337        0.064      341.363       16.024      860.858
03/13/2014  14:44:00       78.653       51.019       11.587       67.281       43.914       37.626     4526.721     1928.420     1415.688        0.840        0.394       93.751       21.126        0.051      341.412       16.107      860.829
03/13/2014  14:45:00       20.521        3.497        9.360       69.548       34.908       31.810     4836.981     1218.566     1011.857        0.379        0.353       20.817       16.643        0.639      341.362       16.021      860.820
03/13/2014  14:46:00       12.116       15.735       12.837       31.557       27.091       17.846      995.821      733.902      318.466        0.130        0.102       19.859        9.547        0.231      341.602       16.429      860.790
03/13/2014  14:47:00       -9.556       84.161       -5.292       32.559       30.282       19.662     1060.102      917.018      386.597        0.478        0.118       84.702       13.193        0.024      341.439       16.153      860.770
03/13/2014  14:48:00       35.811       62.459        6.267       51.384       40.563       28.117     2640.314     1645.347      790.552        0.515        0.254       71.997       26.896        0.140      341.810       16.782      860.748
03/13/2014  14:49:00       83.601       79.491       18.761       56.456       41.470       49.831     3187.267     1719.768     2483.167        1.052        0.370      115.360       33.650        0.085      341.350       16.003      860.734
03/13/2014  14:50:00       60.317       99.179       -0.926       46.151       58.676       36.093     2129.937     3442.866     1302.706        1.017        0.344      116.080       34.227        0.087      341.169       15.694      860.728
03/13/2014  14:51:00       45.887       42.857       25.542       48.787       67.112       39.020     2380.157     4503.972     1522.541        0.650        0.420       62.788       29.277        0.217      341.525       16.298      860.702
03/13/2014  14:52:00       66.766       24.837       56.585       66.480      125.939       69.208     4419.569    15860.615     4789.812        1.667        1.253       71.236       71.739        1.014      341.460       16.188      860.696
03/13/2014  14:53:00       30.277       55.062       -5.591       19.242       24.463       25.594      370.258      598.422      655.069        0.280        0.081       62.837       10.260        0.027      341.172       15.701      860.665
03/13/2014  14:54:00       50.449       30.847       11.536       20.907       20.704       17.496      437.116      428.642      306.109        0.240        0.059       59.132        5.258        0.008      341.168       15.695      860.649
03/13/2014  14:55:00       60.194       93.337       76.611       55.788       86.167       81.779     3112.345     7424.675     6687.777        1.771        0.861      111.063       79.518        0.513      341.532       16.308      860.626
03/13/2014  14:56:00      122.382      115.368      118.125       96.718       89.120       61.848     9354.341     7942.402     3825.153        3.168        1.056      168.188       60.386        0.129      341.562       16.358      860.603
03/13/2014  14:57:00       75.620       22.405       90.469       96.619       98.529       67.577     9335.184     9707.871     4566.718        1.900        1.180       78.870       59.637        0.572      341.955       17.026      860.577
03/13/2014  14:58:00      125.160       61.699       74.738       94.437      118.377       78.800     8918.326    14013.199     6209.474        2.709        1.457      139.541       74.468        0.285      341.464       16.194      860.576
03/13/2014  14:59:00       55.951      -83.794        9.738       53.941       87.581       35.511     2909.624     7670.366     1261.054        1.104        0.592      100.757       29.294        0.085      341.520       16.290      860.571
03/13/2014  15:00:00      162.110      137.703       37.136       75.221       52.863       54.801     5658.213     2794.511     3003.164        2.904        0.573      212.701       43.005        0.041      341.439       16.150      860.562
03/13/2014  15:01:00      178.433       93.490       41.806       48.057       51.177       44.669     2309.449     2619.129     1995.343        2.462        0.346      201.441       23.943        0.014      341.288       15.894      860.560
03/13/2014  15:02:00      130.010      100.281        4.752       68.661       55.038       47.214     4714.279     3029.190     2229.183        1.847        0.499      164.191       30.223        0.034      341.210       15.764      860.554
03/13/2014  15:03:00       74.899      128.839      -21.237       54.443       57.595       41.355     2964.079     3317.212     1710.269        1.532        0.400      149.028       28.487        0.037      341.392       16.071      860.547
03/13/2014  15:04:00       60.245       57.908        1.975       34.134       33.040       35.686     1165.111     1091.640     1273.460        0.526        0.177       83.563       25.244        0.091      341.529       16.304      860.541
03/13/2014  15:05:00       20.144       85.736       76.715       64.766       82.699       81.750     4194.658     6839.130     6682.996        1.568        0.886       88.071       65.523        0.554      341.893       16.921      860.534
03/13/2014  15:06:00       89.106       42.903       29.141       46.102       60.750       27.577     2125.357     3690.606      760.505        0.860        0.329       98.897       27.338        0.076      341.386       16.062      860.535
03/13/2014  15:07:00       46.687       63.516       83.369       80.996       68.576       52.655     6560.364     4702.644     2772.536        1.360        0.702       78.829       46.887        0.354      341.898       16.930      860.522
03/13/2014  15:08:00       68.290       82.143       79.627       70.222       48.677       65.573     4931.156     2369.444     4299.802        1.467        0.580      106.822       57.447        0.289      341.592       16.411      860.520
03/13/2014  15:09:00       39.014       21.951       14.706       40.223       37.242       20.944     1617.929     1386.955      438.642        0.283        0.172       44.765       18.276        0.167      341.688       16.574      860.514
03/13/2014  15:10:00       75.518       74.426       57.211       87.851       57.371       57.701     7717.782     3291.392     3329.374        1.442        0.717      106.029       55.113        0.270      341.889       16.914      860.496
03/13/2014  15:11:00      152.809      116.416       53.576      116.607       63.753       63.404    13597.221     4064.475     4020.034        3.072        1.084      192.102       68.911        0.129      341.665       16.534      860.495
03/13/2014  15:12:00      138.590       73.066       27.534       76.501       68.474       42.526     5852.450     4688.623     1808.429        1.882        0.617      156.671       22.811        0.021      341.368       16.031      860.495
03/13/2014  15:13:00      190.898       64.352       31.258      104.456       65.668       53.300    10911.016     4312.291     2840.903        2.981        0.903      201.453       24.656        0.015      341.637       16.485      860.485
03/13/2014  15:14:00       16.603       34.615       11.037       41.451       29.649       35.995     1718.173      879.070     1295.624        0.274        0.195       38.391       15.934        0.172      341.823       16.805      860.489
03/13/2014  15:15:00       45.062       27.959       27.385       49.829       46.680       30.589     2482.920     2179.032      935.670        0.458        0.280       53.031       12.178        0.053      341.647       16.505      860.489
03/13/2014  15:16:00       72.233       97.902      127.263       84.050       95.400       91.750     7064.376     9101.231     8418.147        2.779        1.229      121.665       77.975        0.411      341.590       16.407      860.463
03/13/2014  15:17:00       11.978       57.710      107.380       45.218       63.309       39.748     2044.649     4008.082     1579.874        1.132        0.382       58.939       29.434        0.249      341.772       16.717      860.465
03/13/2014  15:18:00       30.958       24.632       28.577       42.318       36.455       32.276     1790.808     1328.993     1041.759        0.327        0.208       39.561       24.940        0.397      341.739       16.662      860.490
03/13/2014  15:19:00       43.609       22.208       29.010       43.710       35.797       33.275     1910.521     1281.421     1107.209        0.377        0.215       48.938       24.390        0.248      341.870       16.884      860.478
03/13/2014  15:20:00       30.153       53.376       49.050       63.532       42.486       51.236     4036.315     1805.063     2625.176        0.731        0.423       61.304       47.122        0.591      342.221       17.478      860.464
03/13/2014  15:21:00      134.497       96.639        9.449       59.470       30.057       38.139     3536.728      903.407     1454.594        1.671        0.295      165.615       23.561        0.020      341.598       16.421      860.460
03/13/2014  15:22:00      125.780       95.463       18.782       90.654       67.478       54.657     8218.216     4553.312     2987.389        2.052        0.788      157.904       30.923        0.038      341.854       16.854      860.448
03/13/2014  15:23:00       91.091       66.880       35.588      102.527       66.209       55.846    10511.707     4383.637     3118.734        1.602        0.901      113.007       60.273        0.284      342.148       17.354      860.431
03/13/2014  15:24:00      102.074      103.979      113.994       98.839      100.875       80.938     9769.149    10175.800     6551.021        3.036        1.325      145.708       69.218        0.226      341.992       17.088      860.397
03/13/2014  15:25:00      101.106      195.925      187.365      103.773       98.779       74.201    10768.861     9757.231     5505.829        5.487        1.302      220.474       67.530        0.094      341.554       16.343      860.366
03/13/2014  15:26:00      182.991      153.859      134.334      120.082      109.163       96.412    14419.789    11916.668     9295.186        5.541        1.782      239.078       75.274        0.099      341.450       16.167      860.342
03/13/2014  15:27:00      101.413      178.040      163.977      120.139      101.304       87.619    14433.485    10262.418     7677.166        5.062        1.619      204.897       77.336        0.142      341.665       16.533      860.330
03/13/2014  15:28:00      159.462      110.830       79.600      108.499       90.620       82.755    11771.995     8211.999     6848.396        3.543        1.342      194.194       66.238        0.116      341.689       16.572      860.365
03/13/2014  15:29:00      151.233       98.711       61.488      112.594       86.560       73.386    12677.407     7492.715     5385.464        3.097        1.278      180.597       69.600        0.149      341.742       16.664      860.371
03/13/2014  15:30:00      112.645      106.667      108.137       82.144       83.701       84.308     6747.700     7005.879     7107.903        2.831        1.043      155.134       62.056        0.160      341.674       16.548      860.358
03/13/2014  15:31:00      139.491       88.570       50.824       94.845       80.711       68.140     8995.619     6514.234     4643.080        2.502        1.008      165.235       56.754        0.118      341.543       16.326      860.388
03/13/2014  15:32:00       89.149       71.498       25.245       80.819       55.046       50.958     6531.711     3030.012     2596.761        1.293        0.608      114.278       52.399        0.210      341.888       16.912      860.386
03/13/2014  15:33:00       27.746       40.140       37.285       54.741       45.006       48.816     2996.525     2025.579     2382.974        0.559        0.370       48.796       33.636        0.475      342.201       17.445      860.390
03/13/2014  15:34:00       46.934       29.627        5.718       59.099       41.842       33.789     3492.695     1750.726     1141.663        0.475        0.319       55.503       18.877        0.116      341.810       16.781      860.398
03/13/2014  15:35:00       19.268       70.867      -11.883       39.361       33.798       26.241     1549.316     1142.286      688.603        0.446        0.169       73.440       18.851        0.066      341.554       16.348      860.393
03/13/2014  15:36:00       18.141       44.284      -10.289       43.994       34.815       17.440     1935.512     1212.059      304.143        0.292        0.173       47.856       17.106        0.128      341.562       16.360      860.382
03/13/2014  15:37:00       -7.204       59.086      -11.477       26.905       24.446       19.114      723.879      597.589      365.328        0.268        0.084       59.524       16.990        0.081      341.760       16.697      860.378
03/13/2014  15:38:00      -97.762       -5.162       -1.524       45.359       39.259       22.447     2057.441     1541.295      503.851        0.684        0.205       97.898       22.450        0.053      341.973       17.059      860.389
03/13/2014  15:39:00     -117.106      -58.979        6.690       61.436       48.512       37.409     3774.355     2353.446     1399.444        1.238        0.376      131.120       20.218        0.024      342.085       17.248      860.388
03/13/2014  15:40:00      -99.159       11.385        1.059       36.906       42.765       28.963     1362.033     1828.876      838.829        0.700        0.201       99.811       21.165        0.045      342.076       17.233      860.396
03/13/2014  15:41:00      -30.430       10.734       -0.982       25.285       25.065       22.798      639.354      628.230      519.760        0.141        0.089       32.267       13.577        0.177      341.937       16.998      860.401
03/13/2014  15:42:00      -82.502      -39.880        4.096       57.014       39.721       28.212     3250.588     1577.734      795.944        0.702        0.281       91.635       30.246        0.109      342.037       17.167      860.399
03/13/2014  15:43:00      -71.644      -38.707       -0.953       47.667       44.019       29.627     2272.133     1937.678      877.736        0.586        0.254       81.431       28.487        0.122      341.865       16.875      860.387
03/13/2014  15:44:00      -39.225      -48.807        9.681       59.164       54.915       32.845     3500.326     3015.610     1078.769        0.580        0.380       62.616       33.193        0.281      342.071       17.224      860.377
03/13/2014  15:45:00      -69.243      -63.138       17.732       95.213       54.210       36.079     9065.503     2938.743     1301.671        1.120        0.665       93.707       41.691        0.198      341.966       17.047      860.363
03/13/2014  15:46:00      -38.109      -19.784       16.206       62.298       43.521       32.646     3881.002     1894.115     1065.777        0.447        0.342       42.938       32.305        0.566      342.134       17.332      860.343
03/13/2014  15:47:00      -78.760      -70.131       11.014       88.307       43.923       40.551     7798.114     1929.214     1644.375        1.130        0.569      105.459       50.697        0.231      341.850       16.848      860.334
03/13/2014  15:48:00      -65.880      -39.848        9.004       78.525       43.762       35.477     6166.245     1915.151     1258.587        0.767        0.467       76.994       21.293        0.076      341.916       16.960      860.309
03/13/2014  15:49:00     -118.800      -31.086        0.072       54.111       43.457       33.245     2928.049     1888.535     1105.255        1.050        0.296      122.800       31.551        0.066      341.887       16.913      860.299
03/13/2014  15:50:00      -82.767      -95.373        5.098       65.061       79.884       40.651     4232.969     6381.501     1652.542        1.412        0.613      126.280       45.062        0.127      341.774       16.719      860.289
03/13/2014  15:51:00     -159.760     -111.719       -5.682      100.240       72.618       47.185    10048.119     5273.315     2226.431        2.779        0.877      194.947       55.221        0.080      341.773       16.715      860.279
03/13/2014  15:52:00     -138.131     -111.239       -7.932       92.984       49.254       40.899     8645.975     2425.932     1672.729        2.213        0.637      177.354       39.774        0.050      341.745       16.669      860.271
03/13/2014  15:53:00     -103.681      -86.400       -5.519       65.128       39.941       28.095     4241.704     1595.273      789.349        1.243        0.331      134.962       34.609        0.066      341.728       16.641      860.277
03/13/2014  15:54:00      -21.071      -37.485        7.228       55.049       44.029       29.341     3030.387     1938.561      860.888        0.386        0.291       43.001       26.142        0.370      341.988       17.084      860.267
03/13/2014  15:55:00      -29.579      -55.655       12.091       67.113       52.877       28.356     4504.190     2795.969      804.079        0.611        0.405       63.027       29.563        0.220      341.932       16.988      860.259
03/13/2014  15:56:00       -2.626      -54.344        7.182       49.955       48.598       34.624     2495.530     2361.738     1198.803        0.453        0.303       54.408       27.341        0.253      342.213       17.465      860.257
03/13/2014  15:57:00       -2.741      -93.755        8.822       45.456       57.520       35.176     2066.266     3308.509     1237.380        0.774        0.331       93.795       30.385        0.105      342.283       17.585      860.239
03/13/2014  15:58:00       18.058        7.798       17.960       48.893       59.377       37.213     2390.548     3525.641     1384.795        0.400        0.365       19.670       34.268        3.035      341.996       17.097      860.226
03/13/2014  15:59:00      -39.182      -15.650       -7.774       46.312       23.371       27.008     2144.781      546.204      729.413        0.263        0.171       42.192       29.840        0.500      342.161       17.378      860.219
03/13/2014  16:00:00      -17.249       45.631        7.007       34.375       21.780       28.013     1181.615      474.352      784.711        0.243        0.122       48.783       15.794        0.105      342.157       17.370      860.229
03/13/2014  16:01:00       14.762       33.594       23.887       51.237       42.670       47.558     2625.196     1820.734     2261.798        0.431        0.335       36.694       25.597        0.487      342.235       17.502      860.233
03/13/2014  16:02:00      -14.429       33.832       65.269       33.152       49.216       27.811     1099.044     2422.188      773.442        0.495        0.215       36.780       18.000        0.240      342.499       17.952      860.228
03/13/2014  16:03:00       -1.330       13.401       31.666       47.574       35.343       42.972     2263.271     1249.161     1846.597        0.327        0.268       13.467       31.870        5.600      342.359       17.713      860.232
03/13/2014  16:04:00       -7.736       16.793      -12.289       55.570      110.401       40.223     3088.011    12188.326     1617.901        0.869        0.845       18.489       52.668        8.114      342.098       17.271      860.231
03/13/2014  16:05:00      -20.372       78.780       23.135       71.899       59.142       58.031     5169.484     3497.793     3367.614        0.959        0.602       81.371       48.964        0.362      342.088       17.253      860.228
03/13/2014  16:06:00       74.683       59.839       61.655       84.209       52.686       52.532     7091.220     2775.826     2759.641        1.279        0.631       95.699       48.121        0.253      341.827       16.809      860.215
03/13/2014  16:07:00      234.558      140.255       21.729       72.876       60.920       66.849     5310.973     3711.250     4468.770        4.432        0.675      273.293       21.099        0.006      341.610       16.438      860.198
03/13/2014  16:08:00      178.543      120.959       70.822       97.901       75.121       68.925     9584.561     5643.188     4750.689        3.575        0.999      215.659       66.811        0.096      341.649       16.504      860.186
03/13/2014  16:09:00      144.377       91.885       57.485       89.196       55.450       51.624     7955.921     3074.758     2665.007        2.314        0.685      171.136       43.616        0.065      341.747       16.672      860.178
03/13/2014  16:10:00       22.009      123.328        8.926       34.445       41.487       49.662     1186.476     1721.154     2466.312        1.057        0.269      125.276       29.820        0.057      341.920       16.968      860.178
03/13/2014  16:11:00      -44.134      131.699      -20.979       41.293       61.913       27.643     1705.142     3833.184      764.137        1.302        0.315      138.897       33.364        0.058      341.906       16.942      860.170
03/13/2014  16:12:00      -30.267      106.697      -21.356       28.324       69.204       23.572      802.262     4789.221      555.645        0.945        0.307      110.907       29.355        0.070      341.751       16.682      860.169
03/13/2014  16:13:00        4.554       76.837       -1.954       19.682       36.388       21.842      387.372     1324.082      477.079        0.406        0.109       76.971       17.938        0.054      341.954       17.026      860.172
03/13/2014  16:14:00        2.483      126.153       -5.954       38.690       88.871       33.010     1496.918     7897.986     1089.636        1.322        0.524      126.178       39.861        0.100      341.971       17.054      860.160
03/13/2014  16:15:00      183.896      119.443       48.342       68.121       59.760       60.056     4640.479     3571.314     3606.693        3.112        0.591      219.282       34.754        0.025      341.865       16.870      860.139
03/13/2014  16:16:00      115.096      101.530       44.700       50.410       55.808       53.591     2541.168     3114.503     2871.965        1.704        0.426      153.478       35.143        0.052      341.861       16.867      860.132
03/13/2014  16:17:00       84.520       97.580       -5.129       74.227       53.315       44.072     5509.636     2842.484     1942.347        1.349        0.515      129.095       32.354        0.063      342.117       17.302      860.129
03/13/2014  16:18:00        6.921      155.796      -30.407       27.900       43.580       19.311      778.386     1899.250      372.897        1.415        0.153      155.950       21.588        0.019      341.951       17.020      860.131
03/13/2014  16:19:00       38.800       49.701       -4.095       31.643       63.010       22.771     1001.309     3970.210      518.510        0.474        0.275       63.053       17.956        0.081      342.027       17.149      860.133
03/13/2014  16:20:00        7.184       70.241       -5.717       22.911       44.149       26.413      524.903     1949.174      697.640        0.409        0.159       70.608       30.220        0.183      341.987       17.080      860.125
03/13/2014  16:21:00       31.560       56.689        3.200       47.150       48.361       28.728     2223.139     2338.759      825.275        0.480        0.269       64.882       24.264        0.140      342.095       17.266      860.128
03/13/2014  16:22:00       33.380      132.265      -13.899       70.386       98.894       40.824     4954.175     9780.010     1666.594        1.760        0.820      136.412       53.336        0.153      341.879       16.896      860.126
03/13/2014  16:23:00      -60.756      179.873      -18.848       47.897       54.366       40.105     2294.110     2955.685     1608.425        2.163        0.343      189.857       33.866        0.032      341.898       16.930      860.119
03/13/2014  16:24:00      -24.261      124.131      -14.705       29.453       37.405       21.220      867.470     1399.105      450.284        0.946        0.136      126.480       18.790        0.022      341.988       17.085      860.117
03/13/2014  16:25:00      -15.171       62.485        1.950       23.079       40.587       24.486      532.631     1647.329      599.547        0.346        0.139       64.300       21.172        0.108      342.124       17.314      860.112
03/13/2014  16:26:00      -41.805       47.855       -6.377       28.289       32.186       22.684      800.283     1035.938      514.562        0.321        0.118       63.544       17.308        0.074      342.194       17.434      860.094
03/13/2014  16:27:00       27.650       32.706        5.764       31.370       25.357       25.676      984.077      642.967      659.235        0.208        0.114       42.828       19.845        0.215      342.099       17.272      860.068
03/13/2014  16:28:00      -39.208      101.375      -12.256       34.239       56.716       31.418     1172.342     3216.676      987.105        0.867        0.269      108.693       27.043        0.062      342.091       17.258      860.049
03/13/2014  16:29:00       42.503       10.196       42.661       45.270       49.977       28.439     2049.358     2497.654      808.776        0.454        0.268       43.709       30.906        0.500      342.246       17.523      860.032
03/13/2014  16:30:00       44.253       45.347       34.691       47.231       43.702       39.858     2230.726     1909.882     1588.647        0.547        0.286       63.362       33.421        0.278      342.189       17.424      860.002
03/13/2014  16:31:00       42.940       82.431       96.813       76.640       67.964       56.166     5873.676     4619.089     3154.665        1.583        0.682       92.945       57.937        0.389      342.147       17.351      859.968
03/13/2014  16:32:00        9.317       61.235       84.885       39.962       51.867       40.807     1596.984     2690.164     1665.235        0.850        0.298       61.940       37.269        0.362      342.191       17.428      859.949
03/13/2014  16:33:00      133.425      111.154       10.103       56.417       38.457       32.074     3182.823     1478.917     1028.740        1.797        0.285      173.658       10.635        0.004      341.792       16.749      859.943
03/13/2014  16:34:00      104.072       55.603       17.785       74.739       43.184       34.570     5585.970     1864.885     1195.095        1.144        0.432      117.994       17.008        0.021      341.963       17.041      859.917
03/13/2014  16:35:00       59.622      137.730      -27.782       33.834       49.317       27.996     1144.726     2432.170      783.801        1.383        0.218      150.081       19.845        0.017      341.785       16.738      859.915
03/13/2014  16:36:00       -3.451       76.411      -18.328       20.602       34.408       16.144      424.444     1183.886      260.625        0.403        0.093       76.489       14.957        0.038      341.826       16.809      859.903
03/13/2014  16:37:00       -7.151       54.260       -7.344       86.335       55.882       34.066     7453.802     3122.778     1160.470        0.739        0.587       54.729       24.724        0.204      342.118       17.304      859.887
03/13/2014  16:38:00       42.415      180.563      -17.278       57.005       62.506       46.114     3249.611     3906.963     2126.461        2.199        0.464      185.477       44.136        0.057      341.875       16.889      859.881
03/13/2014  16:39:00       25.185      125.591      -18.111       43.375       51.204       35.251     1881.357     2621.887     1242.619        1.124        0.287      128.092       30.056        0.055      341.855       16.857      859.898
03/13/2014  16:40:00       23.733       38.762       -5.526       30.498       33.501       22.591      930.122     1122.305      510.336        0.233        0.128       45.451       20.515        0.204      341.878       16.895      859.876
03/13/2014  16:41:00      -99.037      145.874      -39.474       39.451       36.914       26.302     1556.348     1362.630      691.819        1.813        0.181      176.316       21.668        0.015      341.961       17.038      859.869
03/13/2014  16:42:00      -56.720       65.841      -21.465       59.585       71.758       24.131     3550.354     5149.208      582.321        0.865        0.464       86.903       37.021        0.181      341.873       16.888      859.863
03/13/2014  16:43:00     -111.285      108.585      -13.265       73.826       54.999       39.851     5450.312     3024.913     1588.099        1.721        0.503      155.484       42.953        0.076      342.116       17.299      859.842
03/13/2014  16:44:00     -113.937       83.362      -23.567       43.461       53.139       30.145     1888.896     2823.764      908.702        1.305        0.281      141.177       25.613        0.033      342.431       17.836      859.825
03/13/2014  16:45:00      -29.080       44.581        1.293       56.373       67.354       36.020     3177.910     4536.598     1297.446        0.592        0.451       53.228       38.368        0.520      342.274       17.569      859.822
03/13/2014  16:46:00     -140.514      139.362      -37.540       41.302       58.641       26.972     1705.864     3438.722      727.467        2.322        0.294      197.904       23.807        0.014      342.052       17.189      859.813
03/13/2014  16:47:00     -142.922      116.511      -34.657       47.812       40.139       35.499     2285.955     1611.130     1260.213        2.018        0.258      184.395       33.760        0.034      342.092       17.256      859.812
03/13/2014  16:48:00      -67.546      150.977      -10.506       39.011       44.518       28.052     1521.832     1981.826      786.898        1.588        0.215      165.398       22.845        0.019      342.011       17.120      859.810
03/13/2014  16:49:00     -117.192       89.286      -30.814       34.474       35.792       21.772     1188.475     1281.056      474.024        1.280        0.147      147.329       16.689        0.013      342.020       17.136      859.805
03/13/2014  16:50:00      -56.499       95.842      -12.936       35.897       71.804       25.618     1288.591     5155.779      656.301        0.982        0.355      111.256       27.460        0.061      342.097       17.269      859.804
03/13/2014  16:51:00      -61.697       49.437       -5.593       48.475       41.874       25.182     2349.845     1753.472      634.141        0.551        0.237       79.060       13.548        0.029      342.252       17.532      859.801
03/13/2014  16:52:00      -40.126      161.289      -21.518       26.212       49.971       23.631      687.059     2497.140      558.446        1.591        0.187      166.206       25.059        0.023      341.983       17.076      859.811
03/13/2014  16:53:00       -2.204       91.002      -10.075       28.223       55.983       22.693      796.551     3134.123      514.960        0.642        0.222       91.029       29.776        0.107      342.104       17.280      859.807
03/13/2014  16:54:00       26.672      130.757      -24.316       38.783       69.592       25.436     1504.156     4843.097      647.015        1.270        0.350      133.449       27.236        0.042      341.957       17.031      859.805
03/13/2014  16:55:00      -85.129       80.514      -23.626       79.362       50.508       27.675     6298.379     2551.030      765.897        1.195        0.481      117.173       31.237        0.071      342.288       17.593      859.793
03/13/2014  16:56:00      -76.566      123.461      -16.411       38.225       43.052       33.762     1461.156     1853.442     1139.857        1.291        0.223      145.275       32.242        0.049      342.171       17.393      859.808
03/13/2014  16:57:00      -41.796      170.142      -19.404       22.924       45.887       21.317      525.509     2105.596      454.428        1.708        0.154      175.200       18.601        0.011      341.970       17.052      859.804
03/13/2014  16:58:00      -57.263      161.734      -24.604       29.009       47.586       20.022      841.520     2264.389      400.900        1.677        0.175      171.572       21.339        0.015      341.952       17.021      859.806
03/13/2014  16:59:00      -43.305       94.247       -5.778       25.939       48.610       25.726      672.850     2362.913      661.803        0.724        0.185      103.720       18.601        0.032      342.269       17.559      859.803
03/13/2014  17:00:00      -58.561      118.017      -11.123       30.947       60.219       31.747      957.720     3626.328     1007.878        1.154        0.280      131.748       24.073        0.033      342.186       17.421      859.796
03/13/2014  17:01:00      -49.160       26.110       19.945       39.885       46.898       25.393     1590.830     2199.397      644.790        0.396        0.222       55.664       15.774        0.080      342.652       18.211      859.789
03/13/2014  17:02:00     -129.970      -70.457        3.632       92.602       71.192       32.688     8575.125     5068.309     1068.532        1.829        0.736      147.839       39.529        0.071      342.342       17.682      859.774
03/13/2014  17:03:00     -162.733      -23.562      -30.160       23.373       49.572       25.590      546.304     2457.387      654.853        1.580        0.183      164.430        9.239        0.003      342.074       17.229      859.780
03/13/2014  17:04:00      -97.315      -12.331      -19.487       48.550       25.297       18.440     2357.080      639.954      340.050        0.667        0.167       98.093       23.089        0.055      341.980       17.069      859.766
03/13/2014  17:05:00        4.963       52.815      -18.579       21.881       36.307       20.088      478.762     1318.232      403.542        0.268        0.110       53.048       13.828        0.068      341.997       17.098      859.761
03/13/2014  17:06:00       -2.374      115.095      -34.882       24.890       29.665       23.603      619.498      880.035      557.087        0.826        0.103      115.120       18.530        0.026      341.932       16.988      859.770
03/13/2014  17:07:00      -64.893       34.074       -6.220       35.790       30.553       24.894     1280.896      933.475      619.729        0.412        0.142       73.295        9.590        0.017      342.037       17.167      859.761
03/13/2014  17:08:00      -71.373       77.925       -7.485       29.829       38.714       24.073      889.796     1498.801      579.496        0.709        0.148      105.671       22.506        0.045      342.264       17.551      859.751
03/13/2014  17:09:00     -102.254       57.437      -15.742       35.758       37.965       17.796     1278.631     1441.328      316.700        0.852        0.152      117.282       17.468        0.022      342.003       17.110      859.765
03/13/2014  17:10:00      -19.405       47.691       -0.614       36.220       30.527       24.482     1311.860      931.878      599.346        0.275        0.142       51.488       16.329        0.101      342.050       17.189      859.758
03/13/2014  17:11:00       61.155       61.988       -7.853       24.465       33.934       23.440      598.531     1151.533      549.433        0.497        0.115       87.077       21.557        0.061      341.884       16.908      859.750
03/13/2014  17:12:00       77.943       17.475        0.511       16.894       25.252       16.038      285.415      637.666      257.203        0.378        0.059       79.878        8.201        0.011      341.891       16.919      859.725
03/13/2014  17:13:00       52.689       -0.116        8.719       35.622       35.219       29.755     1268.947     1240.356      885.379        0.312        0.170       52.689       25.873        0.241      341.969       17.050      859.711
03/13/2014  17:14:00       73.955       51.281       18.207       27.556       27.961       33.929      759.345      781.804     1151.155        0.556        0.135       89.994       21.129        0.055      341.918       16.965      859.696
03/13/2014  17:15:00        7.107       59.172      -11.103       30.271       31.652       18.349      916.348     1001.823      336.682        0.296        0.113       59.597       12.471        0.044      341.955       17.028      859.678
03/13/2014  17:16:00      -12.036       39.774        8.444       24.168       44.913       21.028      584.089     2017.133      442.157        0.242        0.152       41.556        6.155        0.022      342.113       17.295      859.675
03/13/2014  17:17:00       56.137      -96.650      -10.531       33.047       42.951       20.846     1092.106     1844.757      434.539        0.799        0.169      111.770       13.677        0.015      342.116       17.301      859.681
03/13/2014  17:18:00       34.634      -67.803       -1.785       28.042       50.454       29.879      786.370     2545.575      892.753        0.501        0.211       76.137       30.767        0.163      342.347       17.692      859.684
03/13/2014  17:19:00       17.400      -80.985      -11.401       40.049       48.521       29.438     1603.888     2354.289      866.580        0.591        0.241       82.834       30.205        0.133      342.392       17.771      859.685
03/13/2014  17:20:00      -13.274      -42.854       29.953       43.784       33.878       34.777     1917.027     1147.686     1209.439        0.359        0.214       44.862       22.706        0.256      342.716       18.320      859.697
03/13/2014  17:21:00      -80.009      -46.526      -15.574       36.989       26.799       20.585     1368.222      718.209      423.724        0.566        0.126       92.553       13.859        0.022      342.219       17.475      859.691
03/13/2014  17:22:00      -32.784      -34.054        2.169       38.689       56.777       32.271     1496.853     3223.671     1041.407        0.400        0.288       47.270       29.634        0.393      342.301       17.615      859.694
03/13/2014  17:23:00      -17.963      -80.905       -5.485       41.727       41.834       27.430     1741.106     1750.120      752.396        0.557        0.212       82.875       25.975        0.098      342.135       17.333      859.684
03/13/2014  17:24:00        8.757       -2.848       11.239       25.056       14.354       18.122      627.786      206.051      328.396        0.069        0.058        9.209       10.756        1.364      342.280       17.579      859.674
03/13/2014  17:25:00      -21.465        8.640       20.865       64.294       30.195       25.948     4133.713      911.711      673.315        0.334        0.286       23.139       21.591        0.871      342.435       17.842      859.665
03/13/2014  17:26:00       -4.153        1.934       12.363       33.658       18.758       19.119     1132.860      351.865      365.549        0.101        0.093        4.581       20.682       20.379      342.442       17.855      859.656
03/13/2014  17:27:00      -36.084       -1.082        7.484       27.325       14.201       17.779      746.632      201.667      316.104        0.131        0.063       36.100        8.484        0.055      342.394       17.773      859.654
03/13/2014  17:28:00      -87.286      -10.351       -9.444       31.778       30.181       20.274     1009.840      910.876      411.029        0.507        0.117       87.897       14.225        0.026      342.222       17.481      859.649
03/13/2014  17:29:00      -36.727      -40.587       12.443       66.353       27.958       23.307     4402.679      781.668      543.195        0.444        0.286       54.737       28.614        0.273      342.432       17.838      859.638
03/13/2014  17:30:00      -20.621      -28.291       11.954       52.027       42.374       27.609     2706.823     1795.533      762.249        0.332        0.263       35.009       32.791        0.877      342.553       18.044      859.630
03/13/2014  17:31:00     -135.739       66.797      -24.228       37.720       27.272       19.193     1422.766      743.774      368.389        1.300        0.127      151.284       14.255        0.009      342.297       17.608      859.633
03/13/2014  17:32:00      -42.245       85.335      -12.612       40.537       28.482       21.260     1643.285      811.252      451.998        0.607        0.145       95.219       18.959        0.040      342.142       17.346      859.634
03/13/2014  17:33:00      -91.031      -19.698      -13.600       42.367       36.016       24.640     1794.933     1297.126      607.112        0.628        0.185       93.138       23.863        0.066      342.284       17.586      859.628
03/13/2014  17:34:00       12.323       -7.459       10.269       27.687       24.959       21.116      766.560      622.950      445.889        0.107        0.092       14.405       19.289        1.793      342.358       17.712      859.622
03/13/2014  17:35:00       17.722       89.094       -8.619       37.703       72.365       34.909     1421.525     5236.757     1218.667        0.810        0.394       90.840       45.946        0.256      342.184       17.417      859.616
03/13/2014  17:36:00        9.220       84.823      -17.205       57.433       60.663       26.995     3298.560     3679.973      728.716        0.764        0.385       85.323       25.457        0.089      342.094       17.264      859.609
03/13/2014  17:37:00       -9.469      111.338      -16.622       24.209       49.584       19.255      586.080     2458.534      370.752        0.809        0.171      111.740       25.446        0.052      342.034       17.163      859.613
03/13/2014  17:38:00       -4.847      130.671      -22.435       16.712       24.154       12.912      279.290      583.420      166.730        0.932        0.051      130.761        6.573        0.003      342.039       17.169      859.608
03/13/2014  17:39:00      -20.813       88.826      -20.158       16.284       19.253       10.310      265.160      370.677      106.299        0.474        0.037       91.232        8.327        0.008      342.035       17.163      859.607
03/13/2014  17:40:00      -15.207       77.535      -15.187       25.437       18.948       11.851      647.017      359.034      140.446        0.381        0.057       79.013        9.460        0.014      342.120       17.308      859.608
03/13/2014  17:41:00      -15.904       62.956      -15.326       21.556       20.018        9.854      464.681      400.733       97.099        0.271        0.048       64.934        9.344        0.021      342.128       17.322      859.610
03/13/2014  17:42:00      -26.478       83.866       -2.766       31.811       25.682       17.427     1011.910      659.549      303.696        0.486        0.099       87.947        8.789        0.010      342.312       17.631      859.615
03/13/2014  17:43:00        6.351       55.283      -15.924       27.596       33.875       16.329      761.558     1147.498      266.644        0.276        0.109       55.647       10.782        0.038      342.217       17.471      859.615
03/13/2014  17:44:00        7.994       18.334       -4.443       25.964       16.240       14.229      674.134      263.742      202.457        0.078        0.057       20.001       16.437        0.675      342.201       17.445      859.606
03/13/2014  17:45:00      -22.238       61.234       -2.698       19.037       31.462       20.789      362.389      989.858      432.177        0.302        0.089       65.147       17.120        0.069      342.345       17.690      859.606
03/13/2014  17:46:00       -3.938       47.549      -20.504       13.303       37.250       14.072      176.980     1387.588      198.035        0.223        0.088       47.711        4.352        0.008      342.142       17.344      859.599
03/13/2014  17:47:00       -1.767       23.334      -19.901       18.544       30.037        9.815      343.890      902.236       96.325        0.114        0.067       23.401       11.052        0.223      342.235       17.504      859.599
03/13/2014  17:48:00       12.411      -19.007        8.129       12.533       12.115       12.304      157.076      146.773      151.380        0.052        0.023       22.700        8.676        0.146      342.355       17.708      859.596
03/13/2014  17:49:00      -24.690        4.995       -8.709       13.597       12.349       16.866      184.888      152.495      284.458        0.067        0.031       25.190       12.023        0.228      342.383       17.756      859.596
03/13/2014  17:50:00       -4.280      -34.068      -13.945       19.392       24.131       16.164      376.044      582.304      261.287        0.130        0.061       34.335        6.320        0.034      342.246       17.521      859.601
03/13/2014  17:51:00        6.937      -19.995        7.957       24.742       24.145       13.590      612.155      582.961      184.688        0.095        0.069       21.164       10.124        0.229      342.260       17.545      859.598
03/13/2014  17:52:00       -8.291      -28.945        3.184       58.954       42.195       27.596     3475.607     1780.435      761.521        0.347        0.301       30.109       21.693        0.519      342.280       17.578      859.604
03/13/2014  17:53:00      -45.400      -43.936        1.944       27.610       41.939       25.523      762.328     1758.888      651.435        0.358        0.159       63.179       23.811        0.142      342.203       17.447      859.599
03/13/2014  17:54:00       -4.097      -89.088       -1.455       29.873       38.825       24.333      892.387     1507.401      592.089        0.547        0.150       89.182        8.084        0.008      342.268       17.558      859.608
03/13/2014  17:55:00      -43.443      -35.066       -7.720       49.303       18.372       18.456     2430.740      337.518      340.631        0.314        0.155       55.829       19.327        0.120      342.214       17.468      859.609
03/13/2014  17:56:00      -78.018      -19.231        0.334       39.754       29.520       21.226     1580.380      871.403      450.534        0.468        0.145       80.353       20.043        0.062      342.369       17.731      859.630
03/13/2014  17:57:00      -31.401      -66.978       -0.491       26.785       32.447       21.019      717.456     1052.835      441.794        0.384        0.111       73.974       19.379        0.069      342.318       17.643      859.636
03/13/2014  17:58:00        4.408      -44.930        8.596       25.272       18.419       20.801      638.671      339.250      432.690        0.176        0.071       45.145       11.473        0.065      342.537       18.015      859.640
03/13/2014  17:59:00     -124.087      -68.306        3.780       69.887       51.209       31.373     4884.152     2622.365      984.273        1.428        0.425      141.645       32.113        0.051      342.303       17.617      859.639
03/13/2014  18:00:00     -139.902      -44.967      -12.580       45.914       46.883       26.781     2108.090     2197.988      717.198        1.339        0.251      146.951       16.357        0.012      342.279       17.578      859.653
03/13/2014  18:01:00      -63.295      -35.909       -3.976       85.989       27.271       25.021     7394.139      743.722      626.052        0.704        0.438       72.772       35.183        0.234      342.374       17.739      859.657
03/13/2014  18:02:00      -62.602      -22.052        2.955       53.785       22.056       21.380     2892.818      486.487      457.088        0.412        0.192       66.373       28.205        0.181      342.281       17.580      859.661
03/13/2014  18:03:00      -47.668      -37.106        0.460       58.998       21.560       22.675     3480.775      464.813      514.177        0.405        0.223       60.408       25.885        0.184      342.281       17.581      859.671
03/13/2014  18:04:00      -14.627      -10.928        9.837       31.284       53.737       23.034      978.685     2887.633      530.561        0.241        0.220       18.258       29.049        2.531      342.284       17.585      859.669
03/13/2014  18:05:00      -29.982       47.145       -3.072       28.164       28.860       16.655      793.201      832.885      277.394        0.252        0.095       55.871       17.599        0.099      342.282       17.584      859.669
03/13/2014  18:06:00      -89.331       86.108      -23.567       22.182       28.367       17.707      492.040      804.714      313.532        0.878        0.081      124.075       11.172        0.008      342.160       17.376      859.670
03/13/2014  18:07:00      -36.778       -8.851      -12.152       19.625       23.013       15.489      385.127      529.616      239.918        0.137        0.058       37.828       11.450        0.092      342.219       17.475      859.677
03/13/2014  18:08:00       11.597       25.477       -0.535       14.322       25.918       12.210      205.132      671.724      149.075        0.090        0.051       27.992        6.314        0.051      342.251       17.530      859.674
03/13/2014  18:09:00       -7.656       88.725      -14.250       13.193       24.660       10.032      174.056      608.098      100.632        0.451        0.044       89.055        9.427        0.011      342.152       17.362      859.660
03/13/2014  18:10:00      -55.281       86.558      -22.308       26.141       24.044       13.124      683.337      578.126      172.239        0.624        0.072      102.705        9.376        0.008      342.088       17.253      859.670
03/13/2014  18:11:00      -19.091       38.642      -12.453       39.155       22.512        9.194     1533.119      506.810       84.525        0.207        0.106       43.101       11.336        0.069      342.171       17.394      859.660
03/13/2014  18:12:00       50.261       19.562        0.757       12.385       17.589        9.454      153.388      309.366       89.372        0.173        0.028       53.934        5.307        0.010      342.040       17.171      859.656
03/13/2014  18:13:00       39.856        5.553       -1.050       11.281       10.478        6.277      127.270      109.789       39.398        0.095        0.014       40.240        4.218        0.011      342.038       17.170      859.656
03/13/2014  18:14:00       -0.879       60.534       -9.115       21.995       27.023       11.794      483.781      730.255      139.091        0.255        0.068       60.541       11.843        0.038      342.090       17.256      859.652
03/13/2014  18:15:00      -17.170       69.494        0.761       29.635       27.295       20.032      878.258      745.007      401.295        0.357        0.101       71.583       17.625        0.061      342.152       17.361      859.658
03/13/2014  18:16:00       29.975       50.749        0.491       44.838       38.486       28.826     2010.409     1481.210      830.930        0.390        0.216       58.941       26.742        0.206      341.912       16.956      859.661
03/13/2014  18:17:00      101.441       71.653        4.439       34.158       32.883       31.741     1166.772     1081.301     1007.509        0.935        0.163      124.195       18.776        0.023      341.936       16.995      859.661
03/13/2014  18:18:00       51.911       34.209        2.685       49.323       25.384       21.181     2432.790      644.323      448.651        0.370        0.176       62.169       13.406        0.046      341.920       16.968      859.665
03/13/2014  18:19:00       71.166      113.836      -14.176       37.770       76.886       28.482     1426.566     5911.507      811.208        1.319        0.407      134.251       33.662        0.063      341.872       16.886      859.663
03/13/2014  18:20:00       34.370      151.540      -20.132       34.658       90.770       35.129     1201.173     8239.155     1234.013        1.761        0.534      155.389       47.326        0.093      341.903       16.937      859.677
03/13/2014  18:21:00       75.298       73.499        1.852       59.105       43.741       30.400     3493.404     1913.266      924.175        0.870        0.317      105.223       19.341        0.034      341.854       16.854      859.684
03/13/2014  18:22:00      126.583       90.808        7.758       50.239       52.025       32.720     2523.983     2706.572     1070.598        1.531        0.315      155.787       25.199        0.026      341.796       16.757      859.691
03/13/2014  18:23:00      115.945       49.084       18.072       68.508       44.691       39.319     4693.357     1997.286     1545.978        1.221        0.412      125.906       34.060        0.073      341.784       16.736      859.711
03/13/2014  18:24:00       99.958       63.560        9.807       54.808       33.704       29.313     3003.872     1135.937      859.248        0.956        0.250      118.455       24.144        0.042      341.739       16.662      859.726
03/13/2014  18:25:00       25.076       63.113        3.377       24.342       27.046       22.196      592.544      731.463      492.683        0.322        0.091       67.913       15.377        0.051      341.817       16.792      859.734
03/13/2014  18:26:00       47.821       52.707       -1.397       27.695       26.637       22.443      766.998      709.515      503.669        0.352        0.099       71.168       17.824        0.063      341.868       16.879      859.762
03/13/2014  18:27:00      108.615       83.991       20.374       44.332       42.008       31.802     1965.286     1764.711     1011.392        1.200        0.237      137.302       16.290        0.014      341.799       16.763      859.767
03/13/2014  18:28:00       70.084       60.275        5.706       47.154       38.222       33.231     2223.545     1460.896     1104.310        0.668        0.239       92.439       12.850        0.019      341.812       16.784      859.778
03/13/2014  18:29:00       76.086       78.570        1.887       43.959       44.428       33.774     1932.370     1973.845     1140.685        0.851        0.252      109.373       28.222        0.067      341.792       16.749      859.783
03/13/2014  18:30:00       75.160       39.904       13.642       44.735       35.832       28.460     2001.264     1283.945      809.972        0.576        0.205       85.096       13.693        0.026      341.776       16.723      859.788
03/13/2014  18:31:00       42.958       37.232       -2.675       21.098       29.512       22.594      445.112      870.944      510.475        0.253        0.091       56.847       15.462        0.074      341.807       16.775      859.800
03/13/2014  18:32:00       57.906       54.062       12.481       34.037       29.050       25.335     1158.510      843.891      641.856        0.454        0.132       79.220       15.046        0.036      341.847       16.843      859.797
03/13/2014  18:33:00       88.142       39.427       10.979       30.242       20.986       19.361      914.564      440.420      374.836        0.559        0.086       96.558       15.883        0.027      341.838       16.827      859.805
03/13/2014  18:34:00       64.555       32.133       13.503       26.209       25.897       16.233      686.888      670.669      263.519        0.350        0.081       72.110       14.453        0.040      341.831       16.817      859.818
03/13/2014  18:35:00       86.158       50.937        0.988       22.990       23.991       15.256      528.543      575.557      232.738        0.568        0.067      100.089        4.562        0.002      341.846       16.843      859.825
03/13/2014  18:36:00       68.214       31.066        2.030       20.123       19.355       14.996      404.938      374.625      224.871        0.331        0.050       74.955        3.819        0.003      341.815       16.791      859.834
03/13/2014  18:37:00       61.853       35.665       -0.965       32.536       25.535       14.890     1058.599      652.012      221.719        0.352        0.097       71.399        8.331        0.014      341.775       16.720      859.839
03/13/2014  18:38:00       57.315       43.924        0.256       23.714       22.270       19.122      562.362      495.933      365.655        0.332        0.071       72.210       13.857        0.037      341.771       16.715      859.849
03/13/2014  18:39:00       41.994       19.261        5.386       23.955       17.715       15.901      573.851      313.839      252.846        0.165        0.057       46.201       16.088        0.121      341.698       16.591      859.852
03/13/2014  18:40:00       31.366       32.127        1.755       19.017       24.086       15.121      361.662      580.134      228.637        0.159        0.059       44.899       14.835        0.109      341.728       16.642      859.866
03/13/2014  18:41:00       22.235       38.232       -2.876       16.904       19.969       15.040      285.744      398.755      226.187        0.144        0.046       44.228        9.624        0.047      341.732       16.651      859.874
03/13/2014  18:42:00       41.765       46.236       -0.679       29.313       22.515       17.268      859.253      506.923      298.195        0.277        0.083       62.306        5.961        0.009      341.741       16.664      859.871
03/13/2014  18:43:00       51.271       49.268       -3.620       26.427       25.606       24.770      698.364      655.649      613.560        0.352        0.098       71.106       18.121        0.065      341.640       16.494      859.884
03/13/2014  18:44:00       30.383       28.020        0.463       32.915       27.904       21.325     1083.413      778.619      454.765        0.201        0.116       41.331       16.012        0.150      341.648       16.508      859.880
03/13/2014  18:45:00       76.514       86.314        2.307       41.884       35.107       33.473     1754.296     1232.529     1120.473        0.871        0.205      115.345       23.498        0.042      341.704       16.602      859.880
03/13/2014  18:46:00       42.541       40.428       -4.356       25.467       27.505       21.707      648.560      756.500      471.175        0.267        0.094       58.687       16.834        0.082      341.604       16.432      859.885
03/13/2014  18:47:00       46.612       79.147       -9.974       37.567       46.078       27.503     1411.298     2123.155      756.425        0.641        0.215       91.853       24.106        0.069      341.651       16.513      859.882
03/13/2014  18:48:00       55.292       53.527       -1.013       39.800       31.797       25.566     1584.056     1011.065      653.614        0.459        0.162       76.957       20.363        0.070      341.626       16.470      859.898
03/13/2014  18:49:00       26.180       53.658      -11.389       21.108       26.544       16.164      445.565      704.569      261.266        0.255        0.071       59.704       17.131        0.082      341.587       16.402      859.899
03/13/2014  18:50:00       19.868       52.118      -12.001       24.552       29.405       17.262      602.793      864.675      297.970        0.251        0.088       55.776       14.703        0.069      341.611       16.444      859.899
03/13/2014  18:51:00       30.868       73.730      -16.153       20.118       27.530       15.655      404.726      757.907      245.090        0.403        0.070       79.931       11.164        0.020      341.584       16.399      859.915
03/13/2014  18:52:00       13.618       87.901      -22.456       22.609       17.092       10.874      511.147      292.149      118.242        0.467        0.046       88.950        9.423        0.011      341.619       16.458      859.916
03/13/2014  18:53:00        9.515       55.272       -9.140       17.622       32.527       18.685      310.540     1058.023      349.117        0.247        0.086       56.085       14.883        0.070      341.536       16.315      859.935
03/13/2014  18:54:00       26.126       96.947      -21.051       27.431       45.594       18.651      752.469     2078.774      347.876        0.685        0.159      100.406       21.966        0.048      341.542       16.328      859.943
03/13/2014  18:55:00       28.905       99.347      -17.445       25.399       51.505       22.735      645.104     2652.715      516.900        0.741        0.191      103.467       28.342        0.075      341.492       16.241      859.952
03/13/2014  18:56:00       16.625      128.652      -24.472       21.599       20.512       12.287      466.496      420.751      150.958        0.923        0.052      129.722       10.987        0.007      341.507       16.266      859.964
03/13/2014  18:57:00       24.199      111.491      -17.783       22.942       43.575       15.144      526.327     1898.807      229.341        0.799        0.133      114.087       17.917        0.025      341.448       16.168      859.966
03/13/2014  18:58:00       49.877      117.065      -14.506       37.619       67.987       29.930     1415.184     4622.225      895.832        1.167        0.347      127.247       31.819        0.063      341.435       16.144      859.965
03/13/2014  18:59:00       39.787       87.672      -10.104       33.769       41.437       24.166     1140.329     1717.051      583.998        0.641        0.172       96.278       25.986        0.073      341.392       16.072      859.964
03/13/2014  19:00:00       30.818       79.572      -15.027       31.460       46.156       25.240      989.720     2130.370      637.048        0.563        0.188       85.331       21.153        0.061      341.377       16.048      859.962
03/13/2014  19:01:00       15.011       72.094      -10.334       28.137       34.426       19.775      791.697     1185.175      391.052        0.395        0.118       73.640       17.311        0.055      341.357       16.014      859.969
03/13/2014  19:02:00      -10.896      139.816      -26.940       20.918       18.454        8.882      437.575      340.554       78.898        1.062        0.043      140.240        6.576        0.002      341.439       16.153      859.973
03/13/2014  19:03:00      -24.957       98.708      -21.062       29.129       29.351       14.524      848.520      861.453      210.941        0.636        0.096      101.814       14.354        0.020      341.422       16.121      859.983
03/13/2014  19:04:00      -23.751       94.604      -21.294       24.523       33.600       12.884      601.370     1128.956      165.990        0.593        0.095       97.540       13.421        0.019      341.428       16.132      859.980
03/13/2014  19:05:00       -6.400      112.537      -25.986       18.642       17.476       11.354      347.510      305.421      128.922        0.708        0.039      112.719        8.740        0.006      341.354       16.007      859.980
03/13/2014  19:06:00      -19.525       83.194      -20.781       18.529       18.884       10.858      343.335      356.623      117.907        0.428        0.041       85.455        8.073        0.009      341.405       16.093      859.982
03/13/2014  19:07:00       -6.800       67.419      -17.885       16.254       20.798        9.719      264.190      432.573       94.468        0.285        0.040       67.761        8.899        0.017      341.298       15.913      859.986
03/13/2014  19:08:00      -34.068       22.223       -6.722       26.507       29.637       17.941      702.646      878.352      321.889        0.180        0.095       40.676       13.916        0.117      341.228       15.794      859.987
03/13/2014  19:09:00      -22.776       -9.900       -3.393       23.017       13.233        8.700      529.790      175.101       75.695        0.070        0.039       24.835        8.701        0.123      341.117       15.607      859.989
03/13/2014  19:10:00      -60.257      -11.823       -8.956       13.837       11.832        8.871      191.470      140.006       78.690        0.213        0.021       61.406        5.836        0.009      341.049       15.492      859.990
03/13/2014  19:11:00      -98.812      -11.255      -14.944       16.397        9.485       13.040      268.862       89.966      170.047        0.532        0.026       99.451       11.629        0.014      340.861       15.173      859.999
03/13/2014  19:12:00     -103.441      -18.101      -15.575       29.292       19.393       16.298      858.040      376.074      265.631        0.638        0.075      105.012       16.060        0.023      340.840       15.138      859.998
03/13/2014  19:13:00     -111.874      -23.637      -13.093       41.698       29.321       17.093     1738.696      859.696      292.170        0.807        0.145      114.344       20.402        0.032      340.788       15.050      860.005
03/13/2014  19:14:00     -127.458      -37.551      -11.238       43.383       23.423       15.677     1882.075      548.626      245.772        1.023        0.134      132.875       14.209        0.011      340.627       14.778      860.011
03/13/2014  19:15:00     -134.866      -22.255       -6.293       42.552       31.863       21.945     1810.670     1015.266      481.571        1.101        0.165      136.690       23.315        0.029      340.464       14.501      860.020
03/13/2014  19:16:00     -102.962       -0.672       -2.759       70.862       29.615       26.904     5021.410      877.062      723.833        0.861        0.331      102.965       27.893        0.073      340.534       14.621      860.034
03/13/2014  19:17:00     -163.806       -8.733      -21.956       56.199       41.101       29.268     3158.314     1689.319      856.632        1.655        0.285      164.038       24.479        0.022      340.423       14.433      860.042
03/13/2014  19:18:00     -202.964       -7.975      -25.151       46.322       32.170       23.444     2145.748     1034.933      549.604        2.281        0.187      203.120       18.117        0.008      340.221       14.089      860.063
03/13/2014  19:19:00     -196.270      -32.568      -19.463       43.434       56.300       27.120     1886.518     3169.651      735.492        2.288        0.290      198.954       11.660        0.003      339.981       13.684      860.073
03/13/2014  19:20:00     -157.846      -20.901      -17.748       45.203       43.494       32.155     2043.273     1891.743     1033.938        1.532        0.248      159.224       18.529        0.014      339.900       13.550      860.088
03/13/2014  19:21:00     -115.845      -22.583        0.466       54.207       48.069       31.332     2938.382     2310.643      981.694        1.008        0.312      118.026       31.900        0.073      339.851       13.467      860.095
03/13/2014  19:22:00     -139.008      -24.276      -13.712       47.414       52.921       30.840     2248.103     2800.580      951.117        1.305        0.300      141.111       26.954        0.036      340.019       13.751      860.107
03/13/2014  19:23:00     -141.558      -17.525      -11.180       47.210       44.195       32.833     2228.795     1953.235     1077.974        1.286        0.263      142.639       29.193        0.042      339.930       13.601      860.128
03/13/2014  19:24:00     -201.613      -15.138      -25.633       63.379       42.554       30.042     4016.894     1810.835      902.497        2.413        0.337      202.180       32.230        0.025      339.893       13.536      860.152
03/13/2014  19:25:00      -98.001      -15.633       -9.722       69.179       39.807       31.847     4785.727     1584.613     1014.237        0.866        0.369       99.240       37.975        0.146      339.931       13.602      860.184
03/13/2014  19:26:00      -96.112        2.661       -1.843       32.735       33.996       25.703     1071.597     1155.753      660.634        0.607        0.144       96.149       17.617        0.034      340.016       13.745      860.199
03/13/2014  19:27:00     -104.594      -25.483      -10.795       49.527       40.614       31.632     2452.904     1649.503     1000.595        0.840        0.255      107.653       23.356        0.047      339.848       13.462      860.227
03/13/2014  19:28:00      -89.815      -54.229       -8.711       39.112       39.622       24.330     1529.712     1569.930      591.955        0.739        0.185      104.916       18.672        0.032      339.842       13.453      860.238
03/13/2014  19:29:00      -83.920      -42.373       -7.156       31.169       22.377       23.108      971.481      500.712      533.968        0.545        0.100       94.011        8.885        0.009      339.997       13.714      860.247
03/13/2014  19:30:00      -71.392      -13.059        2.300       46.785       52.537       27.991     2188.852     2760.089      783.511        0.550        0.287       72.576       27.163        0.140      339.955       13.643      860.271
03/13/2014  19:31:00     -133.889      125.315      -35.975       65.027       51.621       30.174     4228.575     2664.758      910.458        2.136        0.390      183.385       22.521        0.015      340.205       14.064      860.280
03/13/2014  19:32:00     -157.252       92.615      -32.029       39.976       71.511       39.653     1598.065     5113.776     1572.380        2.131        0.414      182.498       29.588        0.026      340.157       13.983      860.282
03/13/2014  19:33:00     -157.503      136.772      -31.088       67.037       77.132       44.667     4493.942     5949.414     1995.138        2.846        0.622      208.600       49.656        0.057      340.367       14.336      860.298
03/13/2014  19:34:00     -117.971       82.934      -14.247       72.936       56.094       39.828     5319.683     3146.565     1586.292        1.552        0.503      144.206       35.564        0.061      340.309       14.239      860.297
03/13/2014  19:35:00     -145.916      155.764      -32.100       61.927       54.469       36.626     3834.998     2966.837     1341.434        2.736        0.407      213.434       31.787        0.022      340.334       14.280      860.318
03/13/2014  19:36:00     -152.194      154.939      -25.713       66.383       83.258       46.257     4406.705     6931.836     2139.687        3.065        0.674      217.184       39.069        0.032      340.245       14.129      860.324
03/13/2014  19:37:00     -135.230       39.690      -18.506       61.688       54.787       39.297     3805.456     3001.584     1544.285        1.428        0.418      140.934       27.783        0.039      340.225       14.098      860.321
03/13/2014  19:38:00     -154.540       24.056      -12.326       87.448       57.690       37.222     7647.195     3328.117     1385.498        1.848        0.618      156.401       36.137        0.053      340.114       13.909      860.328
03/13/2014  19:39:00     -101.553       63.554       -5.077       53.530       78.101       38.766     2865.500     6099.691     1502.802        1.242        0.523      119.801       28.925        0.058      340.087       13.864      860.338
03/13/2014  19:40:00     -152.659       63.469      -20.895       53.468       50.871       31.444     2858.856     2587.835      988.700        1.710        0.322      165.327       22.987        0.019      340.144       13.961      860.350
03/13/2014  19:41:00      -73.944       46.629       -6.767       44.447       45.283       31.955     1975.569     2050.583     1021.141        0.637        0.252       87.418       15.945        0.033      340.083       13.859      860.364
03/13/2014  19:42:00     -171.499      138.338      -49.342       73.193       77.202       42.911     5357.255     5960.128     1841.312        3.207        0.658      220.339       41.108        0.035      339.973       13.671      860.365
03/13/2014  19:43:00      -98.069       59.395      -12.654       49.972       76.757       39.797     2497.241     5891.712     1583.771        1.164        0.499      114.653       29.559        0.066      339.922       13.587      860.361
03/13/2014  19:44:00      -62.886       33.624        1.588       50.672       75.136       36.922     2567.637     5645.376     1363.255        0.733        0.479       71.311       33.727        0.224      339.906       13.562      860.352
03/13/2014  19:45:00     -162.220      120.304      -25.102       63.594       69.125       38.400     4044.234     4778.261     1474.536        2.586        0.515      201.962       29.735        0.022      339.997       13.710      860.351
03/13/2014  19:46:00     -119.890       29.458      -24.124       62.759       45.814       31.676     3938.653     2098.956     1003.384        1.143        0.352      123.456       24.182        0.038      339.982       13.688      860.350
03/13/2014  19:47:00     -108.776       12.103      -19.282       43.120       37.585       30.932     1859.293     1412.595      956.812        0.829        0.211      109.447       23.688        0.047      339.922       13.586      860.360
03/13/2014  19:48:00     -156.543      -12.039      -30.538       58.758       55.370       32.464     3452.445     3065.826     1053.890        1.658        0.379      157.005       12.358        0.006      339.863       13.488      860.377
03/13/2014  19:49:00     -137.370      -48.613      -29.598       70.731       64.584       38.989     5002.920     4171.085     1520.151        1.640        0.535      145.718       27.703        0.036      339.801       13.383      860.393
03/13/2014  19:50:00     -140.402      -27.168       -5.026       62.484       68.351       41.062     3904.199     4671.842     1686.117        1.537        0.513      143.006       38.594        0.073      339.757       13.308      860.395
03/13/2014  19:51:00     -163.055      -68.109       -4.595       87.492       78.603       42.575     7654.911     6178.488     1812.618        2.344        0.782      176.708       49.748        0.079      339.674       13.167      860.406
03/13/2014  19:52:00     -240.541      -62.356      -24.835       54.701       56.416       36.114     2992.152     3182.815     1304.200        3.492        0.374      248.493       31.367        0.016      339.586       13.018      860.412
03/13/2014  19:53:00     -133.541      -29.898        8.214       69.504       62.869       40.280     4830.737     3952.453     1622.472        1.460        0.520      136.847       37.176        0.074      339.555       12.968      860.421
03/13/2014  19:54:00     -161.261       21.456      -25.163       49.451       63.383       38.001     2445.408     4017.388     1444.060        1.750        0.395      162.682       30.728        0.036      339.605       13.053      860.440
03/13/2014  19:55:00     -141.757      -23.892      -20.768       61.172       76.398       40.231     3742.034     5836.699     1618.558        1.615        0.560      143.757       22.163        0.024      339.634       13.102      860.464
03/13/2014  19:56:00     -123.893       99.581      -34.330       60.554       79.558       38.375     3666.729     6329.547     1472.648        1.895        0.573      158.952       36.896        0.054      339.672       13.164      860.498
03/13/2014  19:57:00     -143.539       -8.959      -12.651       83.048       75.890       38.083     6896.982     5759.238     1450.309        1.747        0.705      143.818       30.818        0.046      339.685       13.187      860.505
03/13/2014  19:58:00     -132.845       70.189      -16.319       72.809       65.514       44.707     5301.128     4292.076     1998.754        1.721        0.580      150.248       36.639        0.059      339.694       13.202      860.520
03/13/2014  19:59:00      -66.776       21.994       -7.152       62.889       61.940       36.409     3955.010     3836.605     1325.619        0.705        0.456       70.305       30.656        0.190      339.626       13.090      860.527
03/13/2014  20:00:00     -140.990       68.204       -3.333       96.293      103.627       64.626     9272.395    10738.544     4176.517        2.436        1.209      156.620       57.021        0.133      339.658       13.141      860.540
03/13/2014  20:01:00     -182.461      179.925      -37.548       65.132       81.256       53.971     4242.165     6602.490     2912.852        4.041        0.688      256.252       48.920        0.036      339.645       13.115      860.548
03/13/2014  20:02:00     -176.639      208.541      -31.574       86.837      100.013       58.255     7540.694    10002.538     3393.590        4.831        1.047      273.296       52.568        0.037      339.723       13.249      860.543
03/13/2014  20:03:00     -156.312      111.166      -11.954       76.556       78.463       48.651     5860.805     6156.401     2366.906        2.566        0.719      191.811       41.242        0.046      339.883       13.519      860.535
03/13/2014  20:04:00     -184.367      133.322      -35.081       74.490       92.066       44.628     5548.793     8476.217     1991.698        3.450        0.801      227.521       45.458        0.040      339.808       13.392      860.528
03/13/2014  20:05:00     -216.391      139.087      -45.386       65.101       75.627       38.072     4238.129     5719.508     1449.489        3.982        0.570      257.236       26.209        0.010      339.776       13.338      860.537
03/13/2014  20:06:00     -205.120      109.739      -31.583      113.192       79.423       50.303    12812.317     6308.029     2530.346        3.838        1.083      232.631       56.633        0.059      339.748       13.294      860.543
03/13/2014  20:07:00     -139.517       85.758      -10.162       67.278       92.595       47.599     4526.350     8573.793     2265.701        2.114        0.768      163.766       47.217        0.083      339.709       13.226      860.544
03/13/2014  20:08:00     -120.750       97.077      -21.451       70.543       72.694       45.538     4976.379     5284.385     2073.723        1.840        0.617      154.934       44.234        0.082      339.669       13.159      860.532
03/13/2014  20:09:00     -112.391       79.141       -2.895       78.327       74.955       50.453     6135.072     5618.285     2545.455        1.660        0.715      137.459       41.628        0.092      339.681       13.180      860.533
03/13/2014  20:10:00     -150.657      109.233      -30.616       72.709       71.069       40.595     5286.592     5050.816     1647.976        2.377        0.599      186.090       45.622        0.060      339.705       13.221      860.528
03/13/2014  20:11:00     -135.772       73.335      -27.771       50.191       95.718       33.074     2519.152     9161.872     1093.891        1.868        0.639      154.312       40.017        0.067      339.743       13.284      860.532
03/13/2014  20:12:00     -148.484      115.538      -28.644       61.452       71.874       44.833     3776.366     5165.862     2009.971        2.358        0.548      188.139       36.081        0.037      339.731       13.263      860.554
03/13/2014  20:13:00     -136.713       28.938      -20.586       82.354       60.560       34.397     6782.261     3667.486     1183.144        1.579        0.582      139.742       34.995        0.063      339.708       13.226      860.569
03/13/2014  20:14:00     -140.167        8.041      -17.089       75.711       54.417       42.615     5732.218     2961.181     1816.049        1.525        0.525      140.398       43.687        0.097      339.687       13.190      860.585
03/13/2014  20:15:00      -97.455       46.011      -17.324       45.733       66.562       38.326     2091.496     4430.519     1468.875        0.995        0.400      107.770       25.558        0.056      339.740       13.280      860.607
03/13/2014  20:16:00     -107.918      -18.078      -24.555       26.967       25.012       19.532      727.195      625.593      381.489        0.715        0.087      109.422        8.919        0.007      339.688       13.193      860.620
03/13/2014  20:17:00     -134.314      -11.477       -6.666       49.917       53.301       37.930     2491.711     2840.943     1438.667        1.249        0.339      134.804       30.728        0.052      339.785       13.355      860.645
03/13/2014  20:18:00     -151.200       16.290      -18.960       47.340       91.583       36.253     2241.085     8387.524     1314.255        1.771        0.597      152.075       35.087        0.053      339.628       13.091      860.660
03/13/2014  20:19:00     -203.277      -75.747      -15.302       84.646       57.739       44.272     7164.976     3333.780     1960.028        2.987        0.623      216.931       41.387        0.036      339.563       12.979      860.681
03/13/2014  20:20:00     -109.987      -69.071       14.922       93.974       71.036       42.485     8831.109     5046.058     1805.015        1.638        0.784      129.876       38.000        0.086      339.431       12.757      860.686
03/13/2014  20:21:00     -187.014     -131.724      -14.075       75.097       67.423       46.710     5639.486     4545.880     2181.794        3.244        0.618      228.748       29.555        0.017      339.385       12.678      860.697
03/13/2014  20:22:00     -198.491     -115.816        7.485      102.649       64.659       46.529    10536.807     4180.805     2164.963        3.487        0.844      229.809       47.036        0.042      339.389       12.685      860.708
03/13/2014  20:23:00     -213.116     -105.931      -15.817      105.332       70.557       48.352    11094.815     4978.265     2337.942        3.765        0.921      237.991       52.724        0.049      339.484       12.844      860.700
03/13/2014  20:24:00     -190.459      -81.157       -4.788       76.278       46.236       33.587     5818.264     2137.737     1128.120        2.598        0.454      207.029       29.507        0.020      339.552       12.962      860.720
03/13/2014  20:25:00     -186.562      -73.176      -10.793       48.147       44.390       27.556     2318.089     1970.430      759.346        2.266        0.252      200.400       26.480        0.017      339.498       12.869      860.722
03/13/2014  20:26:00     -162.290     -102.339       -4.003       80.425       60.049       33.177     6468.120     3605.920     1100.746        2.400        0.559      191.863       31.592        0.027      339.589       13.023      860.727
03/13/2014  20:27:00     -145.433      -71.763        6.691       92.023       52.278       32.446     8468.320     2732.970     1052.727        1.930        0.613      162.175       33.671        0.043      339.564       12.982      860.742
03/13/2014  20:28:00     -118.574     -109.644       -9.087       97.754       70.884       56.170     9555.825     5024.536     3155.093        2.195        0.887      161.498       61.835        0.147      339.591       13.026      860.747
03/13/2014  20:29:00     -118.735      -43.787       -8.569       42.564       61.070       25.794     1811.716     3729.552      665.340        1.115        0.310      126.552       19.106        0.023      339.697       13.207      860.756
03/13/2014  20:30:00     -126.570        1.103       -4.208       56.766       46.415       24.314     3222.377     2154.317      591.148        1.100        0.298      126.575       24.480        0.037      339.746       13.290      860.763
03/13/2014  20:31:00     -171.375      -26.669      -15.975       47.697       37.472       25.836     2275.037     1404.148      667.507        1.734        0.217      173.437       26.019        0.023      339.727       13.258      860.785
03/13/2014  20:32:00     -176.360      -41.968      -10.186       61.072       72.017       33.209     3729.728     5186.454     1102.860        2.149        0.501      181.284       33.619        0.034      339.799       13.380      860.795
03/13/2014  20:33:00     -164.997        6.540      -13.945       54.402       40.194       31.243     2959.540     1615.539      976.110        1.651        0.278      165.127       30.853        0.035      340.519       14.594      860.799
03/13/2014  20:34:00     -133.804       89.291      -23.287       36.686       38.979       30.173     1345.874     1519.370      910.386        1.510        0.189      160.861       21.659        0.018      340.358       14.323      860.831
03/13/2014  20:35:00     -110.811       19.724      -17.985       38.926       44.118       22.422     1515.213     1946.384      502.765        0.848        0.198      112.552       17.081        0.023      340.462       14.500      860.844
03/13/2014  20:36:00     -181.068      -20.250      -14.401       69.632       61.843       31.953     4848.574     3824.543     1021.013        2.155        0.485      182.197       25.617        0.020      340.244       14.129      860.866
03/13/2014  20:37:00     -152.650       25.083       -0.075       82.054       46.721       32.762     6732.815     2182.811     1073.354        1.696        0.499      154.697       38.296        0.061      340.225       14.097      860.875
03/13/2014  20:38:00     -120.741       35.561      -17.659       67.552       78.054       36.725     4563.310     6092.356     1348.756        1.408        0.600      125.869       41.505        0.109      339.918       13.581      860.870
03/13/2014  20:39:00      -98.214       -4.618       -0.207       48.974       62.417       37.139     2398.497     3895.914     1379.286        0.867        0.384       98.323       31.118        0.100      339.904       13.556      860.861
03/13/2014  20:40:00      -58.551       15.772       -8.148       41.760       21.949       15.909     1743.870      481.744      253.092        0.311        0.124       60.638       15.201        0.063      339.915       13.576      860.854
03/13/2014  20:41:00      -97.548       70.977      -29.132       38.127       57.487       23.343     1453.675     3304.731      544.904        1.035        0.265      120.637       28.879        0.057      340.268       14.174      860.861
03/13/2014  20:42:00      -80.841       58.118      -16.897       35.060       26.233       16.844     1229.193      688.159      283.705        0.620        0.110       99.563       17.224        0.030      340.466       14.506      860.851
03/13/2014  20:43:00      -85.204       29.043      -12.276       27.271       25.695       13.837      743.710      660.236      191.457        0.492        0.080       90.018       12.192        0.018      340.471       14.516      860.843
03/13/2014  20:44:00     -132.941       -8.593       -5.936       54.135       26.958       23.096     2930.564      726.709      533.417        1.099        0.210      133.218       18.329        0.019      340.094       13.878      860.854
03/13/2014  20:45:00      -80.854       19.787       -7.240       63.562       24.834       29.946     4040.075      616.717      896.768        0.627        0.278       83.239       34.638        0.173      340.052       13.806      860.863
03/13/2014  20:46:00      -63.777       -9.354       -4.646       23.264       38.772       15.556      541.217     1503.252      241.992        0.323        0.114       64.459       10.399        0.026      340.087       13.866      860.863
03/13/2014  20:47:00      -46.889       64.796      -16.234       35.339       35.093       14.536     1248.848     1231.490      211.298        0.468        0.135       79.981       15.292        0.037      340.010       13.735      860.876
03/13/2014  20:48:00      -46.063      109.445      -21.087       27.734       35.458       22.691      769.192     1257.255      514.875        0.854        0.127      118.743       22.243        0.035      339.942       13.621      860.884
03/13/2014  20:49:00       11.450      133.453      -24.508       31.799       41.399       16.218     1011.148     1713.880      263.017        1.076        0.149      133.943       20.278        0.023      339.537       12.940      860.887
03/13/2014  20:50:00      -28.485      187.819      -35.663       39.402       42.541       15.717     1552.506     1809.755      247.031        2.048        0.180      189.967       14.464        0.006      339.430       12.756      860.907
03/13/2014  20:51:00        2.308      233.821      -43.728       24.200       28.249        8.933      585.628      797.986       79.805        2.903        0.073      233.833        6.903        0.001      339.443       12.774      860.923
03/13/2014  20:52:00      -32.021      234.803      -39.754       23.583       32.937       12.276      556.147     1084.832      150.708        2.976        0.090      236.976       12.104        0.003      339.389       12.685      860.936
03/13/2014  20:53:00      -45.814      229.304      -40.669       27.490       44.387       18.853      755.706     1970.200      355.444        2.971        0.154      233.836       18.562        0.006      339.397       12.698      860.944
03/13/2014  20:54:00      -35.669      231.328      -37.658       38.804       64.874       22.567     1505.777     4208.649      509.267        3.121        0.311      234.062       27.907        0.014      339.350       12.619      860.956
03/13/2014  20:55:00      -39.123      245.058      -40.514       36.387       70.198       25.922     1324.003     4927.755      671.966        3.507        0.346      248.161       32.595        0.017      339.311       12.553      860.979
03/13/2014  20:56:00      -54.268      312.464      -44.735       31.811       48.330       18.780     1011.912     2335.784      352.683        5.314        0.185      317.142       20.893        0.004      339.273       12.488      861.004
03/13/2014  20:57:00      -23.931      255.957      -43.917       38.983       47.135       25.716     1519.640     2221.740      661.297        3.621        0.220      257.073       19.550        0.006      339.322       12.570      861.009
03/13/2014  20:58:00      -15.447      258.233      -42.828       26.730       30.083       16.502      714.485      904.972      272.303        3.532        0.095      258.694       10.475        0.002      339.312       12.554      861.022
03/13/2014  20:59:00      -45.988      187.250      -30.285       45.231       43.215       22.422     2045.805     1867.536      502.750        2.125        0.221      192.815       18.122        0.009      339.289       12.517      861.044
03/13/2014  21:00:00      -89.648      100.411      -21.380       47.609       77.482       34.170     2266.623     6003.495     1167.573        1.401        0.472      134.607       40.259        0.089      339.405       12.714      861.053
03/13/2014  21:01:00      -67.006       81.020      -19.654       37.259       46.222       25.720     1388.232     2136.474      661.495        0.781        0.209      105.139       18.636        0.031      339.339       12.604      861.058
03/13/2014  21:02:00      -56.893       48.478       -4.802       29.886       36.529       24.683      893.165     1334.335      609.252        0.422        0.142       74.745       22.001        0.087      339.313       12.560      861.072
03/13/2014  21:03:00      -36.711       84.750      -13.870       37.527       35.977       20.142     1408.278     1294.360      405.691        0.591        0.155       92.360       14.652        0.025      339.299       12.536      861.081
03/13/2014  21:04:00      -45.590       48.201       -3.479       37.842       37.398       24.232     1432.047     1398.586      587.190        0.392        0.171       66.346       17.922        0.073      339.373       12.660      861.079
03/13/2014  21:05:00      -55.018       71.083      -12.823       30.613       32.541       18.011      937.175     1058.897      324.391        0.528        0.116       89.888       13.742        0.023      339.294       12.530      861.098
03/13/2014  21:06:00      -32.185       54.924      -14.824       25.830       24.907       15.652      667.203      620.350      244.979        0.290        0.077       63.659       13.845        0.047      339.384       12.681      861.120
03/13/2014  21:07:00      -54.358       64.098      -17.792       29.190       25.918       17.247      852.083      671.755      297.474        0.460        0.091       84.044       14.139        0.028      339.396       12.699      861.135
03/13/2014  21:08:00      -38.352       -1.040        4.696       14.645       26.737       12.044      214.469      714.851      145.069        0.128        0.054       38.366        5.688        0.022      339.399       12.704      861.163
03/13/2014  21:09:00      -73.369       40.026      -23.770       26.872       26.179       14.670      722.087      685.340      215.222        0.459        0.081       83.577       14.883        0.032      339.301       12.541      861.179
03/13/2014  21:10:00      -42.405       15.424       -7.540       15.128       31.329       19.821      228.843      981.491      392.855        0.185        0.080       45.123       15.942        0.125      339.317       12.567      861.187
03/13/2014  21:11:00       -6.752       -0.051        2.477       24.857       10.604       18.024      617.894      112.444      324.876        0.055        0.053        6.752       18.027        7.129      339.092       12.189      861.199
03/13/2014  21:12:00       19.614      -12.077        1.740        9.530       11.358        8.447       90.830      129.008       71.347        0.041        0.015       23.034        8.700        0.143      339.074       12.158      861.199
03/13/2014  21:13:00        1.766      -21.842        6.637       14.364       19.943       13.305      206.320      397.707      177.023        0.065        0.039       21.913       10.671        0.237      339.068       12.148      861.190
03/13/2014  21:14:00       13.415       14.786        6.136       18.139        7.342        8.244      329.021       53.912       67.962        0.044        0.023       19.964        5.910        0.088      339.070       12.150      861.197
03/13/2014  21:15:00      -39.989       -2.598      -12.918       25.642       11.686        9.193      657.491      136.572       84.515        0.133        0.044       40.073       11.014        0.076      339.213       12.392      861.210
03/13/2014  21:16:00     -103.703       -9.079       -6.719       20.166       16.938       10.463      406.656      286.895      109.475        0.584        0.040      104.100        9.088        0.008      339.091       12.187      861.221
03/13/2014  21:17:00      -92.914      -19.664       -4.647       24.808       19.193       15.439      615.417      368.382      238.357        0.513        0.061       94.972       10.867        0.013      339.151       12.287      861.226
03/13/2014  21:18:00      -91.343      -32.375       -0.540       18.014       16.156       10.460      324.494      261.003      109.420        0.504        0.035       96.911        8.440        0.008      339.014       12.058      861.249
03/13/2014  21:19:00      -72.859      -43.519       -5.511       29.040       13.671       12.342      843.336      186.901      152.329        0.421        0.059       84.866       14.045        0.027      338.925       11.909      861.249
03/13/2014  21:20:00      -88.348      -52.224       -4.612       22.027       14.322       14.742      485.184      205.116      217.330        0.573        0.045      102.629        9.447        0.008      338.794       11.688      861.249
03/13/2014  21:21:00      -81.777      -73.784       -1.162       60.762       51.131       26.013     3691.990     2614.421      676.656        0.956        0.349      110.143       33.736        0.094      338.832       11.753      861.268
03/13/2014  21:22:00     -150.753      -92.678       -3.178       43.711       50.323       30.079     1910.626     2532.422      904.740        1.834        0.267      176.962       22.501        0.016      338.920       11.900      861.275
03/13/2014  21:23:00     -135.636     -119.094      -11.652       33.390       37.225       24.733     1114.880     1385.715      611.708        1.791        0.156      180.501       18.183        0.010      338.961       11.969      861.275
03/13/2014  21:24:00      -98.535      -78.652       -4.566       29.761       34.434       21.238      885.702     1185.687      451.057        0.922        0.126      126.077       17.911        0.020      338.976       11.995      861.275
03/13/2014  21:25:00      -98.305      -44.025       -7.662       30.177       33.098       17.534      910.638     1095.474      307.432        0.699        0.116      107.713       14.400        0.018      339.045       12.109      861.284
03/13/2014  21:26:00      -66.324      -35.223       -1.343       24.647       20.474       15.150      607.477      419.179      229.512        0.345        0.063       75.097       13.983        0.035      338.977       11.994      861.286
03/13/2014  21:27:00      -46.480      -36.891        4.834       31.377       12.752       18.386      984.492      162.605      338.038        0.251        0.074       59.341       18.050        0.093      338.908       11.878      861.282
03/13/2014  21:28:00      -64.808      -68.065        5.041       47.416       36.529       27.643     2248.236     1334.388      764.118        0.660        0.217       93.984       28.913        0.095      339.022       12.071      861.280
03/13/2014  21:29:00     -166.606     -157.925       -1.421       85.721       55.683       50.368     7348.048     3100.615     2536.960        3.284        0.649      229.561       55.424        0.058      338.813       11.716      861.296
03/13/2014  21:30:00     -179.548     -125.859       -6.817       60.393       59.187       40.626     3647.333     3503.137     1650.473        2.846        0.440      219.267       24.967        0.013      338.718       11.555      861.306
03/13/2014  21:31:00     -170.133     -103.679       -1.176       85.319       51.873       38.605     7279.343     2690.767     1490.356        2.558        0.573      199.235       37.142        0.035      338.643       11.430      861.313
03/13/2014  21:32:00     -148.881      -59.067       -6.765       46.600       45.589       29.141     2171.604     2078.396      849.171        1.540        0.255      160.170       27.166        0.029      338.579       11.326      861.346
03/13/2014  21:33:00     -142.724      -15.438       -5.905       76.670       60.603       39.073     5878.322     3672.699     1526.693        1.586        0.554      143.557       45.067        0.099      338.383       10.997      861.359
03/13/2014  21:34:00     -127.134      -33.421       -4.691       47.378       46.431       23.617     2244.685     2155.867      557.765        1.113        0.248      131.453       22.268        0.029      338.243       10.763      861.360
03/13/2014  21:35:00      -68.790      -79.934        6.391       54.429       45.045       23.457     2962.510     2029.060      550.212        0.835        0.277      105.459       25.584        0.059      338.402       11.030      861.365
03/13/2014  21:36:00      -54.679     -145.880       -8.399       27.734       22.840       17.737      769.168      521.684      314.597        1.297        0.080      155.790       11.563        0.006      338.658       11.458      861.355
03/13/2014  21:37:00      -80.233      -93.229        1.244       37.071       49.110       22.627     1374.236     2411.787      511.961        0.971        0.215      123.000       17.793        0.021      338.583       11.333      861.344
03/13/2014  21:38:00      -67.829      -59.814       11.719       55.108       37.431       31.034     3036.937     1401.049      963.123        0.686        0.270       90.435       25.929        0.082      338.577       11.322      861.351
03/13/2014  21:39:00      -79.363      -50.751       10.837       68.523       41.415       27.925     4695.344     1715.186      779.782        0.809        0.360       94.203       33.870        0.129      338.561       11.294      861.358
03/13/2014  21:40:00     -126.939      -36.245       -2.585       39.345       37.285       24.456     1548.016     1390.178      598.106        1.048        0.177      132.012       20.333        0.024      338.362       10.962      861.377
03/13/2014  21:41:00      -84.824       20.337        0.238       66.448       43.584       34.600     4415.327     1899.607     1197.181        0.756        0.376       87.227       28.733        0.109      338.351       10.944      861.398
03/13/2014  21:42:00     -123.119       21.232       -8.899       51.418       46.851       32.098     2643.827     2194.986     1030.306        1.078        0.293      124.936       19.802        0.025      338.326       10.901      861.408
03/13/2014  21:43:00      -26.522      -36.479        8.456       34.205       30.016       19.070     1169.969      900.955      363.658        0.227        0.122       45.101       18.790        0.174      338.210       10.706      861.410
03/13/2014  21:44:00      -57.069      -47.159       -6.002       38.489       21.529       17.240     1481.415      463.519      297.235        0.388        0.112       74.033       10.184        0.019      338.311       10.877      861.403
03/13/2014  21:45:00      -78.223      -51.757        4.318       57.226       45.987       27.198     3274.805     2114.803      739.718        0.747        0.306       93.796       27.435        0.086      338.220       10.723      861.397
03/13/2014  21:46:00     -117.598      -33.194       -4.660       30.715       35.136       20.822      943.401     1234.556      433.566        0.878        0.131      122.193       12.312        0.010      338.222       10.726      861.406
03/13/2014  21:47:00     -103.209       -4.628       -5.518       34.841       34.705       22.022     1213.876     1204.439      484.972        0.680        0.145      103.313       20.877        0.041      338.359       10.956      861.404
03/13/2014  21:48:00     -100.851       12.456      -11.332       53.023       52.919       31.257     2811.466     2800.471      977.020        0.852        0.329      101.617       28.758        0.080      338.265       10.799      861.417
03/13/2014  21:49:00     -107.609      -13.816      -20.868       24.920       24.141       19.086      621.015      582.774      364.263        0.689        0.078      108.492        5.667        0.003      337.968       10.301      861.445
03/13/2014  21:50:00      -70.906      -28.291       -8.890       34.586       23.514       22.798     1196.159      552.916      519.764        0.409        0.113       76.342       19.810        0.067      338.152       10.610      861.463
03/13/2014  21:51:00      -75.658       -4.839       -4.228       26.226       36.040       26.944      687.787     1298.850      725.954        0.424        0.136       75.813       13.166        0.030      338.359       10.957      861.458
03/13/2014  21:52:00      -74.197      -35.177       -5.402       25.317       18.550       13.103      640.963      344.097      171.687        0.396        0.058       82.114       13.277        0.026      338.140       10.589      861.460
03/13/2014  21:53:00        1.899      -18.048        2.524       11.947       11.445        7.484      142.723      130.988       56.010        0.033        0.016       18.148        4.588        0.064      338.074       10.479      861.450
03/13/2014  21:54:00      -13.828       -4.340       -4.817       11.871        5.761        7.690      140.924       33.187       59.131        0.023        0.012       14.493        7.490        0.267      338.667       11.473      861.438
03/13/2014  21:55:00      -10.082       -4.676       -7.051        7.894        8.447        3.765       62.319       71.354       14.178        0.016        0.007       11.114        3.557        0.102      339.043       12.105      861.433
03/13/2014  21:56:00      -46.491      -35.370       -9.917       15.142        9.612        7.092      229.291       92.394       50.290        0.194        0.019       58.416        5.990        0.011      338.714       11.555      861.449
03/13/2014  21:57:00     -134.396      -66.253      -13.785       58.201       38.414       22.440     3387.325     1475.613      503.541        1.400        0.268      149.839       11.351        0.006      338.040       10.422      861.457
03/13/2014  21:58:00     -167.109      -88.162       -6.503       32.367       42.419       20.876     1047.599     1799.361      435.791        1.951        0.164      188.939       16.836        0.008      337.999       10.352      861.470
03/13/2014  21:59:00     -185.655      -63.268       -7.907       30.620       34.151       20.852      937.587     1166.307      434.823        2.054        0.127      196.139       15.087        0.006      337.948       10.266      861.481
03/13/2014  22:00:00     -146.914      -43.851       -8.120       26.182       26.671       19.454      685.482      711.362      378.456        1.267        0.089      153.319       11.049        0.005      338.004       10.362      861.497
03/13/2014  22:01:00     -134.264      -21.542       -8.017       34.558       29.173       20.222     1194.274      851.088      408.938        1.050        0.123      135.981       14.604        0.012      337.718        9.881      861.507
03/13/2014  22:02:00     -103.056      -43.806      -13.054       48.738       19.613       16.106     2375.389      384.688      259.407        0.786        0.151      111.980       16.117        0.021      337.680        9.818      861.527
03/13/2014  22:03:00      -13.298      -29.371       -1.170       32.445       21.624       20.345     1052.704      467.581      413.914        0.149        0.097       32.241       20.651        0.410      337.696        9.845      861.531
03/13/2014  22:04:00        6.211      -11.892        2.121       14.024       14.521       10.725      196.668      210.851      115.033        0.035        0.026       13.416       10.412        0.602      338.103       10.527      861.508
03/13/2014  22:05:00       31.969       55.882       60.900       26.980       28.412       18.264      727.921      807.239      333.573        0.486        0.093       64.381       15.215        0.056      337.838       10.083      861.473
03/13/2014  22:06:00       16.656       45.834       40.430       49.068       36.181       29.288     2407.649     1309.061      857.809        0.429        0.229       48.766       33.099        0.461      338.056       10.447      861.479
03/13/2014  22:07:00     -108.545       15.980      -11.259       65.865       48.531       31.288     4338.239     2355.222      978.956        0.992        0.384      109.715       30.681        0.078      338.118       10.553      861.503
03/13/2014  22:08:00      -75.476      -21.683      -16.143       58.933       38.046       23.988     3473.125     1447.465      575.427        0.596        0.275       78.529       17.461        0.049      337.765        9.959      861.529
03/13/2014  22:09:00       17.066       28.666        7.253       15.304       27.585       11.748      234.225      760.950      138.026        0.115        0.057       33.361       11.337        0.115      338.028       10.401      861.520
03/13/2014  22:10:00      -30.414       18.983       -3.168       20.098       28.353       20.738      403.918      803.910      430.073        0.147        0.082       35.852       12.815        0.128      338.276       10.817      861.535
03/13/2014  22:11:00     -142.523      -50.654      -25.148       62.279       30.309       17.005     3878.692      918.609      289.181        1.430        0.254      151.257       17.127        0.013      337.588        9.662      861.558
03/13/2014  22:12:00      -68.348       -0.442      -26.137       58.960       25.263       14.538     3476.263      638.219      211.357        0.484        0.216       68.349       13.271        0.038      337.687        9.830      861.580
03/13/2014  22:13:00       69.182       63.708        0.629       15.753       15.039       13.941      248.150      226.157      194.354        0.476        0.033       94.047        7.322        0.006      338.231       10.742      861.567
03/13/2014  22:14:00       69.796      -44.807       -5.065       20.668       60.963       16.185      427.183     3716.546      261.968        0.565        0.220       82.941       24.106        0.084      338.052       10.441      861.563
03/13/2014  22:15:00       15.131      -83.423      -19.838       38.353       28.416       14.804     1470.987      807.448      219.165        0.504        0.125       84.784        8.754        0.011      338.378       10.989      861.567
03/13/2014  22:16:00     -100.810       18.071       -5.953       70.913       39.268       31.727     5028.687     1541.976     1006.572        0.905        0.379      102.417       35.925        0.123      337.885       10.161      861.608
03/13/2014  22:17:00      -55.524       47.959      -10.958       52.188       50.544       30.845     2723.546     2554.671      951.392        0.587        0.311       73.369       26.283        0.128      338.341       10.927      861.627
03/13/2014  22:18:00        3.842      -47.979      -17.894       23.984       26.014       14.856      575.244      676.732      220.690        0.205        0.074       48.133       10.463        0.047      338.378       10.989      861.626
03/13/2014  22:19:00      -12.802      -69.269      -21.380       38.601       24.271       14.009     1490.013      589.105      196.247        0.385        0.114       70.442       16.209        0.053      338.058       10.452      861.649
03/13/2014  22:20:00        5.265      -14.561       10.561       27.111       22.154       17.321      734.981      490.805      300.007        0.094        0.076       15.484       18.378        1.409      338.189       10.672      861.671
03/13/2014  22:21:00       71.672      -53.293       11.565       47.307       47.329       30.443     2237.939     2239.990      926.775        0.676        0.270       89.315       28.924        0.105      338.245       10.765      861.684
03/13/2014  22:22:00      -19.042      -70.778       -5.112       44.475       46.853       37.716     1978.034     2195.220     1422.487        0.550        0.280       73.295       25.593        0.122      338.191       10.676      861.711
03/13/2014  22:23:00       -7.187      -42.158       16.584       41.612       27.194       18.993     1731.576      739.535      360.718        0.247        0.142       42.766       18.128        0.180      338.123       10.561      861.740
03/13/2014  22:24:00      -32.882      -56.585        0.609       50.071       37.058       32.544     2507.089     1373.271     1059.120        0.461        0.247       65.445       23.858        0.133      337.961       10.290      861.787
03/13/2014  22:25:00      -64.830      -72.675       -7.560       51.164       32.878       20.870     2617.758     1080.949      435.536        0.684        0.207       97.389       20.728        0.045      338.003       10.360      861.821
03/13/2014  22:26:00       28.164       48.293       69.467       38.080       74.514       50.518     1450.093     5552.320     2552.097        0.875        0.478       55.905       55.273        0.978      338.043       10.427      861.796
03/13/2014  22:27:00     -101.775      -59.407       25.691      117.834       89.796       57.923    13884.927     8063.239     3355.118        1.992        1.265      117.845       57.563        0.239      338.042       10.424      861.797
03/13/2014  22:28:00      -77.779      -77.177        8.052      103.739       63.184       23.461    10761.878     3992.188      550.403        1.368        0.765      109.571       27.694        0.064      337.836       10.080      861.858
03/13/2014  22:29:00       33.242      -23.958       42.516       53.811      111.158       68.334     2895.609    12356.100     4669.561        1.170        0.996       40.976       84.330        4.236      337.891       10.172      861.796
03/13/2014  22:30:00     -125.246      -61.487        7.938       80.596       49.119       35.746     6495.724     2412.652     1277.808        1.486        0.509      139.524       13.235        0.009      338.051       10.440      861.849
03/13/2014  22:31:00       30.312       28.811       24.638       76.270       95.184       39.874     5817.056     9059.962     1589.908        0.941        0.823       41.820       44.076        1.111      337.969       10.302      861.838
03/13/2014  22:32:00      -70.896       -4.192       29.270       50.809       67.404       58.622     2581.549     4543.254     3436.504        0.823        0.528       71.020       60.642        0.729      338.131       10.575      861.801
03/13/2014  22:33:00      -37.543      -43.056        9.483       51.320       33.471       28.774     2633.753     1120.303      827.916        0.397        0.229       57.125       22.296        0.152      338.122       10.559      861.829
03/13/2014  22:34:00       -3.230       -9.867       14.396       28.434       41.541       26.506      808.518     1725.630      702.588        0.178        0.162       10.382       26.950        6.738      338.093       10.511      861.813
03/13/2014  22:35:00        7.621       16.910       41.458       20.538       54.854       47.168      421.825     3008.960     2224.854        0.386        0.283       18.548       47.683        6.609      337.967       10.300      861.815
03/13/2014  22:36:00      -11.053      -48.108        4.008       30.092       63.354       63.333      905.521     4013.705     4011.103        0.569        0.447       49.361       53.360        1.169      338.062       10.459      861.789
03/13/2014  22:37:00      -20.540      -24.585       -7.160       25.817       24.902       29.220      666.493      620.090      853.808        0.161        0.107       32.036       18.882        0.347      338.204       10.696      861.803
03/13/2014  22:38:00      -73.751      -26.993       -5.483       19.740       29.225       16.464      389.653      854.072      271.056        0.386        0.076       78.535        8.496        0.012      338.102       10.525      861.813
03/13/2014  22:39:00      -67.087      -32.681       -8.560       16.699       21.586       12.979      278.851      465.969      168.447        0.328        0.046       74.624       10.762        0.021      337.935       10.245      861.808
03/13/2014  22:40:00      -42.193      -22.958        0.704       31.412       13.085       13.926      986.714      171.217      193.941        0.183        0.068       48.035       15.806        0.108      337.963       10.293      861.796
03/13/2014  22:41:00      -18.641      -11.503        2.083       25.382       11.165       13.522      644.265      124.661      182.837        0.072        0.048       21.905        9.929        0.205      338.010       10.370      861.801
03/13/2014  22:42:00      -25.535       -9.069        0.847       24.001       15.697       11.813      576.042      246.403      139.541        0.085        0.048       27.098        5.822        0.046      337.953       10.275      861.797
03/13/2014  22:43:00      -33.776       14.412        5.143       27.560       20.174       16.023      759.526      406.994      256.732        0.140        0.071       36.722       16.272        0.196      337.965       10.295      861.809
03/13/2014  22:44:00      -38.917       -6.987       -4.489       19.304       21.713        9.240      372.633      471.467       85.377        0.126        0.046       39.539        8.858        0.050      337.801       10.018      861.819
03/13/2014  22:45:00      -66.508      -32.952      -10.527       14.468       17.891        9.916      209.310      320.094       98.329        0.312        0.031       74.224        4.542        0.004      337.811       10.037      861.846
03/13/2014  22:46:00       -8.582       11.942        4.759       23.945       17.320       11.648      573.377      299.990      135.677        0.062        0.050       14.706       10.203        0.481      337.692        9.840      861.840
03/13/2014  22:47:00      -69.565      -25.191       -9.115       26.895       19.797       11.917      723.351      391.911      142.004        0.341        0.063       73.985        9.778        0.017      337.674        9.808      861.857
03/13/2014  22:48:00      -47.100      -26.364       -9.291       28.662       11.755       11.050      821.491      138.172      122.113        0.204        0.054       53.977        9.067        0.028      337.688        9.831      861.857
03/13/2014  22:49:00      -62.914      -23.169       -0.699       30.395       15.174       14.689      923.878      230.260      215.758        0.293        0.068       67.045       14.481        0.047      337.664        9.790      861.864
03/13/2014  22:50:00      -16.805        0.821        3.507       36.402       16.686       14.475     1325.128      278.423      209.538        0.105        0.091       16.825       12.212        0.527      337.580        9.649      861.854
03/13/2014  22:51:00      -33.669        7.917       -6.289       46.452       25.265        8.987     2157.792      638.302       80.759        0.206        0.144       34.587       10.533        0.093      337.765        9.959      861.855
03/13/2014  22:52:00     -100.852      -37.354       -6.323       65.238       19.608       14.205     4255.943      384.474      201.781        0.822        0.242      107.548       16.549        0.024      337.532        9.570      861.870
03/13/2014  22:53:00      -11.004      -43.735      -12.693       34.064       32.400       20.528     1160.334     1049.749      421.385        0.241        0.132       45.098       14.027        0.097      337.680        9.817      861.852
03/13/2014  22:54:00     -111.792      -30.980       -9.489       21.849       17.734       15.306      477.373      314.507      234.279        0.729        0.051      116.005        5.357        0.002      337.542        9.587      861.863
03/13/2014  22:55:00      -66.763      -49.683        5.751       51.378       24.117       21.171     2639.665      581.620      448.222        0.531        0.183       83.221       24.514        0.087      337.312        9.202      861.862
03/13/2014  22:56:00      -30.610     -109.929       -3.239       24.350       40.141       16.442      592.910     1611.339      270.324        0.775        0.124      114.111        8.471        0.006      337.569        9.633      861.854
03/13/2014  22:57:00      -75.326     -124.589       -1.544       38.819       34.749       20.127     1506.920     1207.480      405.099        1.216        0.156      145.589       16.535        0.013      337.657        9.779      861.841
03/13/2014  22:58:00     -107.954      -80.712       -7.517       43.323       37.741       21.337     1876.841     1424.357      455.284        1.099        0.188      134.791       21.573        0.026      337.518        9.547      861.843
03/13/2014  22:59:00      -23.843     -109.454        1.140       43.249       52.178       23.286     1870.484     2722.585      542.217        0.884        0.257      112.021       18.791        0.028      337.569        9.632      861.846
03/13/2014  23:00:00      -60.200     -157.151        2.683       39.644       36.043       19.776     1571.648     1299.133      391.108        1.579        0.163      168.287        8.963        0.003      337.654        9.775      861.832
03/13/2014  23:01:00      -78.912      -45.167       -6.613       45.884       46.879       18.946     2105.325     2197.647      358.963        0.649        0.233       90.924       19.157        0.044      337.590        9.666      861.848
03/13/2014  23:02:00      -29.021      -34.954        1.462       22.263       22.212       14.185      495.621      493.388      201.203        0.163        0.060       45.431        8.834        0.038      337.540        9.582      861.854
03/13/2014  23:03:00      -36.661      -15.882        4.031       22.094       29.921       14.066      488.131      895.276      197.847        0.160        0.079       39.953       11.015        0.076      337.513        9.537      861.866
03/13/2014  23:04:00       -1.338       10.542       -0.470       24.722       23.209       13.872      611.165      538.643      192.432        0.073        0.067       10.626       10.183        0.918      337.355        9.273      861.874
03/13/2014  23:05:00        2.574      -21.947       -4.199       10.388       26.550       14.567      107.901      704.898      212.200        0.077        0.051       22.098       16.639        0.567      337.491        9.500      861.905
03/13/2014  23:06:00      -21.752       25.922       22.300       17.510       14.314       13.799      306.592      204.901      190.425        0.117        0.035       33.840       11.165        0.109      337.424        9.388      861.912
03/13/2014  23:07:00       -3.895       22.488       10.989       20.774       32.756       15.720      431.538     1072.944      247.120        0.120        0.088       22.823       12.130        0.282      337.401        9.350      861.924
03/13/2014  23:08:00       -0.189       31.115        4.983       20.825       20.497       15.181      433.662      420.129      230.449        0.104        0.054       31.116        8.448        0.074      337.582        9.655      861.954
03/13/2014  23:09:00        3.910       20.759        6.560       10.792       17.281       11.414      116.466      298.628      130.282        0.052        0.027       21.124        6.757        0.102      337.390        9.332      861.963
03/13/2014  23:10:00       21.274       27.018       -3.855       11.647        9.214       10.014      135.643       84.890      100.289        0.076        0.016       34.388        7.155        0.043      337.408        9.362      861.975
03/13/2014  23:11:00       31.839       44.754        3.930       14.900       11.753       12.560      222.016      138.130      157.754        0.177        0.026       54.924        8.657        0.025      337.348        9.261      861.984
03/13/2014  23:12:00       28.514       34.774        6.381       18.202       11.881        9.917      331.305      141.154       98.347        0.132        0.029       44.970        6.950        0.024      337.202        9.017      862.006
03/13/2014  23:13:00        7.453        5.007       -0.220       15.952       15.955        8.240      254.479      254.575       67.892        0.033        0.029        8.978        8.140        0.822      337.173        8.969      862.037
03/13/2014  23:14:00       -2.505        7.796       13.069       14.169       13.974       11.921      200.767      195.263      142.122        0.039        0.027        8.189        6.716        0.673      336.923        8.550      862.056
03/13/2014  23:15:00       36.379       22.731       16.933       24.832       13.652       18.745      616.617      186.372      351.367        0.164        0.058       42.897        7.223        0.028      337.078        8.809      862.049
03/13/2014  23:16:00       27.425       38.450       30.746       22.808       18.639       18.912      520.212      347.417      357.664        0.220        0.061       47.228       15.067        0.102      337.123        8.885      862.040
03/13/2014  23:17:00       18.570        4.012        7.403       16.653       16.526       12.418      277.324      273.103      154.207        0.056        0.035       18.998        8.496        0.200      337.134        8.902      862.042
03/13/2014  23:18:00        7.778      -28.438        9.144       13.416       26.093       11.042      179.976      680.863      121.926        0.097        0.049       29.483        6.226        0.045      337.285        9.155      862.048
03/13/2014  23:19:00       25.478        1.416        7.515       20.158       14.148       11.444      406.344      200.179      130.956        0.072        0.037       25.517        6.283        0.061      337.365        9.289      862.043
03/13/2014  23:20:00       17.401        7.293       14.498       22.856       14.288       10.292      522.407      204.138      105.925        0.070        0.042       18.867        8.797        0.217      337.292        9.167      862.043
03/13/2014  23:21:00       27.559       12.022        9.181        9.109        6.272       10.151       82.968       39.336      103.033        0.061        0.011       30.067        4.624        0.024      337.320        9.214      862.062
03/13/2014  23:22:00       -9.722        4.775        6.290       18.096        6.901       11.985      327.482       47.628      143.647        0.034        0.026       10.831       13.782        1.619      337.180        8.982      862.060
03/13/2014  23:23:00      -57.669       -8.477       -3.295       11.802        8.493        9.514      139.288       72.131       90.521        0.186        0.015       58.288        4.770        0.007      336.959        8.611      862.066
03/13/2014  23:24:00      -67.552       -6.025       -3.434       27.992       20.661       17.491      783.543      426.864      305.941        0.306        0.076       67.821       16.536        0.059      336.830        8.395      862.066
03/13/2014  23:25:00     -116.374      -12.042      -11.490       26.047       20.386       16.392      678.455      415.588      268.706        0.759        0.068      116.995       12.969        0.012      336.732        8.232      862.070
03/13/2014  23:26:00      -64.381        8.276       -7.674       57.937       16.512       20.138     3356.676      272.648      405.534        0.415        0.202       64.910       27.379        0.178      336.572        7.967      862.073
03/13/2014  23:27:00       -2.671       20.046       -3.893       12.116       13.446        6.586      146.807      180.796       43.380        0.040        0.019       20.223        7.039        0.121      337.220        9.049      862.044
03/13/2014  23:28:00      -23.321       -3.494       -4.373       34.795       25.567       12.184     1210.684      653.651      148.458        0.129        0.101       23.581       18.188        0.595      337.103        8.852      862.057
03/13/2014  23:29:00       -6.006        6.525        1.618       38.456       19.227       16.501     1478.835      369.682      272.272        0.110        0.106        8.868       22.228        6.283      336.784        8.318      862.058
03/13/2014  23:30:00       -4.277       24.777        1.135       31.401       17.281       13.492      986.001      298.650      182.041        0.105        0.073       25.143       11.808        0.221      337.392        9.335      862.043
03/13/2014  23:31:00      -98.029      -17.640      -19.823       25.080       13.298       13.355      629.006      176.837      178.366        0.565        0.049       99.603       12.865        0.017      336.509        7.859      862.083
03/13/2014  23:32:00      -66.190      -26.837       -2.147       35.513       28.261       23.551     1261.144      798.661      554.635        0.386        0.131       71.424       11.579        0.026      336.565        7.953      862.089
03/13/2014  23:33:00      -14.573       31.541       -3.259       16.779       14.734       16.023      281.531      217.083      256.742        0.099        0.038       34.745       10.032        0.083      336.977        8.640      862.067
03/13/2014  23:34:00      -68.724      -28.410       -8.893       33.167       25.476       14.258     1100.057      649.044      203.299        0.378        0.098       74.365       13.591        0.033      336.497        7.840      862.069
03/13/2014  23:35:00      -87.816      -37.816      -11.646       22.013       26.520       15.508      484.555      703.290      240.488        0.535        0.071       95.612       12.028        0.016      336.392        7.663      862.090
03/13/2014  23:36:00      -46.940       -7.806       -3.113       21.861       15.111       11.652      477.885      228.335      135.765        0.156        0.042       47.584        5.619        0.014      336.614        8.034      862.096
03/13/2014  23:37:00      -13.354       28.188       -0.706       15.879       12.083       12.715      252.148      145.997      161.659        0.077        0.028       31.191        7.931        0.065      337.295        9.172      862.095
03/13/2014  23:38:00      -36.793      -19.412        2.150       31.435       19.060       12.104      988.157      363.297      146.507        0.162        0.075       41.600       17.361        0.174      336.874        8.468      862.107
03/13/2014  23:39:00      -43.215      -29.157       -4.000       19.608       11.708       10.720      384.465      137.067      114.910        0.168        0.032       52.131        7.947        0.023      336.516        7.871      862.106
03/13/2014  23:40:00      -87.062      -36.888      -20.081       18.012       16.964       11.091      324.417      287.766      123.003        0.504        0.037       94.555        8.771        0.009      336.411        7.695      862.133
03/13/2014  23:41:00      -84.179      -34.728      -15.706       31.266       16.300       13.168      977.581      265.697      173.385        0.498        0.071       91.061       11.043        0.015      336.364        7.617      862.155
03/13/2014  23:42:00      -63.971      -51.583      -12.311       40.029       39.273       15.496     1602.312     1542.384      240.137        0.514        0.169       82.177       12.930        0.025      336.217        7.369      862.152
03/13/2014  23:43:00       -3.967      -21.429        0.536       16.296       13.316       13.113      265.571      177.312      171.946        0.054        0.031       21.793        9.877        0.205      336.511        7.862      862.126
03/13/2014  23:44:00       -6.910       -1.961       -1.418       13.530        6.183        6.729      183.058       38.234       45.273        0.016        0.013        7.183        4.685        0.425      336.993        8.667      862.108
03/13/2014  23:45:00      -94.685      -12.426       -6.950       46.865       22.927       19.053     2196.298      525.653      363.009        0.613        0.154       95.497       20.782        0.047      336.554        7.934      862.123
03/13/2014  23:46:00      -84.798       16.806       -1.977       50.594       37.433       28.473     2559.774     1401.210      810.685        0.612        0.239       86.448       19.677        0.052      336.850        8.428      862.130
03/13/2014  23:47:00      -54.861      -16.137       -0.922       30.712       38.417       15.841      943.223     1475.843      250.936        0.297        0.134       57.185       14.178        0.061      336.603        8.016      862.112
03/13/2014  23:48:00      -54.778      -25.503       -2.868       17.839       22.206       11.587      318.239      493.117      134.261        0.230        0.047       60.424        6.342        0.011      336.588        7.991      862.097
03/13/2014  23:49:00      -30.566      -28.301       -8.399       21.142       22.085       17.917      447.004      487.735      321.002        0.153        0.063       41.656       13.397        0.103      336.515        7.870      862.077
03/13/2014  23:50:00      -64.551      -17.338      -17.023       18.384       16.547       12.871      337.987      273.808      165.654        0.277        0.039       66.839        6.451        0.009      336.314        7.533      862.061
03/13/2014  23:51:00      -97.948      -31.399      -10.345       39.975       16.427       13.758     1597.987      269.854      189.288        0.637        0.103      102.857       17.391        0.029      336.337        7.570      862.058
03/13/2014  23:52:00     -135.805      -34.060       -6.939       72.012       50.927       26.201     5185.693     2593.596      686.488        1.406        0.423      140.012       35.170        0.063      336.190        7.324      862.070
03/13/2014  23:53:00      -44.699      -27.042        4.087       37.553       29.797       16.745     1410.214      887.855      280.404        0.266        0.129       52.243       14.704        0.079      336.307        7.523      862.064
03/13/2014  23:54:00      -62.354      -27.495       -7.833       30.901       13.998       10.887      954.847      195.951      118.528        0.299        0.063       68.147        8.961        0.017      336.546        7.920      862.065
03/13/2014  23:55:00     -115.569      -39.976      -16.744       10.426       11.209        9.890      108.707      125.646       97.817        0.778        0.017      122.288        5.742        0.002      336.167        7.287      862.062
03/13/2014  23:56:00     -126.315      -34.396      -13.358       30.379       26.222       15.366      922.883      687.579      236.125        0.958        0.092      130.915        7.861        0.004      336.052        7.095      862.062
03/13/2014  23:57:00      -32.620        0.460       -5.675       23.812       25.595       14.938      567.029      655.102      223.147        0.127        0.072       32.623        9.524        0.085      336.310        7.526      862.060
03/13/2014  23:58:00       -9.740      -30.900        2.446       19.967       17.462       18.224      398.701      304.930      332.113        0.105        0.052       32.399       13.456        0.172      336.452        7.763      862.060
03/13/2014  23:59:00      -78.556      -28.813       -9.947       33.470       17.101       24.358     1120.268      292.453      593.335        0.455        0.100       83.674       26.651        0.101      336.094        7.165      862.069
